GFSMW_850_spd_000.txt.gz
Wind_Speed
14 12 12 12 12 13 12 14 13 12 7 5 5 9 11 12 13 14 15 15 16 17 18 21 23 23 25 27 27 29 31 31 30 34 36 38 38 37 36 37 33 36 36
13 12 12 12 13 14 15 14 14 13 11 8 6 5 5 6 7 8 10 11 12 13 14 16 18 19 21 22 23 23 25 28 26 31 33 28 30 32 30 32 36 37 35
14 14 14 14 14 16 16 16 16 15 14 13 9 7 5 5 4 7 8 9 11 12 13 15 17 18 20 22 23 23 24 25 27 26 28 21 24 33 37 32 35 39 37
13 16 15 15 14 16 14 14 14 15 16 14 13 11 10 10 12 10 10 10 11 13 15 17 19 21 22 23 24 24 25 26 27 26 25 29 34 33 35 26 28 35 36
13 16 16 14 14 12 12 12 12 14 14 14 14 13 12 11 9 8 10 13 16 18 20 22 24 25 26 27 28 29 29 29 29 28 30 31 33 32 31 39 32 38 37
16 15 14 12 12 11 9 10 11 12 12 12 12 12 11 11 12 14 17 20 22 25 27 29 30 31 31 32 32 31 31 31 31 31 30 29 28 30 31 34 37 37 38
17 15 13 11 11 9 9 9 10 11 12 12 12 13 13 14 16 18 22 25 28 31 32 33 34 35 35 34 34 34 32 31 30 30 30 30 29 29 30 32 36 33 40
16 14 12 10 9 7 6 7 9 10 11 12 13 13 14 17 20 23 26 28 30 31 32 33 33 33 33 34 34 34 32 30 29 27 26 29 32 32 31 29 30 36 36
17 14 12 9 7 5 5 5 7 8 10 12 13 15 18 21 25 27 29 29 29 30 30 31 32 32 33 34 34 34 34 31 29 27 30 34 35 32 28 26 28 28 31
17 15 12 10 8 5 3 2 3 7 10 11 13 18 21 24 25 26 26 27 27 29 29 29 30 31 32 33 34 35 34 32 30 34 37 36 34 30 27 29 28 28 28
17 16 13 11 8 6 4 1 3 6 9 12 16 19 22 24 24 24 25 26 26 27 28 29 31 32 34 34 35 34 33 33 34 37 37 33 27 26 30 28 31 32 29
17 17 14 12 11 8 5 2 3 7 10 14 19 23 24 24 23 24 26 27 27 27 28 29 31 34 35 37 37 37 37 35 37 37 34 28 29 33 32 34 38 38 27
19 18 16 15 12 8 5 3 5 9 13 19 23 23 23 23 25 26 25 25 26 27 28 31 34 36 37 38 38 38 38 38 37 35 37 39 37 38 38 41 38 31 34
19 18 18 15 12 8 5 4 6 10 16 20 21 21 23 25 26 25 26 26 27 29 31 33 35 36 37 37 38 38 38 39 37 39 43 43 38 35 39 35 35 34 38
18 19 18 15 12 8 4 3 7 13 19 20 21 23 25 25 25 25 26 27 28 30 32 35 36 38 38 38 38 37 37 38 40 43 44 43 41 35 30 34 37 37 39
15 17 18 15 12 8 5 5 11 17 21 22 24 25 24 25 25 26 27 29 31 34 36 37 39 40 39 38 37 34 34 37 40 42 43 41 38 34 35 35 36 35 38
12 18 18 15 12 8 3 8 14 19 20 23 24 24 24 24 25 27 29 32 35 37 38 39 39 39 38 38 36 33 33 37 38 39 39 39 38 38 39 40 39 40 39
13 18 19 15 10 5 6 11 15 19 21 20 21 23 23 24 26 29 32 34 36 38 39 40 39 39 40 38 37 32 34 36 37 37 38 38 39 39 38 42 44 44 46
12 15 14 11 9 7 7 12 17 18 18 19 20 22 24 26 28 32 33 34 37 38 40 40 40 41 42 39 34 32 35 37 39 39 38 35 37 38 39 40 46 47 47
8 12 12 11 9 6 10 15 17 18 18 19 21 23 24 27 30 31 34 36 36 39 41 42 42 41 40 38 31 32 34 37 39 40 40 39 36 37 36 43 44 41 48
9 12 11 9 6 8 14 18 16 17 19 20 22 23 25 28 31 34 34 36 39 41 42 44 44 42 37 36 32 32 33 34 38 40 43 45 40 30 40 41 39 38 40
10 10 8 8 9 12 14 13 15 18 20 22 23 25 27 30 32 34 37 38 40 42 43 44 45 40 34 34 33 32 30 32 36 41 46 45 30 38 41 36 35 37 34
9 10 10 10 10 11 13 14 17 20 22 24 25 27 30 32 34 36 38 40 41 40 41 40 38 36 37 40 36 32 32 34 37 40 40 31 35 42 41 36 35 34 33
11 11 10 10 9 11 13 16 19 21 24 26 27 30 34 37 36 37 37 38 38 37 36 34 35 40 39 38 39 38 40 39 40 40 34 37 42 44 36 40 43 40 35
11 10 10 9 10 12 15 17 20 22 24 27 30 34 36 37 39 38 38 36 33 28 31 33 34 36 37 37 34 35 38 38 37 39 38 40 41 38 40 41 41 43 39
8 10 10 11 11 14 16 18 20 23 26 30 34 35 37 38 38 40 42 37 30 26 27 27 26 29 29 32 33 35 34 33 39 39 34 35 34 37 39 41 43 43 41

GFSMW_850_spd_003.txt.gz
Wind_Speed
12 13 13 13 14 15 14 15 15 15 11 8 6 4 2 3 4 6 8 9 10 11 12 13 14 15 17 19 21 23 25 27 28 31 36 35 34 24 32 24 29 32 36
13 13 14 14 15 16 17 16 16 14 13 10 10 9 9 9 8 8 7 9 10 11 12 13 15 17 19 21 24 25 28 28 27 25 30 21 31 23 24 38 36 35 32
15 14 14 15 14 16 17 16 16 16 16 16 14 12 10 11 9 9 9 10 10 12 15 18 20 23 25 27 28 30 30 32 32 29 22 18 19 40 34 30 32 26 28
15 14 14 14 15 16 15 15 15 16 17 15 13 11 11 10 11 9 10 11 14 17 20 23 25 27 28 28 29 29 29 30 30 31 24 29 31 28 34 24 31 33 26
15 15 14 14 15 13 12 13 13 14 14 13 12 11 11 11 9 9 12 16 20 23 26 29 31 32 32 31 31 31 30 28 28 27 27 28 27 25 28 43 31 35 30
18 15 15 14 13 12 11 11 11 13 12 11 11 11 11 11 12 15 19 23 27 30 31 31 31 30 30 30 30 29 28 28 27 27 26 22 22 23 28 34 43 41 42
21 18 16 14 13 11 10 10 9 12 11 11 12 13 14 15 18 21 24 26 28 30 29 28 28 28 28 28 29 30 30 29 28 26 26 24 26 28 29 31 37 37 41
22 19 16 15 13 11 10 8 8 9 9 10 11 12 14 17 20 23 25 26 26 26 26 26 25 25 26 27 29 31 32 32 31 30 30 31 34 32 28 32 34 38 37
24 20 18 16 14 12 9 7 6 5 6 8 9 11 15 19 22 23 24 24 24 23 22 21 21 23 25 29 31 33 34 34 34 33 32 33 34 30 28 27 28 30 32
23 21 18 17 15 12 9 6 3 1 3 5 8 12 17 19 21 21 21 21 20 19 19 20 22 26 29 31 33 35 36 36 35 33 34 32 29 28 28 30 31 28 27
24 21 19 18 15 13 9 6 3 1 2 4 8 13 17 20 20 20 20 20 20 20 21 23 26 29 31 33 36 37 37 38 37 34 33 28 26 34 35 30 29 30 32
20 20 19 19 16 13 10 8 5 3 3 6 11 15 19 20 20 20 20 20 19 21 23 26 28 31 34 36 38 39 38 37 37 35 28 30 33 37 30 30 29 33 28
19 21 21 19 16 14 11 9 6 4 4 9 13 17 19 19 20 20 20 20 21 23 25 28 31 33 35 37 38 38 39 38 36 35 33 35 33 33 31 30 31 29 33
21 21 21 20 17 15 12 9 6 3 6 11 16 19 21 21 21 20 20 21 23 25 27 30 32 35 37 38 38 38 37 37 37 35 33 32 30 30 32 32 31 34 37
18 21 22 21 18 16 12 8 4 4 8 13 16 18 19 20 19 18 20 22 24 27 30 33 35 37 37 37 37 36 37 37 38 35 33 31 30 30 29 31 36 37 38
13 17 20 21 20 15 10 7 4 6 11 15 17 19 19 18 18 20 22 25 27 30 34 37 38 38 37 36 37 36 36 34 32 34 35 32 32 30 31 34 33 34 38
8 14 20 20 17 13 10 7 5 9 13 16 18 19 17 18 20 22 25 28 31 35 37 38 38 38 38 39 38 36 32 31 31 31 35 36 32 33 37 34 35 37 36
5 12 18 19 15 13 10 7 7 11 14 16 18 17 18 20 22 24 27 31 35 38 39 39 38 40 40 39 38 35 30 33 32 32 32 34 35 35 34 38 35 36 49
6 7 12 15 14 12 9 6 8 13 15 16 16 17 20 22 24 27 31 34 37 39 40 40 40 41 42 39 35 28 32 35 34 32 31 32 36 35 35 34 39 46 44
5 6 12 14 13 11 7 7 10 14 15 15 16 19 21 23 26 29 33 36 38 40 41 43 41 40 40 36 29 29 33 35 36 34 34 34 34 36 28 34 41 42 45
5 8 11 12 10 8 7 10 12 14 14 16 17 18 20 24 28 33 35 38 39 41 42 42 42 40 36 34 29 30 31 33 37 39 37 40 37 25 32 38 39 36 40
8 10 12 11 9 8 9 10 12 14 15 16 18 20 23 27 31 35 37 38 40 41 42 43 42 37 33 30 30 29 28 30 35 38 41 41 31 38 39 39 33 35 35
11 12 12 11 9 8 9 11 14 15 16 18 21 23 26 30 33 36 37 39 39 39 40 39 37 34 37 34 32 29 30 33 35 40 33 36 42 38 38 36 35 33 36
12 11 11 9 9 10 11 13 13 15 18 21 23 26 31 35 35 35 36 37 37 36 34 32 32 35 36 35 35 37 38 36 38 34 43 44 35 29 36 37 37 36 35
11 10 10 9 9 11 10 11 14 16 19 22 26 31 34 35 36 37 36 35 32 26 28 30 30 31 32 34 32 34 36 36 34 41 42 36 30 37 36 37 36 39 38
10 10 10 9 10 9 9 12 15 18 21 25 30 32 34 35 36 38 40 34 28 24 23 22 22 26 27 30 32 32 33 31 37 37 35 32 34 34 37 38 40 40 41

GFSMW_850_spd_006.txt.gz
Wind_Speed
10 13 15 16 15 16 16 17 16 15 11 10 9 8 9 9 8 7 7 7 8 9 11 13 15 16 18 20 21 21 22 20 20 24 27 26 19 19 25 21 22 33 32
11 14 16 18 18 19 19 17 16 15 13 12 11 10 10 11 9 9 9 9 10 11 13 14 17 20 22 23 25 24 25 21 22 23 28 21 29 20 27 36 25 28 31
15 14 17 19 19 19 18 17 16 14 15 15 13 13 12 12 10 9 8 10 12 14 17 20 22 23 23 23 23 22 22 20 21 19 19 24 23 37 31 30 25 23 29
15 15 16 18 18 18 17 16 15 15 16 14 13 11 10 9 10 10 11 12 15 18 20 22 23 23 22 23 24 23 22 20 19 19 17 21 26 31 38 20 30 27 28
16 16 17 19 18 16 15 14 13 14 13 11 10 10 10 10 10 11 13 16 19 21 24 25 25 24 23 22 22 23 23 22 20 20 21 22 23 26 31 44 32 36 32
17 17 19 18 17 14 13 12 11 12 12 10 10 10 10 10 11 14 17 20 23 25 25 24 22 21 20 21 23 24 25 25 25 22 20 21 24 27 29 36 41 40 39
18 18 19 18 16 14 12 12 11 11 10 8 8 9 10 12 14 17 19 21 23 23 22 20 19 19 20 21 23 25 26 24 26 24 22 22 22 25 27 31 38 39 42
19 18 18 17 16 14 13 11 10 10 8 6 5 6 7 10 13 16 18 20 20 20 19 18 18 19 21 23 25 26 26 24 24 27 25 23 24 24 25 28 32 39 39
20 19 19 18 17 15 14 12 10 8 6 4 2 3 7 10 14 16 18 19 19 18 18 17 18 19 22 25 27 27 27 29 23 25 23 24 26 25 26 27 30 34 37
20 18 18 18 18 16 14 12 10 7 5 2 0 4 7 11 14 16 18 18 17 17 17 18 19 21 24 27 28 28 29 25 25 23 25 25 27 27 27 28 32 31 33
22 19 18 19 19 17 15 13 10 7 5 2 2 6 9 13 15 17 18 17 17 17 17 18 20 23 27 29 30 30 28 25 25 25 25 27 27 29 30 31 31 30 32
21 19 19 21 20 18 16 14 11 8 6 3 4 7 10 14 17 18 18 16 16 16 17 20 23 26 29 32 33 28 25 26 27 27 28 28 29 30 30 30 31 33 34
20 19 20 21 21 19 17 15 12 9 6 4 5 8 11 15 17 18 16 15 16 17 19 23 26 30 32 33 31 25 27 27 28 28 29 30 30 31 30 31 34 34 35
20 19 19 20 20 19 18 16 12 9 7 5 7 10 13 17 18 17 15 16 18 20 22 26 29 31 33 33 27 33 29 29 28 29 28 29 29 29 31 33 32 35 37
18 20 20 19 20 20 19 15 12 10 7 6 9 12 16 18 17 15 16 18 20 23 26 29 31 33 34 29 34 34 29 29 30 28 28 28 28 30 29 32 35 36 40
16 18 20 20 20 20 17 14 12 9 6 8 11 15 17 17 15 16 18 20 23 26 29 31 32 33 32 33 34 32 29 29 28 29 30 29 29 28 32 32 33 34 38
12 15 17 19 19 18 16 14 11 8 7 10 13 16 16 15 16 18 20 23 27 30 32 32 31 32 32 33 34 30 28 26 26 28 30 31 30 32 33 37 35 39 35
7 10 14 18 18 18 15 14 11 7 8 12 15 16 14 15 17 20 23 27 30 32 31 29 31 30 27 32 28 28 25 26 27 27 29 30 32 32 35 38 44 30 32
4 8 11 15 17 16 15 12 9 8 9 13 16 15 15 17 20 23 27 30 32 32 29 30 29 28 28 26 26 26 27 27 28 28 28 31 34 34 37 38 35 38 43
3 6 10 13 15 15 13 10 9 10 12 14 15 15 17 19 22 26 29 31 31 30 29 28 26 25 25 24 23 25 26 29 31 31 32 32 33 35 36 42 41 39 44
3 5 8 10 12 12 10 9 9 10 12 14 15 16 18 22 25 29 31 30 30 29 27 26 24 22 21 22 25 25 27 29 35 37 38 37 35 34 42 43 37 36 41
4 5 7 9 10 11 10 9 9 11 12 14 16 18 20 24 28 29 30 30 26 26 28 26 23 21 22 23 24 26 27 30 34 37 38 37 38 43 40 33 32 36 35
7 8 9 10 11 11 10 10 11 11 13 15 18 20 23 26 27 28 28 27 25 25 25 24 25 25 24 24 25 28 30 33 35 35 35 40 42 38 32 32 32 33 32
10 11 11 12 12 12 10 9 11 12 15 17 19 22 25 28 27 26 24 26 24 23 22 24 26 27 26 26 28 33 38 37 36 36 38 40 34 31 31 32 34 32 32
12 13 13 12 12 11 9 9 11 13 16 18 20 23 25 25 26 27 26 25 22 20 23 24 26 28 29 29 31 34 37 37 36 40 40 33 33 33 34 35 34 36 36
12 12 12 12 11 9 8 11 12 14 16 19 22 24 26 25 27 26 25 21 21 21 23 23 23 25 26 28 32 33 33 33 36 35 30 32 33 34 36 37 38 38 38

GFSMW_850_spd_009.txt.gz
Wind_Speed
8 8 10 11 13 14 15 15 15 14 13 13 12 11 10 9 8 8 8 8 8 10 11 12 14 16 17 17 19 19 21 22 19 22 26 27 15 20 20 19 28 32 32
12 12 12 14 14 16 16 16 15 14 13 13 14 13 12 12 11 10 8 9 9 11 13 15 17 19 19 18 20 20 22 20 21 21 24 19 23 17 31 31 25 27 22
17 16 15 15 15 18 18 17 16 16 15 15 15 15 13 12 10 8 8 9 11 14 16 19 19 19 18 18 19 19 19 20 20 19 16 16 18 34 27 31 17 22 31
18 17 17 16 17 19 18 16 15 15 15 14 14 12 10 10 9 8 9 11 14 17 20 21 20 19 18 18 18 18 20 20 18 20 16 19 25 30 32 15 34 27 30
20 19 17 17 18 18 17 16 15 15 15 13 12 11 10 9 8 8 10 13 17 21 23 23 21 19 18 18 20 21 22 22 19 19 21 22 24 26 31 41 33 34 30
20 18 17 17 18 18 17 16 15 15 13 12 11 10 9 8 7 9 12 15 18 21 24 23 20 19 19 20 21 22 22 22 21 24 21 23 26 28 29 35 39 38 36
22 20 19 17 17 17 16 15 14 14 12 10 9 7 5 5 7 9 12 16 19 22 23 22 19 19 19 20 22 23 23 22 22 25 25 27 27 27 29 33 39 40 40
21 20 18 17 16 16 15 14 13 12 11 8 6 4 3 3 6 9 13 16 19 20 20 19 18 18 19 21 21 23 21 20 26 25 27 28 27 28 29 32 33 42 42
22 21 18 16 15 15 14 13 12 11 9 7 5 2 1 4 8 11 14 17 19 20 19 18 18 18 20 21 23 24 25 25 27 26 27 27 30 30 31 32 32 33 39
22 21 19 17 15 15 15 13 12 11 9 6 4 1 2 6 9 13 16 18 19 19 18 17 18 20 22 23 24 26 26 25 25 27 29 29 31 32 32 32 32 33 35
24 22 19 17 15 15 15 14 12 11 9 6 4 3 5 7 11 14 17 18 18 18 17 18 20 22 24 24 26 26 25 23 27 28 30 31 32 33 33 33 34 34 32
23 21 19 18 16 15 15 14 12 11 10 7 5 5 7 9 13 16 18 17 17 17 18 20 22 24 25 26 26 26 24 27 29 30 31 32 32 33 32 33 33 33 36
22 21 20 18 16 15 14 13 12 12 10 8 6 6 9 12 15 17 17 17 16 18 20 22 24 25 27 28 27 24 26 30 29 31 31 33 32 33 32 32 34 36 36
23 21 20 17 16 14 14 13 12 12 11 9 7 8 11 14 17 17 17 16 18 21 23 24 26 27 26 28 25 26 33 31 31 31 31 31 30 31 33 36 34 34 39
22 21 19 17 16 15 13 13 13 12 11 9 8 9 12 15 16 16 16 18 21 23 25 26 27 26 29 25 28 34 33 33 33 31 29 29 30 31 30 31 34 38 40
20 19 17 16 16 15 14 14 13 12 10 9 8 11 14 16 16 16 18 20 22 24 25 26 26 28 28 27 27 28 32 32 31 30 31 30 30 30 31 32 34 35 38
16 16 16 15 15 15 14 13 12 12 9 7 8 11 14 16 17 18 20 21 23 25 26 27 27 29 29 27 28 28 30 29 29 30 31 32 31 31 36 37 36 37 37
11 11 13 13 14 14 13 13 12 10 8 7 9 12 15 16 17 19 20 22 23 26 28 30 29 30 30 28 28 27 28 28 28 29 30 32 34 36 35 38 41 40 41
9 9 11 12 13 14 14 12 10 8 6 7 10 12 16 17 18 20 22 25 27 30 31 30 30 30 30 27 25 26 28 30 30 30 31 33 35 36 35 39 43 46 48
8 9 10 11 11 12 11 10 8 6 7 9 11 14 16 18 19 22 25 26 28 30 29 30 30 28 28 24 24 25 28 31 33 35 36 34 34 35 37 41 45 42 41
7 7 8 9 10 10 9 8 7 6 8 10 14 15 16 19 20 24 26 29 29 30 28 29 28 26 23 24 25 25 27 31 36 40 38 37 37 36 41 41 37 36 40
7 7 8 9 8 9 9 8 6 7 10 13 14 15 17 19 23 27 30 30 27 27 28 27 26 24 23 24 25 26 27 31 36 38 39 40 38 41 40 34 33 36 35
5 6 7 7 7 7 7 6 7 9 12 13 14 16 19 21 24 28 28 27 24 25 27 26 26 26 26 28 25 27 31 33 36 37 39 38 41 35 33 35 33 32 34
4 5 6 7 7 7 6 7 8 11 11 12 14 17 21 24 26 24 22 24 25 26 26 27 28 29 31 29 31 36 38 38 39 39 40 39 33 32 34 33 34 33 33
5 6 7 8 9 6 8 9 10 9 11 13 17 20 22 24 24 23 23 24 24 23 27 30 31 32 32 33 32 35 38 39 39 39 36 33 34 35 35 35 35 35 35
7 7 9 9 9 8 8 9 8 9 12 16 19 21 23 23 22 24 29 24 22 23 24 24 25 29 28 30 33 35 36 36 36 33 31 34 33 34 36 37 39 39 39

GFSMW_850_spd_012.txt.gz
Wind_Speed
9 10 10 13 16 14 15 16 17 16 18 20 20 17 14 11 10 9 9 7 7 8 9 11 13 15 17 18 18 19 20 19 21 25 31 24 23 17 13 29 27 27 20
13 15 14 14 16 19 20 22 22 22 21 19 15 13 12 13 12 10 8 7 8 10 12 15 18 19 18 17 17 18 20 20 21 23 24 18 29 14 36 19 27 16 19
20 18 18 18 18 18 18 19 18 18 17 15 15 17 15 13 10 8 7 8 10 13 16 19 21 19 17 17 16 18 20 23 22 21 16 13 11 40 16 36 11 25 32
23 20 19 18 19 20 19 19 20 19 17 15 15 13 12 12 9 7 7 8 11 16 21 23 23 20 18 17 17 18 20 21 22 23 21 22 23 28 27 11 43 25 38
27 24 21 19 20 21 20 20 19 20 19 17 14 13 12 10 7 5 6 10 15 19 22 24 24 22 19 18 18 20 21 22 22 22 26 29 27 32 31 40 31 35 33
28 24 21 21 22 20 20 19 19 19 18 16 15 12 10 8 6 5 6 9 14 18 22 24 23 21 20 19 20 21 22 24 24 25 27 27 29 32 32 35 42 41 38
29 27 24 22 22 21 20 19 19 19 18 16 14 11 8 6 3 3 6 10 14 19 23 24 22 20 20 20 21 23 24 25 27 27 31 27 30 32 30 33 41 41 43
28 26 24 22 22 21 20 19 18 18 17 14 12 9 6 3 1 4 8 12 16 19 22 22 21 19 19 21 23 25 26 28 28 30 30 30 32 30 31 35 35 46 45
30 27 24 22 22 21 19 19 18 16 15 12 10 7 4 2 3 6 10 14 17 20 21 20 19 19 21 23 25 27 30 30 31 30 30 33 34 34 32 32 35 34 43
30 28 26 23 21 20 20 18 16 15 13 11 8 6 4 3 5 8 12 16 18 20 19 18 19 21 23 25 28 30 32 32 30 30 34 35 34 35 35 34 33 34 34
31 30 27 23 22 22 20 18 17 14 13 11 9 6 4 5 7 10 14 17 19 19 18 19 21 23 26 28 31 33 33 32 29 33 38 35 36 36 34 36 35 35 32
30 29 27 25 24 22 21 18 16 15 13 11 9 7 6 6 9 13 16 18 18 17 18 20 23 25 29 31 33 33 33 28 33 40 38 38 36 36 36 34 35 34 40
28 28 27 27 24 21 20 18 16 15 13 11 9 8 7 7 11 14 17 18 18 18 20 22 25 28 31 33 33 33 28 32 40 40 40 38 35 34 34 35 39 40 39
29 29 28 26 22 20 19 17 16 15 13 11 9 8 6 9 13 16 17 18 19 20 21 24 27 30 32 33 34 27 35 39 40 42 39 31 29 32 36 38 37 33 35
29 29 28 24 21 20 18 17 16 15 12 11 9 6 7 10 14 17 18 18 19 21 24 28 30 32 32 33 28 31 33 37 41 40 30 30 31 31 32 33 36 38 43
30 27 26 22 23 22 20 18 17 15 12 10 7 6 8 11 15 18 18 18 20 24 27 30 32 32 32 30 29 28 32 36 39 34 34 32 34 32 33 35 37 36 38
24 24 23 22 22 21 20 18 16 13 11 8 6 6 9 13 16 17 17 20 23 27 29 31 32 31 32 31 27 28 31 33 35 33 34 35 35 38 40 39 38 39 37
23 22 20 20 20 20 17 15 14 11 10 7 6 7 11 13 15 17 19 22 26 29 31 31 32 32 34 30 28 28 30 33 34 34 34 35 40 41 37 41 42 46 43
15 17 19 21 21 18 17 14 12 10 7 5 6 8 11 13 15 18 21 25 28 30 30 31 32 33 33 31 28 27 30 35 36 34 32 36 39 37 38 41 45 45 44
18 19 19 18 16 16 13 12 10 8 6 4 6 10 12 14 17 20 24 27 28 30 31 33 33 32 32 30 25 26 31 34 35 35 40 37 36 38 39 41 44 38 44
16 14 13 13 12 11 11 10 8 6 4 5 8 10 12 15 19 22 25 27 29 31 32 34 33 32 27 28 27 28 29 32 37 41 41 39 39 38 40 39 35 39 40
15 13 12 11 10 10 11 8 7 4 4 6 8 10 13 17 20 23 26 27 30 32 34 35 35 33 33 28 29 26 28 30 36 40 42 44 40 41 37 35 36 34 36
12 11 9 10 10 10 9 7 5 3 5 7 8 11 15 18 20 24 27 28 30 31 33 33 36 39 37 37 31 28 30 34 36 40 40 38 38 35 37 34 34 32 37
10 8 8 8 9 8 7 5 2 3 5 7 10 13 16 19 23 25 27 29 30 30 31 33 35 37 38 36 36 35 38 37 41 42 39 36 35 34 34 36 38 37 36
8 7 7 7 6 7 6 3 2 4 6 8 11 14 18 22 26 26 27 28 26 24 27 29 31 33 35 35 33 34 36 39 39 38 38 41 37 37 38 39 39 40 38
6 8 9 8 6 6 3 2 3 4 7 10 13 16 21 25 26 28 31 29 29 25 23 23 24 28 28 30 32 33 36 36 34 34 36 35 36 37 38 39 42 42 41

GFSMW_850_spd_015.txt.gz
Wind_Speed
17 10 11 12 11 11 14 16 23 26 27 27 27 25 21 16 16 10 9 8 6 4 5 9 12 15 17 17 17 17 17 17 22 26 28 24 19 9 16 26 23 22 13
19 16 17 17 16 17 19 22 25 25 25 23 21 19 17 15 13 12 9 6 4 5 9 13 16 18 17 16 16 16 18 19 21 24 24 16 24 10 34 14 26 13 18
28 24 21 22 22 21 20 21 22 22 21 18 18 19 19 17 14 11 7 5 4 7 12 16 19 19 18 16 15 16 19 21 21 21 15 10 9 41 14 35 10 30 24
31 30 27 23 23 24 23 22 22 20 16 14 16 16 17 16 13 9 5 3 4 9 14 18 20 20 19 16 16 16 18 20 23 23 22 18 23 24 23 18 44 25 41
36 34 29 25 24 24 24 24 23 22 20 19 17 17 16 13 11 7 3 1 6 10 15 19 21 21 18 17 17 17 18 20 21 22 26 28 31 29 29 34 27 39 38
37 33 29 27 27 26 25 23 22 21 19 18 16 16 14 12 10 7 2 3 8 12 15 19 21 20 18 17 18 19 20 21 23 24 24 26 28 30 35 41 41 38 36
41 37 33 31 29 28 26 25 23 24 22 20 19 17 14 11 9 5 1 3 8 13 17 20 20 18 17 17 19 20 22 23 26 27 28 28 26 29 34 36 42 38 40
42 37 33 31 30 28 27 26 25 24 22 21 19 16 13 10 7 3 1 6 11 14 18 20 19 16 17 18 20 22 24 26 28 29 28 26 28 32 34 34 38 46 43
41 36 32 31 30 28 27 26 25 23 22 20 18 15 12 8 5 2 4 9 13 16 18 18 17 16 18 20 22 25 27 29 30 30 28 28 32 38 34 34 35 36 41
39 34 32 31 30 28 26 24 22 20 20 18 16 13 10 7 5 4 7 11 15 17 18 17 17 17 19 22 25 28 29 31 31 29 29 32 39 40 36 31 31 35 36
39 35 32 30 29 28 26 24 22 21 19 17 15 12 10 7 6 6 10 13 16 17 17 17 17 19 22 25 28 30 30 32 31 31 34 39 40 36 33 32 30 31 32
38 34 33 31 30 29 26 24 22 20 19 16 14 12 10 8 6 8 11 14 16 17 17 17 19 21 24 28 30 31 32 31 32 37 40 41 39 32 28 28 32 35 38
37 35 34 33 31 29 27 24 22 20 19 16 14 12 9 7 6 9 12 15 16 16 17 18 21 24 27 30 31 31 29 31 35 37 39 40 32 29 29 31 36 37 35
39 39 36 33 30 28 26 24 22 19 17 16 14 11 8 6 7 10 13 15 16 17 17 20 23 27 29 30 31 29 31 32 34 37 38 35 29 29 32 34 34 33 39
39 41 39 35 30 26 24 22 20 18 16 15 13 9 6 5 7 11 15 16 15 16 19 23 25 27 29 30 29 29 29 31 35 37 36 33 29 27 27 32 38 38 40
36 39 37 33 29 26 25 23 20 17 15 14 11 8 5 5 8 13 15 14 16 19 22 24 27 28 29 29 27 26 28 31 33 36 37 34 33 30 32 35 32 33 38
37 36 35 31 26 25 24 23 19 16 14 12 9 6 5 7 10 13 13 15 18 21 24 25 27 28 29 29 26 26 28 30 32 35 36 37 35 35 39 39 37 40 40
33 33 30 26 24 25 22 19 17 14 12 11 8 6 5 8 11 12 13 16 20 23 25 26 27 28 29 28 26 26 28 30 33 33 32 34 36 39 36 40 44 42 43
30 28 26 25 26 24 22 18 14 12 12 10 6 4 6 9 10 12 15 19 23 24 25 27 28 29 30 28 26 26 28 32 32 32 31 34 36 37 38 41 43 42 39
26 26 25 24 23 22 17 14 13 12 10 7 4 4 7 8 10 14 18 21 23 25 27 28 28 28 29 30 25 24 27 30 34 37 39 38 36 37 36 40 39 39 45
22 21 21 20 17 16 14 13 12 11 8 4 3 5 6 8 12 16 20 23 25 27 28 29 29 30 31 33 27 25 26 28 33 38 40 43 39 35 38 35 38 36 37
20 17 17 16 15 14 13 13 11 8 5 3 3 3 6 9 13 18 21 23 25 27 29 31 32 32 33 32 32 26 27 27 33 35 42 41 35 38 37 33 30 32 32
17 15 15 16 14 13 10 9 8 6 4 2 1 4 7 11 16 20 22 24 25 27 29 31 34 35 34 34 32 33 29 32 33 38 35 33 37 36 33 31 30 30 37
16 15 14 14 14 13 10 8 6 4 3 1 2 5 9 14 18 20 22 25 26 27 28 30 32 33 34 34 33 34 35 36 38 38 36 40 35 31 31 34 36 36 34
14 12 12 12 11 11 10 7 5 4 2 1 4 8 13 17 19 21 23 24 24 22 25 26 27 29 32 32 31 31 34 36 36 35 38 37 35 37 37 37 38 38 37
13 12 11 10 10 10 8 7 5 3 1 4 7 11 15 18 21 23 24 23 24 24 23 22 21 25 24 28 29 30 32 33 33 32 33 33 34 35 36 38 41 40 38

GFSMW_850_spd_018.txt.gz
Wind_Speed
27 21 17 15 16 17 18 22 28 30 31 32 28 26 22 19 18 13 11 9 7 4 1 5 9 12 15 16 16 14 13 15 19 22 23 17 9 9 7 29 12 24 11
25 22 18 17 17 16 17 19 22 31 32 29 28 29 25 19 16 12 13 10 6 1 3 7 12 15 16 16 15 15 15 16 19 22 19 13 19 6 34 16 31 14 29
33 26 23 21 19 18 19 20 23 26 27 28 28 26 23 18 16 17 13 9 4 1 5 10 14 17 17 15 14 15 16 18 18 18 15 9 8 36 17 37 20 33 27
35 31 28 26 23 22 24 24 25 26 25 24 23 23 21 21 20 16 12 7 2 2 7 12 16 19 17 15 14 15 16 18 20 19 18 16 18 15 21 25 42 33 42
42 37 34 30 27 25 26 25 25 23 21 19 18 19 22 20 19 14 10 6 2 4 9 13 17 18 16 15 14 14 16 18 19 21 23 24 25 25 23 31 30 45 44
42 39 35 33 31 29 28 27 27 25 22 21 22 21 21 20 16 12 9 5 2 6 10 14 17 17 15 14 14 16 17 19 20 22 23 24 25 27 27 34 39 37 37
46 42 39 36 35 33 31 29 28 27 25 23 22 21 19 15 13 10 7 4 4 7 11 14 16 15 14 14 16 17 19 21 24 25 26 25 24 23 27 34 44 36 39
46 46 42 39 37 35 33 31 30 28 26 24 23 22 18 15 13 10 7 4 5 9 13 15 15 15 15 16 17 19 22 24 25 27 27 26 24 26 31 37 38 43 38
48 47 42 39 38 36 34 31 30 28 26 25 24 22 18 15 12 9 6 4 7 11 13 15 15 16 16 17 19 22 24 26 28 28 27 27 29 34 36 35 31 29 38
42 45 41 39 36 35 33 30 28 27 27 25 22 20 17 15 12 8 5 6 9 12 14 15 16 16 17 19 22 25 26 27 27 27 29 32 34 36 36 31 28 25 30
45 44 41 38 36 34 32 30 29 28 26 24 22 19 16 13 10 6 5 8 11 13 15 16 16 17 19 21 24 25 26 26 27 29 32 34 36 37 33 29 27 28 30
44 43 39 38 36 34 31 30 28 26 23 22 20 17 14 11 8 6 6 9 12 14 15 15 16 18 21 23 25 27 26 27 30 31 32 34 36 35 32 28 28 31 33
39 39 38 38 37 34 31 29 26 24 22 20 18 15 13 10 7 6 7 10 13 14 14 16 18 21 24 26 26 26 27 29 28 30 32 35 35 34 30 29 32 32 31
40 39 38 38 35 33 31 28 25 22 21 18 16 13 11 9 7 6 8 10 13 13 14 17 20 23 24 26 27 28 28 29 29 30 32 33 34 33 31 32 31 33 41
37 39 39 37 35 32 30 27 24 22 19 16 14 12 11 9 7 7 8 11 12 13 16 20 22 23 25 27 28 28 28 28 30 31 31 32 33 30 29 30 36 38 40
37 38 37 36 35 33 31 27 24 21 17 14 13 12 10 8 7 7 10 11 12 15 18 21 23 24 25 27 26 25 28 29 30 32 33 34 33 30 31 35 32 33 39
38 38 38 36 34 32 28 26 23 19 15 14 13 12 9 7 7 9 11 11 13 17 20 21 23 24 26 27 27 25 27 30 31 32 31 32 33 35 36 37 36 39 36
36 36 35 34 32 28 25 22 20 17 14 13 13 11 8 6 7 10 10 12 16 19 20 22 23 25 27 28 28 28 27 30 28 28 30 31 36 34 35 38 41 37 40
32 31 31 30 29 26 24 22 19 16 14 13 11 8 6 6 8 8 11 14 17 19 21 23 25 27 27 27 28 25 28 30 31 29 30 33 32 36 35 36 42 41 46
26 27 28 28 25 25 24 21 17 15 14 12 9 6 5 6 7 9 12 16 19 21 23 24 25 26 27 27 27 24 27 31 34 34 38 35 35 34 32 38 39 42 39
24 26 26 25 25 25 22 18 15 14 13 10 7 5 5 5 7 10 15 18 20 22 24 26 26 26 27 27 25 21 25 30 33 36 38 42 34 34 36 33 33 31 35
26 24 25 24 23 20 17 15 15 14 11 8 6 4 4 5 8 12 16 18 21 24 26 27 28 27 27 26 25 22 24 26 31 34 40 36 34 36 33 28 26 30 31
25 23 22 23 20 15 12 15 14 12 9 6 5 4 4 6 11 14 17 21 23 25 26 27 28 30 28 27 25 26 26 29 30 35 33 33 35 32 29 26 27 28 32
22 21 20 20 20 17 14 11 11 9 7 6 4 3 5 8 12 15 19 22 23 24 25 26 27 28 28 28 27 29 32 32 35 34 38 38 31 28 27 30 32 33 31
20 17 16 17 17 15 13 12 9 8 6 5 3 4 7 11 14 17 20 22 22 22 22 22 23 26 28 26 26 28 30 32 34 33 34 32 32 32 32 33 35 35 33
18 17 15 14 15 14 13 11 9 7 5 3 3 6 10 14 17 20 21 20 21 21 20 20 19 23 22 25 26 26 28 31 28 28 29 32 32 32 33 36 38 36 34

GFSMW_850_spd_021.txt.gz
Wind_Speed
30 26 25 25 23 22 21 21 27 32 32 33 32 26 24 21 19 14 11 10 9 8 4 4 6 10 14 17 17 15 15 16 20 22 22 14 10 18 13 10 24 20 20
32 21 24 24 22 21 21 25 27 30 34 35 32 27 26 19 17 14 11 10 10 6 3 4 8 12 16 16 15 14 14 15 19 21 19 12 16 4 21 24 22 22 23
35 26 29 27 23 22 20 22 26 30 32 34 32 28 25 23 18 15 13 14 10 5 3 5 9 13 16 15 15 14 15 15 15 17 13 9 7 35 16 33 24 33 32
33 31 33 30 26 22 19 19 21 24 31 33 30 27 25 24 19 18 17 14 9 5 4 7 10 14 15 15 14 14 15 16 17 17 16 15 18 15 20 24 43 36 43
34 30 36 33 27 22 21 20 21 25 29 29 26 25 25 23 21 21 17 13 8 5 6 8 11 14 16 15 14 14 15 16 17 19 22 24 24 22 20 35 40 48 47
33 33 38 32 28 25 24 24 25 26 26 23 22 21 23 24 25 22 17 12 7 6 7 10 13 15 15 15 15 15 16 17 19 21 22 23 23 26 24 33 41 44 49
36 38 39 35 31 30 30 28 28 27 25 23 22 21 22 23 21 18 14 10 7 6 8 11 14 15 15 15 15 16 17 20 22 23 24 24 22 22 26 34 44 44 50
38 41 43 40 36 34 33 33 31 29 26 24 25 25 23 22 19 15 12 9 7 7 9 12 14 15 15 16 17 18 20 22 23 24 25 23 22 25 28 31 36 46 33
38 43 47 43 39 36 35 35 33 29 28 28 27 26 23 20 16 14 12 9 7 8 10 13 14 15 16 17 19 20 23 24 24 25 25 26 28 28 30 31 29 29 35
36 43 49 46 40 37 35 33 30 30 29 27 26 24 22 18 16 14 11 8 8 9 11 13 15 16 17 19 21 23 24 25 25 26 27 28 29 31 32 32 30 27 30
41 44 48 43 39 36 34 33 31 30 29 27 25 23 21 19 16 12 9 8 8 10 12 14 16 17 18 21 23 24 25 26 26 27 27 28 29 32 32 32 30 29 29
32 41 47 43 39 36 34 33 31 30 28 26 24 22 19 17 14 10 8 8 8 11 13 15 17 18 20 23 24 25 26 27 27 27 28 29 31 32 33 34 32 32 32
33 40 42 40 39 37 35 33 31 28 27 25 22 20 17 14 11 10 8 7 9 12 14 16 17 20 23 24 24 26 26 26 27 28 29 30 30 33 36 32 34 34 32
37 41 40 39 37 36 35 33 30 27 25 22 20 17 15 13 11 9 8 8 10 13 15 16 19 22 23 24 25 26 27 27 28 28 28 29 31 33 31 32 32 34 40
35 39 39 39 38 36 34 31 28 26 23 20 17 15 14 12 10 9 8 9 12 14 16 17 19 22 24 25 27 27 27 27 29 30 30 31 29 26 26 29 35 36 37
35 37 37 38 38 36 34 31 28 24 20 17 15 14 13 12 10 8 8 11 13 14 16 19 21 23 25 26 28 26 27 28 29 31 30 28 27 29 29 31 30 30 35
37 38 37 36 37 36 33 30 26 22 19 16 15 13 13 11 9 8 10 12 12 14 18 20 22 24 26 27 27 25 26 28 28 29 29 27 29 32 33 35 34 34 31
35 35 34 34 33 32 29 26 23 21 18 15 14 13 12 9 8 9 10 10 13 16 19 21 24 26 27 27 26 26 27 29 29 29 27 30 33 31 33 37 35 42 43
29 31 30 30 30 30 28 26 23 20 17 15 14 12 10 8 8 8 9 11 14 17 20 23 25 26 27 27 27 26 28 29 31 31 31 30 30 34 33 34 40 41 44
21 25 25 27 27 28 26 25 22 19 16 14 13 11 10 8 7 8 9 13 16 19 22 23 24 25 26 26 26 24 26 30 33 34 34 31 33 32 31 36 38 40 35
20 21 24 26 27 27 25 23 20 17 14 14 12 10 8 7 6 8 11 15 18 21 23 24 24 25 26 27 25 22 24 28 32 37 38 40 34 32 34 31 32 30 34
23 23 25 26 25 24 23 21 17 15 15 13 11 8 6 5 6 9 13 17 20 22 23 25 26 26 27 26 25 21 23 25 31 33 38 36 34 34 31 27 25 28 29
26 25 25 26 25 22 18 16 16 16 14 12 9 6 4 5 8 12 15 19 21 23 24 26 28 29 28 27 23 24 25 27 28 32 33 34 34 31 28 24 26 26 30
26 25 26 26 25 19 15 13 16 15 11 8 6 4 4 6 10 14 17 20 22 23 25 26 28 29 29 28 25 28 29 30 32 34 35 34 29 26 24 26 29 30 30
24 22 22 22 22 20 18 15 13 10 8 6 5 4 5 9 12 15 18 20 21 22 24 24 25 26 28 25 25 26 28 30 31 30 31 30 29 29 28 30 32 33 32
23 21 20 20 20 18 16 14 11 8 7 5 4 5 8 11 14 17 18 19 20 22 22 22 22 23 22 23 25 25 27 28 26 27 28 29 29 29 30 33 36 34 33

GFSMW_850_spd_024.txt.gz
Wind_Speed
28 28 27 23 26 23 21 21 22 24 30 34 32 31 24 22 22 20 17 14 9 10 7 6 5 7 10 14 16 17 17 18 20 21 19 12 7 10 12 7 20 24 22
37 35 25 27 24 24 21 21 20 24 32 35 34 32 27 24 23 21 17 12 9 9 8 5 5 8 12 15 17 18 17 18 20 21 19 11 11 2 8 23 23 19 21
36 37 31 25 23 25 23 21 21 24 31 33 33 32 28 27 24 19 15 13 12 11 8 5 5 9 13 16 18 18 17 16 17 18 13 8 7 34 9 29 18 29 30
37 37 29 26 27 26 23 20 22 27 29 32 34 32 30 24 24 18 16 16 15 11 7 5 7 11 14 16 17 17 17 17 17 16 16 15 17 14 19 21 40 32 41
35 38 32 28 29 28 24 21 21 26 30 33 33 32 28 24 22 19 17 18 15 11 7 5 8 11 14 15 16 16 17 17 18 19 21 21 21 21 20 34 39 46 46
32 34 32 29 30 28 23 21 22 25 28 32 33 29 24 23 23 21 21 19 14 9 6 7 9 12 14 15 15 16 16 17 19 20 20 22 22 24 22 33 42 43 45
30 33 32 31 32 30 26 24 24 26 28 31 29 26 23 21 21 22 21 17 13 8 7 8 10 12 14 15 16 16 17 18 20 22 22 23 21 21 25 31 40 46 53
27 30 35 33 34 33 30 28 28 28 30 29 27 24 20 20 22 21 19 15 10 7 7 9 11 13 15 16 17 18 18 20 22 23 23 22 22 24 25 27 33 46 32
20 27 31 36 38 37 34 32 32 31 30 28 27 25 24 24 23 20 16 12 9 7 7 10 12 14 15 17 18 19 20 22 23 23 23 25 24 25 26 27 27 29 35
27 25 30 38 41 38 36 34 32 31 29 27 26 26 26 23 21 17 14 10 8 8 9 11 13 15 17 18 19 20 22 23 23 24 25 25 25 26 27 28 27 28 31
30 33 33 40 42 39 37 36 34 31 29 27 27 27 25 22 19 15 12 10 8 9 10 12 14 16 17 18 20 22 23 24 25 25 26 27 26 28 28 28 29 31 29
28 31 35 41 42 38 36 36 35 31 29 28 27 25 23 20 17 14 12 10 9 9 10 13 15 16 17 20 23 24 25 26 26 27 28 29 29 29 29 30 31 30 31
21 30 33 40 42 40 37 36 34 32 30 28 26 23 20 18 15 13 11 9 9 10 12 14 16 17 20 22 23 25 25 26 27 28 29 31 31 31 30 27 29 30 32
20 25 32 40 40 37 35 35 33 30 29 27 24 21 18 16 14 12 10 8 9 11 13 15 17 19 21 23 24 25 26 27 28 29 30 30 28 27 26 27 28 30 37
22 28 35 40 39 37 34 33 31 29 27 24 21 19 17 15 12 10 9 9 10 11 14 15 18 20 22 24 26 26 27 28 29 29 28 27 26 23 23 26 32 33 34
22 27 36 38 37 36 35 33 30 27 24 21 19 18 16 13 11 10 9 9 10 12 14 16 19 21 23 25 27 27 26 28 29 29 27 27 26 28 28 28 27 27 35
26 33 36 36 35 35 33 31 27 24 22 19 18 16 14 12 10 9 8 9 10 12 15 18 20 22 25 27 27 26 26 28 27 27 29 29 31 30 31 32 33 32 37
28 32 33 34 33 32 29 26 25 23 21 19 17 14 12 11 10 8 7 8 10 13 16 19 22 24 26 27 27 26 26 26 25 27 28 31 33 31 31 36 34 39 42
24 28 30 30 30 29 27 26 25 23 20 18 15 13 11 10 9 7 6 8 11 14 17 21 24 26 26 27 28 27 26 26 28 28 30 32 29 34 31 32 38 40 42
16 25 27 26 26 28 27 26 25 23 20 16 13 12 11 9 6 5 7 9 13 16 20 22 23 25 27 28 27 23 24 27 29 30 35 33 31 30 30 34 35 39 35
20 23 24 25 26 28 28 26 23 21 17 15 14 12 9 5 4 6 7 11 15 19 21 22 23 25 26 27 25 23 23 27 29 34 35 38 31 31 32 29 31 28 32
25 24 26 27 27 27 26 25 22 19 17 15 13 9 6 5 4 6 10 14 17 20 22 24 25 25 26 26 26 23 22 24 29 32 36 36 32 32 30 27 24 26 28
25 24 26 28 27 25 23 23 21 19 16 13 10 6 4 4 4 8 12 15 19 22 23 25 26 27 27 27 26 25 25 26 27 31 32 32 33 32 28 24 24 25 29
25 26 28 29 29 25 21 16 17 16 13 10 7 5 4 4 7 11 15 18 21 22 23 25 27 28 28 28 26 28 28 29 32 33 34 33 30 26 24 24 27 28 29
28 28 29 29 28 23 19 16 15 12 10 8 6 4 3 6 9 13 17 19 20 21 22 23 25 26 28 25 23 24 27 29 29 30 31 32 30 29 27 27 30 31 30
28 27 25 24 24 20 19 16 13 9 7 6 4 2 5 9 12 16 17 17 18 20 21 22 22 24 23 23 23 23 26 25 26 28 30 30 29 29 29 32 34 33 32

GFSMW_850_spd_027.txt.gz
Wind_Speed
32 26 25 28 28 26 25 25 24 25 25 26 34 35 33 30 26 24 24 22 18 10 8 9 7 5 5 7 10 12 15 16 18 18 16 9 5 13 8 11 14 19 24
36 35 31 28 25 24 24 24 25 24 23 27 35 38 36 30 27 27 26 22 17 11 11 10 7 5 6 8 10 13 15 17 19 19 15 8 7 4 16 19 21 22 18
37 40 36 33 28 25 26 25 26 23 23 27 34 37 33 31 32 30 26 21 16 13 12 9 7 5 6 9 12 14 14 16 18 17 12 7 4 25 5 23 13 24 26
39 41 40 34 30 26 25 25 25 23 23 27 34 38 35 33 33 30 25 18 14 15 13 10 7 6 7 10 12 15 16 16 15 16 16 14 14 9 14 16 29 26 36
36 36 39 35 30 28 26 26 25 23 24 28 34 37 34 32 33 30 25 22 19 17 13 10 7 6 8 10 13 15 16 16 17 17 18 18 18 18 17 25 29 38 36
29 28 32 34 33 30 28 27 26 26 27 30 34 36 33 30 32 29 24 21 19 18 13 9 6 7 9 11 13 15 16 17 17 18 19 19 19 19 19 20 28 30 31
25 30 34 30 35 32 30 29 27 27 29 31 33 34 32 30 26 23 24 24 22 17 12 8 7 8 10 13 14 15 16 17 18 19 20 20 20 22 25 28 31 30 37
28 24 25 28 34 34 32 31 28 28 29 32 34 35 35 28 27 26 23 23 20 15 10 8 7 9 12 13 15 16 17 18 19 20 20 21 21 22 24 27 29 39 25
28 27 24 26 34 36 34 33 31 29 30 31 33 35 30 26 27 25 25 22 18 13 9 7 8 10 12 14 15 16 17 19 19 20 21 22 22 24 25 26 27 26 33
21 25 22 25 33 37 37 34 30 31 31 32 32 30 27 28 27 26 24 19 14 10 8 7 9 11 13 14 16 17 18 19 19 21 22 23 24 25 26 26 27 28 29
20 24 27 27 33 38 39 36 34 34 35 33 31 30 30 29 27 24 20 15 12 9 7 8 9 11 13 15 16 17 18 20 21 21 24 24 25 27 28 28 29 30 29
17 17 26 28 33 38 38 37 36 36 34 33 31 31 31 29 25 21 17 13 10 7 7 8 9 11 14 16 17 18 20 21 22 24 25 27 28 29 28 28 28 28 28
10 13 22 27 32 37 38 38 37 35 34 32 32 32 30 26 22 18 14 12 8 7 7 8 10 12 14 16 18 19 20 22 23 25 27 27 27 27 28 26 26 28 27
8 11 18 25 32 38 40 40 38 34 33 32 31 29 27 23 19 15 13 9 7 6 7 9 11 13 15 17 19 21 22 24 25 26 26 26 25 27 26 25 26 24 30
10 13 20 27 34 38 38 37 35 33 31 31 28 26 23 20 16 14 11 8 6 6 7 10 12 14 16 18 21 23 24 25 26 26 26 25 25 24 23 24 26 28 30
15 15 20 29 36 38 38 36 34 33 31 29 26 23 20 18 15 12 9 7 5 5 8 11 13 15 18 20 22 24 24 25 26 27 26 26 26 27 22 24 24 25 30
18 19 23 33 37 37 35 35 34 32 29 26 24 21 18 15 12 10 7 5 4 7 9 11 14 17 19 22 23 24 24 25 25 25 26 27 26 27 28 29 28 31 25
19 21 27 34 35 34 33 32 31 30 27 25 22 19 16 13 11 8 5 3 5 7 10 13 16 19 21 23 24 24 24 25 24 25 25 27 31 27 28 32 32 36 34
17 21 29 32 32 31 31 31 30 27 26 23 19 16 13 11 9 5 3 4 6 8 12 15 18 20 21 23 24 24 24 24 25 25 26 28 25 28 27 30 36 33 32
17 23 27 30 30 31 30 29 29 27 23 20 17 14 12 9 6 4 3 4 7 10 14 17 19 21 22 23 24 22 22 25 25 24 25 25 27 26 27 31 32 32 32
19 23 26 28 29 29 29 28 27 24 21 18 15 13 10 7 4 3 3 6 9 12 15 18 19 20 23 23 23 23 20 22 25 26 25 28 27 28 30 28 28 27 29
23 24 27 29 30 29 29 27 25 22 19 16 13 11 8 5 3 2 5 8 12 15 18 19 19 21 23 25 25 21 18 20 24 26 29 29 29 30 29 26 23 24 25
24 25 28 31 30 28 25 26 23 20 17 14 11 9 6 3 2 3 7 11 14 17 19 20 23 24 26 25 23 22 22 22 23 28 27 29 31 30 27 23 21 23 25
22 25 29 31 30 26 23 19 20 17 13 12 10 7 5 3 3 6 10 13 16 18 19 22 24 26 26 26 24 25 26 27 29 28 32 30 29 25 22 22 23 25 26
25 27 30 30 29 25 22 18 16 15 13 10 8 6 4 2 5 8 12 15 17 18 20 22 24 25 25 23 21 23 24 26 27 28 29 30 28 26 25 24 25 27 27
28 29 28 28 28 24 20 18 15 11 8 8 7 5 2 4 7 10 12 14 15 17 18 20 21 22 22 23 22 21 23 24 25 27 28 28 26 25 26 27 30 29 30

GFSMW_850_spd_030.txt.gz
Wind_Speed
27 24 23 22 21 29 31 27 25 24 25 25 25 30 36 35 33 29 28 26 25 23 17 16 10 9 6 5 6 9 11 13 14 13 12 8 7 12 8 5 15 18 20
33 31 28 26 24 24 27 30 27 27 27 26 27 25 35 38 36 34 30 27 26 23 17 16 12 9 6 5 6 8 11 13 14 12 8 5 5 4 6 21 8 15 16
33 33 33 33 28 25 26 28 29 27 28 26 27 34 39 38 36 32 30 30 27 24 19 16 13 10 7 6 6 8 10 12 14 12 6 5 4 13 10 9 16 12 19
30 34 33 33 34 29 30 29 30 30 29 30 29 33 39 39 34 32 32 31 25 22 19 17 13 10 7 6 7 9 10 11 11 13 12 9 10 6 10 8 12 14 18
24 28 30 32 31 32 37 33 31 30 30 28 29 30 36 38 37 36 35 31 26 22 21 17 14 10 7 7 8 9 11 12 12 12 13 12 11 10 10 19 15 21 20
17 21 25 24 27 27 35 36 34 32 31 29 29 32 37 41 35 38 35 31 27 25 22 18 14 10 7 7 8 10 12 13 13 13 14 12 10 11 13 19 23 25 23
24 22 20 22 23 26 33 35 35 34 32 30 30 34 37 36 32 36 34 30 26 24 21 17 13 9 7 7 9 11 12 13 14 15 14 15 15 16 16 18 24 25 26
18 21 21 21 23 27 32 35 36 35 32 31 32 32 34 35 34 36 32 30 27 24 21 16 11 8 7 8 9 11 12 14 15 16 17 17 17 17 17 18 22 30 25
18 16 19 19 21 25 32 36 36 34 33 31 33 32 34 36 36 35 32 29 25 22 18 14 10 7 7 8 10 11 13 14 16 17 18 18 18 18 19 19 19 22 33
19 15 13 17 19 22 30 32 32 33 32 33 32 33 32 34 35 32 30 27 23 20 16 11 9 7 8 9 11 12 14 15 17 18 18 19 19 21 21 19 19 21 26
19 17 9 11 15 20 25 31 31 32 33 33 33 33 33 33 32 30 29 26 22 18 13 10 8 7 8 10 12 13 14 16 18 19 20 21 21 21 20 19 20 22 23
16 15 6 9 14 20 24 28 31 32 33 34 34 33 31 30 32 30 28 24 19 15 11 9 7 7 9 11 12 14 16 18 19 20 21 21 20 22 21 19 21 22 23
14 12 4 7 13 19 23 28 31 33 34 34 33 32 32 33 32 29 25 21 16 12 10 7 6 8 10 12 13 15 17 19 19 21 22 22 22 22 19 20 21 23 25
10 9 3 7 13 19 24 28 33 34 36 34 34 34 34 33 30 26 22 17 14 11 7 6 6 8 10 12 15 17 18 19 20 21 22 23 22 20 21 22 23 25 28
8 10 4 9 15 20 27 31 33 35 35 35 35 34 33 30 26 23 19 15 11 8 5 5 7 9 11 14 16 17 18 18 19 21 21 21 22 25 22 22 23 26 30
11 6 7 12 18 25 30 35 35 35 35 35 34 33 30 27 23 19 16 12 8 5 4 5 7 10 12 15 18 19 19 19 20 20 20 20 21 20 22 23 24 26 29
13 10 12 15 21 28 33 36 37 35 33 33 31 30 27 23 20 16 12 9 6 4 4 6 9 12 14 17 19 20 21 20 20 20 20 20 19 22 22 24 26 28 29
9 13 16 20 27 30 35 36 35 34 34 31 28 25 23 20 17 13 10 7 4 3 5 7 11 14 16 18 20 21 20 18 18 19 20 20 21 21 23 28 31 31 28
14 17 19 25 28 32 34 35 35 33 30 28 26 22 19 16 13 10 8 5 3 4 6 9 13 15 17 19 21 22 19 17 18 19 20 20 22 21 26 29 32 31 29
19 22 23 27 28 30 32 32 33 31 28 25 22 19 16 12 10 9 6 4 3 5 8 12 15 17 18 19 21 22 18 17 18 19 20 20 21 26 26 30 30 32 28
20 24 25 27 29 31 32 32 31 28 25 21 19 17 14 11 9 7 5 3 4 7 11 14 16 17 18 19 21 22 18 16 19 21 21 21 24 26 29 28 27 25 27
23 26 28 28 29 30 30 30 28 24 22 20 17 15 13 11 8 5 3 3 7 10 13 14 15 17 19 21 22 21 18 17 19 21 22 25 26 29 29 26 23 23 24
25 25 27 29 28 28 27 27 26 24 21 18 16 14 12 9 6 2 3 6 10 12 14 15 16 18 19 19 21 20 18 19 20 21 26 27 28 28 26 22 21 20 18
24 26 28 29 28 27 25 22 24 21 18 17 16 13 9 6 2 2 6 9 12 13 14 15 17 18 19 18 16 18 19 19 21 25 26 26 26 23 22 19 18 17 18
25 27 29 29 28 26 24 22 21 19 18 16 13 9 6 3 2 5 8 11 13 13 14 16 19 19 19 17 19 20 20 22 24 26 23 20 19 19 19 18 19 19 21
28 29 30 30 30 26 25 22 19 16 13 11 9 7 4 1 4 8 10 12 13 14 16 18 20 20 20 20 19 19 20 22 23 22 18 18 18 18 19 20 22 25 27

GFSMW_850_spd_033.txt.gz
Wind_Speed
28 27 26 28 33 35 33 30 28 25 23 24 26 27 31 29 29 28 32 27 26 24 23 19 16 13 11 8 6 5 7 10 11 11 10 10 12 10 9 9 7 14 15
33 33 32 31 32 34 34 32 30 27 26 26 27 27 30 34 37 38 32 32 31 26 23 20 18 15 12 9 6 6 8 10 11 10 9 3 6 7 7 8 17 12 15
35 35 36 37 34 35 36 34 32 29 29 27 25 29 32 40 43 40 36 35 31 27 25 22 18 16 12 9 6 6 7 9 11 10 4 4 3 14 9 12 11 15 15
27 32 35 34 37 37 36 34 32 32 31 30 32 36 38 39 40 39 38 36 29 28 26 22 18 16 13 9 7 7 8 8 9 11 9 6 9 4 9 5 12 16 20
20 23 24 31 34 32 35 34 31 30 30 33 31 35 32 28 32 36 37 32 30 29 25 23 20 16 14 9 7 8 8 8 9 10 10 9 9 9 11 20 13 19 20
12 15 19 21 26 31 30 34 34 31 30 31 34 32 28 31 33 37 37 33 33 30 25 24 22 18 13 9 8 8 9 10 11 11 12 11 9 9 11 18 23 25 27
16 18 22 23 22 27 32 29 33 32 32 33 30 28 29 31 31 34 37 37 35 32 29 25 21 17 12 9 8 9 10 12 12 13 12 13 13 14 16 17 23 26 30
13 14 18 22 21 24 28 31 30 31 31 31 29 26 32 31 34 35 35 35 33 29 26 23 20 16 11 9 8 9 11 13 14 15 15 15 15 16 16 18 21 28 26
13 13 17 17 21 22 25 30 30 31 31 28 27 29 32 30 35 31 35 34 32 29 25 22 18 14 10 8 8 10 12 13 15 15 16 17 16 18 19 21 21 21 27
13 14 16 14 17 19 24 28 28 29 28 27 29 30 30 34 34 29 35 35 32 26 24 21 16 12 9 8 8 10 12 13 14 16 16 17 18 20 21 20 21 22 26
14 16 15 11 13 16 21 25 27 26 28 29 30 32 31 33 32 30 35 32 26 24 21 17 13 10 8 8 9 11 13 14 15 16 17 19 20 21 21 22 23 23 24
13 14 12 5 7 13 19 23 26 26 29 29 29 30 31 32 32 33 31 27 24 22 19 15 11 8 7 8 10 11 13 14 16 17 19 20 19 22 22 21 21 24 25
13 12 9 2 7 12 18 21 24 26 27 31 29 30 32 32 31 32 28 25 23 20 16 12 9 6 7 9 10 12 14 16 17 19 19 21 20 23 22 21 23 24 26
11 9 5 3 9 13 18 21 23 26 29 30 29 32 33 33 33 30 28 25 20 15 12 9 6 6 8 10 11 13 15 17 18 19 20 21 22 22 22 25 24 24 28
9 5 3 5 11 16 19 23 23 26 29 32 32 33 33 32 31 29 26 22 17 13 9 6 5 7 9 11 12 15 16 18 19 19 20 20 21 25 22 22 24 27 30
13 5 6 10 14 18 20 22 25 30 33 35 35 35 33 30 28 25 21 17 12 10 7 6 6 7 10 12 15 17 19 19 19 21 21 22 21 20 20 21 23 24 29
9 7 8 13 16 19 24 27 31 35 38 38 37 33 31 29 22 19 17 14 11 8 7 5 6 9 12 14 17 19 19 20 19 21 21 20 19 21 21 22 23 27 30
15 12 14 17 19 22 27 32 36 36 36 34 31 26 26 24 21 18 15 10 8 7 5 5 7 10 14 15 17 19 20 19 19 20 20 21 21 21 23 26 32 33 31
15 15 18 20 21 25 31 36 36 34 31 29 27 27 23 23 20 16 11 8 7 4 4 6 9 12 13 18 18 20 21 19 18 17 20 20 23 22 22 28 32 34 36
18 20 21 23 23 28 32 34 33 30 28 28 26 23 20 17 15 10 9 8 5 4 5 8 11 14 14 17 19 21 21 18 18 19 20 20 21 21 25 28 34 38 36
19 25 23 24 25 28 30 30 27 27 26 24 22 19 16 13 11 11 8 5 3 4 7 10 12 14 16 17 19 20 20 18 19 21 22 22 21 25 27 29 31 31 28
23 23 27 26 24 23 27 28 28 27 25 22 20 17 14 13 11 7 5 2 3 6 9 11 12 12 14 16 19 22 18 17 20 23 24 26 28 28 29 28 24 24 25
20 22 26 27 25 25 23 26 25 23 21 19 17 15 13 10 7 4 2 2 5 8 10 11 11 12 16 17 16 15 16 18 20 23 25 28 28 27 26 23 22 20 21
19 22 25 26 24 22 20 18 20 19 18 17 15 12 10 7 4 1 2 5 8 9 10 11 14 17 18 17 17 22 23 20 22 26 30 29 24 21 20 21 20 20 21
23 23 24 24 25 23 21 21 20 18 16 14 12 10 7 4 1 2 5 7 10 11 13 14 17 19 20 19 22 23 23 22 25 28 30 24 21 23 22 21 21 21 23
22 23 24 25 26 24 23 21 18 14 12 11 9 7 5 2 1 5 9 10 11 13 14 16 18 19 20 21 23 22 21 23 24 25 21 20 21 21 22 24 25 25 27

GFSMW_850_spd_036.txt.gz
Wind_Speed
29 28 28 30 32 36 36 36 36 36 36 34 35 34 33 31 29 26 27 33 32 27 27 25 21 18 15 13 10 7 5 4 8 9 10 7 9 10 10 7 9 10 18
31 35 33 31 35 35 36 36 34 34 35 38 36 36 35 34 31 30 33 35 34 32 28 26 22 20 16 14 11 7 6 5 7 8 8 4 7 9 10 15 14 16 15
35 36 36 35 34 38 39 35 35 34 33 34 35 35 34 36 36 35 39 42 39 33 30 28 24 21 17 15 11 7 6 6 6 8 5 3 3 12 10 8 14 14 18
34 36 37 35 33 37 37 41 35 38 37 36 37 41 42 43 42 42 44 43 36 35 32 30 26 21 18 15 11 8 6 7 8 8 7 7 8 6 9 7 12 18 17
20 23 25 28 35 30 30 38 40 35 38 39 40 43 44 44 41 43 43 39 34 33 33 29 26 23 20 16 12 10 6 7 9 9 10 10 10 9 10 22 20 22 23
1 7 11 14 18 22 34 25 36 41 36 38 42 45 45 43 40 40 41 39 37 35 32 30 26 24 20 17 13 10 7 7 8 10 11 11 10 9 13 20 28 29 31
5 11 13 16 20 25 28 30 30 38 41 35 42 42 43 41 36 36 37 38 39 36 34 31 28 24 21 16 13 9 8 8 10 10 11 12 12 14 16 19 25 30 34
5 7 13 18 24 23 26 29 32 31 38 37 39 40 39 34 33 29 31 38 37 37 34 30 26 23 19 17 12 9 9 9 11 12 12 13 13 15 17 20 22 30 32
3 6 14 20 22 23 24 28 30 32 34 37 38 37 33 33 30 28 31 36 37 36 32 28 25 22 19 15 11 9 9 10 12 13 14 15 16 17 19 20 21 22 25
1 6 14 23 20 20 22 25 29 34 34 37 36 35 34 34 27 27 34 37 36 34 31 27 24 21 17 12 9 8 9 10 12 14 15 17 18 19 20 21 22 22 26
6 9 14 22 17 16 17 22 28 30 32 32 36 36 37 32 28 30 33 35 36 34 30 26 22 18 14 10 8 8 10 11 13 15 17 18 20 21 22 23 24 25 24
13 11 11 19 16 15 15 23 26 28 34 37 38 38 34 29 31 32 33 36 34 30 27 24 20 15 10 8 8 9 11 12 14 16 18 19 21 22 23 25 25 24 26
15 8 8 14 12 11 12 19 24 32 35 37 38 33 30 32 31 31 34 33 31 27 24 21 16 12 10 8 8 10 11 13 15 17 19 21 22 24 25 25 25 27 29
17 7 5 9 5 10 11 19 27 31 32 35 32 30 33 34 33 32 32 30 26 26 21 18 12 9 7 7 9 10 12 14 16 18 20 22 23 24 25 27 27 26 29
7 6 3 4 8 9 16 23 28 30 31 28 27 31 33 32 34 33 31 27 24 21 17 11 10 6 7 8 9 11 14 16 17 18 20 21 22 23 21 21 23 25 28
10 7 4 7 9 12 22 27 28 27 25 25 30 35 35 35 34 32 30 24 22 19 14 10 7 5 7 7 11 13 15 17 18 19 20 22 22 23 20 20 20 22 25
11 5 7 11 15 18 22 23 23 23 26 33 36 37 36 33 32 27 24 22 17 12 9 6 4 5 5 9 13 15 16 17 18 19 20 22 23 25 24 24 22 24 27
18 11 13 19 19 17 18 21 27 31 35 38 39 36 33 30 25 25 21 16 12 10 7 4 3 7 10 11 14 16 17 18 18 18 19 21 24 22 22 23 25 30 34
10 17 21 21 20 21 23 28 34 36 35 34 31 29 27 25 20 16 18 15 11 7 3 3 6 8 11 14 15 16 18 19 19 18 20 21 21 20 20 23 31 35 37
21 21 19 18 20 24 26 30 31 30 28 27 28 25 21 17 22 19 13 11 7 1 1 4 7 10 11 14 17 18 21 22 21 20 21 19 18 18 21 26 31 36 39
16 16 21 24 24 25 27 32 33 32 28 27 22 19 18 19 15 14 11 5 3 2 2 5 9 11 13 14 18 21 22 21 21 25 25 23 21 22 25 27 30 33 28
17 17 20 23 23 26 28 30 29 27 25 21 22 23 19 14 13 9 7 5 2 2 5 7 9 10 13 15 18 16 15 16 21 23 24 24 24 27 26 25 24 23 24
23 27 28 29 26 26 27 26 25 26 26 25 22 20 18 15 10 7 5 3 1 4 7 8 10 12 14 16 16 18 21 24 22 22 22 24 26 27 22 23 21 21 23
23 26 28 29 27 22 24 26 27 25 22 22 20 17 13 10 7 5 2 3 5 7 8 10 13 15 18 19 20 22 23 24 24 23 27 31 27 19 21 22 21 22 22
21 20 24 26 26 24 26 26 24 22 20 17 15 13 9 7 5 3 3 5 7 8 10 13 15 19 20 20 20 21 23 23 22 24 28 25 22 24 23 22 22 22 24
19 20 23 26 27 26 26 23 19 15 14 14 12 9 7 5 3 3 4 7 9 11 13 16 17 17 18 19 20 22 21 21 21 22 22 22 22 23 23 24 25 25 26

GFSMW_850_spd_039.txt.gz
Wind_Speed
34 28 25 28 36 39 37 38 36 40 41 40 37 35 37 35 34 33 30 29 31 27 27 27 27 26 21 17 14 13 10 7 5 4 6 4 4 4 4 5 10 11 13
41 40 35 31 29 29 34 38 39 38 37 42 39 36 36 38 36 34 33 31 33 34 28 30 30 27 24 21 17 15 13 9 5 4 5 3 5 4 7 9 7 10 14
43 39 37 33 34 33 32 35 32 29 38 41 41 40 37 38 39 38 36 36 35 35 34 33 31 29 25 21 17 16 13 9 7 4 2 2 3 9 5 7 9 12 13
38 40 37 35 34 34 31 33 37 36 30 41 46 45 43 45 43 42 42 39 37 39 39 35 34 30 27 22 19 17 15 10 8 5 5 5 7 4 5 8 9 13 17
22 24 24 23 25 27 37 24 37 38 38 33 46 46 49 44 44 43 44 42 41 42 40 35 34 31 27 23 21 19 15 11 8 7 6 7 8 9 10 15 14 18 20
12 9 7 5 4 10 21 27 33 30 39 41 41 48 50 47 45 45 45 43 44 41 35 35 34 32 28 25 22 19 15 11 9 8 9 9 9 10 11 15 22 25 27
6 7 8 9 11 11 13 18 26 30 31 42 43 48 49 48 45 45 46 46 43 40 37 36 37 33 28 25 21 19 14 11 9 10 10 11 11 12 14 16 20 25 30
12 11 11 10 9 17 22 25 27 32 33 35 45 42 47 47 43 42 46 45 41 37 35 35 36 31 27 24 22 18 14 12 10 10 11 11 12 13 14 16 18 25 28
11 11 9 8 5 12 16 21 28 30 30 34 39 45 46 43 40 41 40 38 37 36 35 36 34 30 26 24 21 18 14 11 10 11 12 12 12 14 15 17 18 20 20
6 4 6 8 14 19 19 17 20 26 31 33 39 43 44 39 38 37 36 34 35 37 37 36 33 29 26 24 20 15 12 11 11 12 12 13 14 15 16 18 19 20 22
13 12 15 15 15 17 18 17 18 24 29 34 39 39 38 36 35 34 30 31 36 39 37 35 31 29 27 22 18 14 11 10 11 12 13 14 16 17 18 20 21 23 24
23 17 14 12 13 18 19 19 15 24 31 33 33 35 33 32 32 29 28 32 38 36 36 33 29 27 24 19 16 11 9 9 10 12 14 16 17 19 20 21 23 24 25
27 18 16 10 12 13 18 16 15 25 28 31 31 30 33 32 30 28 31 34 36 36 32 28 27 24 20 16 10 8 9 10 11 13 15 17 19 21 22 23 24 26 27
27 19 14 7 5 6 13 15 17 23 28 30 31 32 31 31 30 30 32 32 32 32 30 26 23 17 12 11 9 7 9 9 12 14 17 18 20 22 22 23 24 25 26
10 15 10 4 3 5 10 12 19 27 30 32 29 28 30 29 29 30 31 32 32 29 25 21 16 13 12 9 8 6 8 10 13 16 17 18 19 19 20 20 21 23 26
12 7 6 6 2 5 10 15 22 27 28 28 27 26 27 29 31 34 34 30 27 25 20 16 12 9 7 8 6 6 10 14 14 16 17 18 19 21 21 21 20 19 23
18 9 2 5 4 5 12 17 19 20 20 21 23 26 29 32 33 33 28 23 21 19 15 12 12 7 7 6 8 10 11 13 15 17 19 20 21 21 23 23 21 20 22
22 10 9 10 10 11 16 17 16 16 19 23 27 30 32 33 32 27 25 23 19 13 11 11 8 7 9 8 9 11 13 14 16 19 21 21 22 23 23 21 22 24 28
1 8 14 15 15 15 17 16 18 20 24 28 30 29 27 24 26 25 21 15 12 12 11 9 6 4 7 9 11 13 14 16 18 19 18 19 20 18 17 21 26 29 32
13 16 15 13 12 14 16 16 19 20 19 20 21 23 24 24 20 17 16 14 12 12 7 2 3 5 8 11 14 16 17 18 19 17 19 21 20 18 19 23 28 32 34
9 10 11 11 11 11 12 19 20 22 25 26 26 25 19 19 17 17 16 15 10 6 4 2 4 7 9 11 14 17 19 20 21 23 25 24 22 19 22 23 26 27 24
10 9 12 13 13 12 16 22 24 27 28 26 23 23 22 19 16 16 10 8 7 3 2 3 6 8 10 12 15 15 14 14 21 24 23 21 20 23 23 22 19 20 22
15 15 17 18 18 20 21 23 26 26 25 22 20 20 20 18 13 8 8 6 4 2 4 6 8 9 11 14 17 18 19 20 20 21 19 20 23 26 22 20 20 20 20
19 20 20 18 18 19 23 22 21 20 20 21 21 18 13 13 11 8 6 2 2 4 5 7 9 12 14 15 16 17 19 20 20 20 24 26 25 20 20 17 15 16 18
18 18 19 19 19 20 21 21 20 20 20 19 17 15 12 10 8 5 2 1 2 4 6 9 11 13 14 14 15 18 19 20 19 20 23 21 21 20 18 17 17 19 20
18 19 21 22 22 23 23 22 20 17 16 16 14 12 10 9 6 2 1 3 4 7 10 12 13 13 15 14 16 17 16 17 17 19 20 20 19 18 18 20 21 20 21

GFSMW_850_spd_042.txt.gz
Wind_Speed
37 30 25 25 28 36 41 39 37 34 40 44 40 37 37 33 33 30 28 30 30 28 26 27 26 28 28 25 20 17 17 15 12 9 8 8 7 6 5 5 6 8 8
42 39 35 32 30 24 30 38 39 34 37 44 44 44 40 38 37 35 33 34 34 33 28 28 31 31 29 27 24 20 19 18 14 10 8 6 8 8 8 9 9 9 10
42 42 42 39 38 37 32 26 29 34 39 40 45 47 43 40 38 38 38 39 38 36 32 30 31 33 32 30 25 22 21 19 16 12 9 5 5 7 9 10 11 12 12
27 28 30 31 35 34 32 30 30 28 30 25 44 46 47 44 43 42 42 42 42 40 34 32 34 35 33 31 27 24 22 21 18 14 11 10 9 5 5 9 11 13 14
24 25 22 23 21 27 31 32 33 33 31 31 33 39 47 49 46 46 44 43 43 41 37 33 36 38 36 33 29 27 25 22 19 16 13 11 11 11 11 10 11 14 17
15 18 18 11 10 16 19 24 28 34 32 30 36 38 40 50 49 48 47 44 43 42 40 39 38 39 35 34 31 27 25 23 20 17 14 12 11 11 12 13 17 20 22
4 7 10 11 11 11 12 16 18 24 29 30 32 35 42 40 48 49 46 44 44 44 43 42 43 40 35 34 33 29 26 22 19 17 14 13 12 13 13 15 17 22 26
12 11 13 15 14 14 16 20 22 26 29 30 31 35 38 41 44 47 45 43 42 42 42 44 41 36 34 34 32 26 25 24 21 16 14 13 13 13 14 15 16 21 24
10 11 10 11 11 9 8 11 15 17 25 33 37 32 38 40 39 43 46 41 39 39 41 41 36 34 34 34 31 27 23 22 19 16 14 13 13 14 15 16 17 19 18
18 18 18 19 13 14 16 19 20 22 23 26 33 32 33 36 37 44 44 41 38 38 39 35 33 35 33 33 29 26 24 21 18 14 12 13 13 14 15 16 18 20 21
30 31 29 28 20 14 12 16 21 23 24 24 28 30 29 35 43 41 38 38 35 35 34 34 34 34 33 30 26 22 20 18 15 13 13 13 14 15 16 18 19 21 23
36 39 41 29 23 17 16 19 22 25 26 26 28 29 26 31 38 35 35 32 31 31 32 33 34 33 30 27 22 21 15 13 11 12 13 13 16 17 18 19 21 22 23
34 38 25 22 21 15 16 22 25 24 23 25 28 27 25 29 30 30 28 27 27 29 32 35 34 30 25 21 18 13 12 8 10 12 15 16 18 18 19 21 22 23 24
23 22 17 15 16 11 12 17 20 19 18 22 24 24 25 26 24 23 23 23 26 30 31 30 29 26 24 21 14 12 9 12 13 14 16 19 20 20 20 21 22 22 24
20 19 7 11 11 8 11 16 17 15 19 22 26 25 26 25 26 26 24 26 28 28 28 28 23 21 19 16 13 10 12 8 13 15 19 19 19 20 19 19 20 21 24
16 14 4 5 6 7 10 11 11 13 18 21 22 23 24 24 25 24 25 26 25 27 26 22 20 18 13 10 7 4 8 12 17 17 16 18 19 20 21 19 19 18 20
19 20 11 6 8 8 7 4 5 10 15 20 21 22 23 22 22 22 21 22 25 25 25 21 18 13 9 8 5 7 12 14 14 16 17 19 20 21 22 23 23 19 20
9 8 10 9 7 5 5 6 9 11 12 15 17 19 20 20 22 24 22 21 21 20 18 16 12 8 5 5 8 9 11 12 14 16 18 20 20 21 21 20 19 21 24
6 7 10 10 10 8 8 7 9 9 10 14 14 14 16 21 20 21 22 22 20 15 11 9 6 3 6 6 8 10 10 12 14 17 17 18 21 21 17 19 22 26 29
5 6 8 9 8 7 6 4 7 9 11 14 15 14 18 21 23 23 24 18 16 13 10 8 6 5 5 7 9 10 13 16 18 18 19 22 22 20 17 20 25 30 32
6 5 5 5 6 7 8 11 14 14 15 16 18 21 21 23 20 18 15 14 14 12 10 8 4 3 5 5 8 12 14 18 21 24 24 23 20 17 18 20 24 25 21
6 5 8 10 9 8 12 13 14 19 20 22 24 22 18 19 19 17 16 12 10 9 6 2 3 5 7 10 11 14 16 19 23 23 22 20 18 20 21 22 20 19 21
12 11 14 15 14 15 13 18 21 19 20 20 20 20 20 18 16 9 11 10 7 4 2 3 5 7 9 12 15 17 18 19 19 18 17 19 23 24 22 19 18 17 18
15 16 17 19 19 19 18 17 18 17 18 18 19 18 16 15 12 10 8 5 3 2 4 5 7 10 12 14 16 16 17 17 17 18 21 23 22 20 18 14 13 14 17
12 14 15 16 17 17 17 16 17 17 17 16 16 15 14 12 10 8 5 3 2 3 5 7 10 11 12 13 13 15 16 15 16 18 20 19 17 15 13 12 14 16 18
12 13 15 16 17 16 16 17 15 14 14 15 15 13 11 9 5 2 2 3 5 6 9 11 11 12 13 12 15 16 13 16 15 17 18 16 15 14 14 16 18 18 18

GFSMW_850_spd_045.txt.gz
Wind_Speed
38 35 33 29 26 25 36 44 40 33 29 32 40 42 41 37 38 35 31 30 33 29 27 25 25 28 28 25 23 21 21 18 17 15 13 12 11 11 10 8 8 9 9
43 40 37 34 32 28 25 25 38 39 33 34 34 44 46 43 38 37 36 34 33 32 30 29 28 30 30 29 27 26 24 21 19 17 15 9 12 15 13 11 11 12 12
40 42 42 41 39 38 34 31 25 25 33 35 33 41 46 48 44 42 40 39 38 33 33 31 30 32 32 32 30 29 27 24 22 21 16 7 8 9 13 15 15 14 14
21 23 23 21 21 24 32 34 28 27 27 25 32 40 43 47 50 46 41 41 41 37 35 36 30 34 33 34 35 32 29 26 25 23 22 20 14 9 7 12 14 15 16
15 17 16 17 15 13 16 24 27 28 27 26 26 29 37 43 46 48 46 44 43 41 39 39 35 35 36 35 37 33 31 28 27 25 23 20 18 16 15 10 12 14 16
14 13 13 12 13 14 13 14 22 28 28 29 29 28 32 37 41 43 45 44 44 42 41 42 40 36 37 38 38 34 32 31 28 26 24 20 16 16 16 15 15 16 18
14 11 7 6 7 9 11 14 17 20 23 27 32 33 30 33 38 37 40 46 47 46 42 44 43 40 38 38 38 35 34 32 29 26 24 21 20 20 18 17 16 17 20
26 20 13 12 12 13 15 17 19 21 22 23 26 27 28 31 30 35 39 39 45 48 45 45 44 41 38 38 36 35 34 32 29 26 24 21 20 19 18 17 16 18 20
26 26 26 23 24 20 16 18 20 19 19 20 25 32 36 34 32 31 34 38 41 44 44 44 41 39 38 35 34 34 33 30 27 24 22 18 16 16 16 16 16 18 18
31 32 30 27 25 24 24 21 19 19 21 24 27 29 32 34 33 30 31 38 39 43 43 42 38 38 34 32 33 32 30 26 23 21 17 13 15 13 15 17 18 20 21
30 32 33 37 31 30 26 23 18 20 21 24 26 29 31 28 28 28 32 35 42 42 38 38 35 33 31 32 33 31 28 26 20 16 12 12 13 12 15 18 19 21 24
27 35 29 34 31 21 19 19 19 21 23 26 26 26 25 24 25 27 32 36 38 34 32 30 29 30 33 32 30 27 23 19 16 16 13 11 12 13 16 20 23 24 24
29 29 33 33 17 13 9 14 18 21 25 25 23 19 19 20 23 25 26 29 29 29 26 27 30 32 31 29 26 22 20 17 13 11 10 12 18 20 20 21 23 23 24
22 25 26 16 7 11 8 17 20 23 24 22 18 14 16 18 19 20 23 25 25 25 26 27 28 29 29 26 22 20 17 13 11 13 15 17 18 18 21 22 22 23 25
22 21 21 14 8 7 11 15 19 20 18 16 13 11 14 15 17 19 21 22 23 21 23 24 27 28 24 21 18 16 13 11 14 16 16 16 17 19 21 22 21 22 24
23 20 13 16 8 9 12 15 16 16 12 9 7 10 14 17 18 20 21 21 20 19 20 23 23 21 18 16 14 11 11 12 12 11 14 16 17 19 20 21 20 21 22
23 19 10 12 11 13 13 13 13 9 6 4 8 10 13 18 21 20 21 19 19 21 20 19 17 16 13 10 10 8 8 8 8 10 14 17 18 19 21 21 20 19 19
18 12 5 7 10 11 9 9 7 4 3 3 1 5 10 11 15 17 17 19 19 18 21 19 18 14 9 8 2 2 4 7 10 13 15 16 18 19 21 20 20 20 23
11 7 3 5 5 5 5 4 3 4 5 8 8 8 11 15 16 19 22 22 21 21 18 14 10 8 5 2 3 6 7 8 11 13 15 18 20 21 19 20 20 25 28
6 3 2 2 2 2 1 1 5 8 10 12 13 18 22 22 22 23 23 23 20 17 13 11 8 6 3 3 5 6 9 12 14 16 18 21 21 19 15 17 23 28 28
3 2 1 1 1 1 1 4 7 9 13 15 18 18 18 19 20 20 18 17 15 12 11 9 7 5 4 4 6 10 12 16 19 21 21 21 20 17 15 17 22 22 20
3 2 2 4 3 4 3 5 8 11 13 16 20 21 18 17 17 17 17 14 11 10 8 5 2 3 4 6 9 12 15 17 19 20 21 20 18 18 22 21 20 20 19
7 6 9 10 12 10 12 19 20 19 20 18 18 18 18 18 15 12 12 10 7 4 2 1 3 5 7 10 12 14 16 17 17 19 19 19 21 22 21 19 17 17 18
10 12 14 16 17 16 16 16 17 15 16 18 19 17 15 14 12 9 8 5 3 1 1 2 4 7 10 12 14 14 15 16 18 19 20 21 22 21 19 16 13 14 16
11 12 14 15 17 16 16 15 15 14 15 16 15 13 11 9 8 6 5 2 1 2 4 6 8 10 11 12 12 15 16 16 17 19 20 19 18 16 13 12 14 16 16
12 11 13 13 15 14 13 13 12 11 10 12 11 9 7 7 5 3 2 3 4 7 9 10 10 12 13 14 16 16 16 18 18 20 19 18 15 13 13 15 17 17 16

GFSMW_850_spd_048.txt.gz
Wind_Speed
35 33 30 29 29 26 26 31 35 37 33 33 32 31 39 39 37 36 34 32 30 28 30 29 30 30 31 29 26 25 23 21 19 17 17 15 15 15 14 13 12 11 12
37 39 38 35 31 30 27 25 28 29 33 37 36 36 34 36 38 40 35 34 35 32 31 33 31 33 32 31 31 29 27 25 23 21 18 12 17 19 18 17 15 14 15
24 24 21 21 22 27 33 31 28 28 23 27 35 39 38 40 40 40 41 39 36 36 33 33 35 33 33 34 33 32 31 29 26 24 19 8 10 12 17 20 18 17 17
16 16 15 13 10 10 14 25 33 34 30 27 27 36 39 40 38 39 39 41 40 37 36 35 34 34 35 36 36 34 32 32 29 25 27 26 17 9 8 17 20 18 18
19 21 18 10 7 6 8 12 17 27 32 26 26 26 30 35 37 39 40 44 46 42 38 36 37 37 39 37 37 37 31 35 33 31 32 29 27 23 20 12 15 17 18
28 22 18 15 11 8 7 8 10 14 20 24 25 26 28 29 31 32 35 37 43 46 44 41 38 38 40 38 37 38 37 36 35 33 33 30 27 26 21 22 18 17 16
24 25 24 21 18 16 15 12 11 10 12 17 22 25 27 30 33 34 35 35 37 43 44 44 43 42 40 39 38 38 40 38 35 34 32 30 25 24 23 21 18 17 17
24 26 25 25 23 21 20 18 16 15 14 17 18 19 20 22 28 33 35 38 37 36 40 44 45 44 42 41 40 38 41 37 36 34 31 28 27 22 20 17 17 15 15
29 31 28 26 26 26 26 22 22 20 17 17 19 21 22 23 25 27 31 35 36 38 38 38 45 48 45 44 40 37 37 36 35 34 29 27 23 20 18 15 16 17 14
31 31 27 30 29 26 29 26 24 24 21 18 18 22 25 29 30 28 28 33 34 36 38 39 41 44 42 41 36 32 33 34 33 30 28 24 21 18 14 14 14 16 16
27 26 28 28 30 26 20 20 22 23 21 18 19 22 23 27 28 26 26 29 32 34 35 36 36 36 37 35 31 30 33 34 31 28 25 22 20 17 15 13 12 15 21
23 23 24 25 24 17 15 11 8 10 13 18 20 22 23 24 22 20 21 25 27 28 30 30 29 30 31 29 29 32 33 31 28 26 23 21 20 17 14 13 18 20 19
23 21 23 22 18 14 11 8 8 12 18 24 24 23 22 19 17 16 17 19 21 21 22 24 25 27 26 27 29 28 28 26 24 23 20 17 14 13 16 17 18 17 20
21 23 21 16 18 15 13 14 12 13 17 20 19 19 15 12 11 11 11 12 16 20 22 23 24 24 27 27 28 27 25 22 18 16 13 11 12 14 16 15 15 17 21
24 22 19 12 15 12 14 16 19 21 21 16 16 12 9 8 8 9 10 12 16 19 21 22 23 24 26 26 24 20 17 15 13 10 11 13 13 11 13 15 16 19 22
21 20 14 8 10 12 16 19 20 21 18 14 10 7 4 4 6 8 10 14 17 18 18 20 24 24 21 18 15 13 12 11 10 10 10 9 10 12 13 16 18 20 22
17 17 11 7 8 12 16 15 16 15 12 10 8 4 2 5 8 8 9 11 13 17 18 20 19 18 15 14 14 12 9 7 6 5 6 9 12 15 16 18 20 20 19
14 13 10 8 9 11 11 11 10 9 7 6 5 3 4 7 8 11 13 14 18 21 21 22 19 20 18 12 9 7 2 1 3 7 10 12 14 15 18 19 18 18 19
10 8 8 8 7 7 8 8 6 6 5 6 7 7 8 10 13 14 17 19 19 19 19 19 17 13 11 8 5 4 3 3 5 8 11 13 16 17 16 15 17 21 22
7 7 7 6 7 8 8 8 5 5 5 6 6 9 14 15 16 18 18 18 17 18 16 15 12 9 7 5 3 1 4 6 9 12 14 16 16 15 12 14 20 23 22
6 5 5 6 6 6 7 6 6 8 10 11 12 11 11 15 16 19 18 17 15 15 13 12 11 8 6 3 4 7 9 11 12 15 16 15 15 12 10 13 19 19 17
9 6 4 4 4 6 5 5 8 9 9 11 13 16 16 17 16 15 16 15 13 12 11 8 6 3 1 2 5 8 11 13 14 15 17 17 13 14 18 17 17 14 15
11 9 8 9 9 10 12 14 16 15 17 18 17 16 16 16 16 14 13 11 9 7 6 4 3 2 4 6 8 9 10 12 14 16 16 15 17 18 17 15 13 14 14
8 10 12 13 14 13 14 15 15 14 15 16 17 15 13 13 12 9 8 6 5 4 3 3 4 5 7 9 11 12 13 14 15 16 16 17 18 17 15 13 11 13 15
8 9 10 11 12 12 12 13 13 12 13 13 13 11 10 9 8 6 5 4 4 4 5 5 7 8 9 9 12 14 14 15 15 17 17 16 15 12 10 9 12 14 15
10 9 10 11 12 13 12 12 11 10 8 9 9 7 6 5 4 3 3 3 5 8 10 11 12 11 12 14 15 15 16 17 17 17 17 16 13 12 11 13 15 15 14

GFSMW_850_spd_051.txt.gz
Wind_Speed
25 24 24 25 25 24 25 26 27 31 33 34 35 34 34 33 38 35 33 31 29 30 30 29 30 32 34 32 29 28 28 25 22 20 19 19 18 18 17 16 16 16 15
18 15 17 19 24 27 26 25 28 27 30 37 38 38 37 37 34 36 39 35 32 33 31 32 31 33 36 35 34 32 33 30 27 24 20 15 20 22 21 20 19 19 18
11 12 9 8 8 13 19 25 28 28 29 29 31 38 39 39 38 37 38 36 37 38 34 34 33 33 37 38 37 36 35 34 31 30 21 9 13 12 21 24 23 22 21
17 19 17 13 7 4 8 12 19 28 32 29 30 31 36 41 43 42 39 38 38 38 39 35 35 34 35 37 39 38 37 37 36 33 31 26 23 14 10 18 23 24 23
20 21 20 17 14 11 9 7 9 13 20 31 33 33 34 32 31 36 39 38 37 38 40 39 36 36 35 36 37 40 41 41 40 40 36 29 32 33 29 23 22 22 24
20 18 17 14 10 9 9 8 8 8 10 15 24 27 30 31 32 30 30 32 35 38 39 41 40 39 37 38 40 40 42 42 43 42 41 35 33 33 32 27 21 19 20
22 23 21 18 16 15 14 12 11 8 7 8 13 20 24 27 30 30 31 33 34 34 34 35 40 44 41 41 41 41 43 43 44 45 40 35 36 33 29 29 28 23 22
22 23 23 21 21 19 18 18 18 16 13 12 12 14 16 19 23 24 26 29 34 34 34 34 35 38 40 43 44 43 42 44 44 44 39 36 35 33 33 28 27 24 21
24 24 24 23 24 25 22 20 22 21 20 18 16 16 16 17 18 20 22 26 28 30 33 34 36 36 38 42 42 44 44 42 40 41 38 36 34 33 32 31 25 23 20
23 23 24 23 24 24 19 16 18 20 21 21 19 19 18 17 19 21 23 25 26 28 32 34 34 36 37 40 42 41 37 31 36 38 36 36 34 32 30 28 26 26 22
21 22 19 20 21 18 17 13 12 10 8 12 14 15 15 17 21 24 26 27 27 28 31 33 31 31 32 32 34 35 36 34 32 34 33 31 29 29 27 22 22 21 18
22 21 18 18 16 13 13 12 8 9 11 12 13 16 17 19 21 24 26 27 27 26 25 27 25 24 25 26 28 32 31 31 31 33 31 29 28 23 20 19 16 16 18
21 18 17 13 13 12 12 10 12 14 15 16 18 23 27 28 23 21 20 20 17 17 16 17 17 19 21 23 26 28 30 31 31 29 28 25 19 16 15 16 15 15 17
17 16 15 7 9 10 10 14 15 17 18 20 17 18 20 23 19 15 10 8 10 10 12 12 15 19 20 22 25 27 26 28 26 22 19 17 16 15 16 17 17 14 12
14 15 13 6 7 9 14 17 18 18 17 15 14 14 12 12 9 10 8 6 8 11 12 15 17 20 21 23 23 24 23 20 17 13 13 13 13 13 14 13 13 12 14
13 13 10 6 7 9 13 16 15 14 15 12 9 9 10 8 5 4 5 6 7 9 10 13 16 18 20 20 18 16 16 15 12 11 10 10 10 9 8 9 12 13 16
10 11 9 7 7 10 12 12 12 12 11 13 12 10 8 5 3 1 3 5 7 9 12 15 17 19 17 14 14 13 11 10 8 6 4 4 5 6 9 11 13 15 16
8 7 7 7 8 9 10 11 10 9 9 10 9 8 7 4 5 7 10 15 15 18 19 20 18 18 16 15 13 10 8 5 3 2 2 4 7 9 12 14 15 15 16
6 5 5 6 6 8 9 9 8 8 9 9 9 7 6 6 8 12 15 17 17 17 17 16 16 15 13 10 8 6 5 3 1 3 5 8 11 12 12 12 15 16 18
5 4 4 4 6 6 7 7 6 7 10 12 13 13 11 12 14 15 16 19 19 21 19 17 13 11 9 10 7 5 3 2 3 6 8 10 11 10 8 11 16 18 18
7 4 2 3 5 6 7 7 9 12 13 13 14 14 14 16 16 18 16 15 15 14 13 11 11 10 8 8 7 5 4 6 8 10 10 11 12 9 9 10 16 16 14
9 6 4 6 7 7 8 12 13 13 14 15 16 17 16 15 14 14 15 14 13 12 12 10 9 8 5 3 5 7 9 10 10 10 11 12 12 12 14 13 12 11 10
10 10 11 13 13 13 13 15 16 15 15 15 16 16 16 16 16 14 14 12 10 9 8 7 5 3 2 4 5 6 7 9 11 12 11 11 12 12 12 10 8 8 9
10 8 11 13 14 14 14 13 13 14 13 15 16 15 13 13 12 10 10 8 7 6 4 3 3 3 4 5 7 9 11 11 11 11 11 12 12 11 9 6 6 9 10
12 11 9 12 13 13 12 13 13 13 13 12 12 11 10 9 8 7 6 5 4 4 4 4 5 6 7 7 10 11 11 11 11 12 12 11 8 6 4 4 7 9 10
13 14 14 11 13 13 12 12 12 11 8 8 9 8 7 6 5 5 5 4 5 6 7 8 8 8 9 10 11 11 11 11 12 12 11 9 7 6 6 7 8 10 11

GFSMW_850_spd_054.txt.gz
Wind_Speed
14 15 18 20 22 23 24 25 25 28 27 27 33 34 37 37 37 37 36 34 33 30 31 31 31 29 30 29 29 29 29 29 27 23 23 21 21 21 21 20 19 19 19
7 7 13 17 19 22 25 27 27 27 28 27 30 37 36 41 40 39 38 38 37 36 36 35 34 33 32 32 33 34 35 32 33 28 15 11 19 25 24 23 22 22 22
5 7 7 1 4 10 16 24 28 30 30 32 27 27 29 33 38 41 40 38 37 40 43 41 37 37 35 35 37 38 39 38 36 35 19 10 12 14 21 26 25 25 25
9 10 10 10 8 5 3 5 14 22 30 32 33 29 29 32 38 43 43 42 43 44 42 43 42 41 40 37 39 40 41 41 42 38 38 32 13 13 11 18 20 26 27
8 9 9 9 8 6 5 4 3 6 13 22 31 30 26 27 27 27 31 33 39 43 42 42 40 43 43 41 40 41 43 45 45 43 42 41 40 34 26 19 22 26 28
9 9 9 8 7 7 7 7 6 6 7 9 15 22 30 26 26 26 27 30 32 36 37 37 37 38 43 43 42 42 44 45 46 48 46 45 44 43 37 25 24 24 26
10 12 13 14 13 13 12 12 13 12 12 11 11 12 18 24 23 24 24 24 27 33 31 31 32 34 36 42 45 45 43 44 45 48 48 47 47 44 39 32 31 27 28
9 10 13 16 17 17 16 16 17 17 17 17 15 14 14 16 20 22 23 22 23 26 31 35 36 34 35 37 42 45 46 45 45 47 46 48 47 45 42 38 36 30 29
7 9 10 13 15 16 15 14 14 16 17 19 19 18 16 16 18 19 21 22 23 25 26 28 30 33 34 35 37 42 44 47 45 46 47 50 44 43 42 36 29 31 27
9 9 9 10 11 12 12 11 10 10 11 12 13 15 16 16 17 18 19 21 23 25 27 29 29 30 31 32 34 36 39 42 42 42 43 42 40 39 34 34 33 30 29
9 10 9 9 9 8 10 10 7 7 6 6 6 7 8 11 14 17 19 21 24 26 28 29 31 31 29 29 29 31 32 35 35 36 37 34 39 38 34 33 31 27 26
8 8 8 9 7 7 7 7 8 9 10 11 12 14 16 18 20 21 23 23 25 27 28 28 29 29 24 23 25 25 27 29 31 35 34 32 32 31 29 23 21 19 19
8 8 7 6 5 6 6 7 9 11 13 15 15 16 17 19 22 24 26 23 23 24 21 21 21 21 20 19 21 23 25 27 29 30 29 29 24 21 18 17 18 17 17
8 9 7 4 3 4 7 9 13 14 14 15 15 14 14 16 20 19 18 18 18 16 15 15 14 16 17 18 19 21 23 25 24 22 20 19 15 14 14 17 16 15 15
7 7 7 4 3 4 6 11 12 12 12 14 12 11 10 11 11 10 10 9 9 10 12 13 13 14 14 14 15 15 15 16 17 15 13 12 12 11 12 14 13 13 11
7 5 4 2 2 4 8 9 10 10 10 12 14 11 11 10 8 7 6 6 5 5 5 4 4 5 7 8 10 11 12 11 10 11 11 10 10 12 14 11 8 11 12
5 4 4 3 3 5 7 8 8 9 9 10 11 11 11 10 8 7 5 4 5 6 8 11 13 15 16 15 14 12 11 9 9 7 7 8 5 3 6 8 8 11 13
3 4 4 3 4 5 5 6 6 7 7 7 8 8 10 11 10 9 7 7 8 11 14 15 14 14 15 11 11 9 9 8 6 5 2 3 6 7 9 11 13 13 14
4 3 3 2 2 4 4 4 5 5 5 6 7 10 11 11 12 12 13 15 15 15 14 13 12 13 15 11 10 8 6 5 3 3 3 5 6 8 9 9 13 13 12
5 2 3 2 2 2 2 3 4 6 9 10 11 12 13 13 15 15 14 14 14 14 13 13 12 11 11 11 9 7 5 2 1 3 6 7 8 9 9 8 10 12 12
3 1 1 1 1 2 4 6 8 11 12 12 14 15 15 16 16 16 15 13 12 11 10 10 11 11 9 8 7 6 4 4 5 6 7 8 9 10 10 11 12 13 13
4 3 3 4 6 7 9 12 14 14 15 15 16 16 15 14 14 13 13 12 11 10 10 9 9 8 6 5 7 8 8 8 8 8 9 9 9 10 11 12 12 12 11
7 7 7 9 11 11 12 14 17 15 14 14 14 14 13 13 13 11 10 9 8 7 7 6 5 5 5 7 8 8 8 9 8 9 10 10 11 11 11 9 8 6 6
9 10 10 12 12 12 13 14 14 14 13 13 14 13 12 11 10 8 7 6 6 5 5 4 4 5 6 6 6 8 9 9 10 8 9 10 10 9 7 5 5 6 8
12 12 11 11 11 12 12 12 13 14 13 12 12 11 9 8 6 5 4 4 3 2 3 3 4 5 6 7 10 9 9 9 10 11 11 10 8 7 5 5 6 8 10
16 16 15 14 13 13 13 13 13 13 10 10 10 8 7 5 4 3 2 1 2 3 4 5 6 7 8 10 11 11 11 11 11 11 10 8 6 5 5 6 8 10 11

GFSMW_850_spd_057.txt.gz
Wind_Speed
15 12 12 13 15 16 17 18 19 21 21 23 24 30 34 29 30 32 27 24 25 25 28 31 28 27 28 29 30 26 26 26 23 21 22 20 22 22 22 20 21 21 19
12 11 11 11 13 13 15 16 18 20 23 26 25 28 34 35 36 36 37 36 32 33 34 33 32 31 32 30 32 29 30 29 29 30 20 12 20 26 27 26 25 24 23
5 2 0 1 0 5 14 19 23 25 24 25 24 26 25 26 26 30 35 38 40 39 34 36 35 35 35 35 35 35 35 35 35 36 23 10 13 16 23 30 29 27 28
6 4 4 4 3 1 3 5 10 17 24 27 27 26 25 27 28 28 28 28 35 37 37 38 37 39 36 37 39 39 40 39 39 38 39 29 16 14 12 23 30 30 30
4 3 3 3 4 3 3 3 4 6 9 15 22 27 29 29 26 26 27 27 28 32 35 36 39 41 39 41 40 39 41 45 40 44 41 42 38 28 20 17 23 27 31
3 3 3 4 5 7 7 7 7 6 9 10 11 15 22 25 23 23 24 24 24 26 30 32 31 33 39 40 41 43 44 47 45 44 44 45 46 48 41 33 22 23 27
2 3 5 7 7 9 10 10 10 10 10 11 12 12 13 15 21 24 24 24 25 28 31 32 33 33 32 36 36 39 44 47 47 45 46 46 48 46 39 39 33 30 31
2 4 6 7 9 10 10 11 11 12 12 11 12 11 10 12 13 15 18 22 23 24 24 28 32 32 32 32 33 36 39 44 46 45 44 48 49 49 49 46 42 37 33
3 4 6 7 8 8 9 9 8 8 8 9 9 8 9 11 13 13 14 15 16 19 21 22 24 29 27 28 31 34 38 40 41 40 40 43 48 48 46 46 45 35 19
3 5 6 7 7 7 7 8 7 7 7 6 6 6 8 10 12 14 16 17 18 19 19 19 20 25 28 26 26 30 34 37 38 37 36 40 44 44 45 43 43 36 33
3 5 5 6 5 5 5 6 6 6 7 7 8 8 9 10 11 12 14 16 18 21 23 23 23 27 27 25 25 25 28 30 34 33 32 35 36 37 38 37 32 26 22
3 4 4 4 3 3 4 5 6 7 9 10 10 11 12 13 15 16 18 19 21 22 22 23 23 23 23 22 20 21 22 26 29 29 30 31 32 31 29 28 24 18 14
3 4 4 3 2 3 3 4 6 8 10 11 11 12 12 13 16 18 19 19 19 19 20 20 20 22 19 17 18 18 20 22 27 27 26 26 23 20 17 14 12 12 13
3 4 4 2 2 2 2 5 7 9 9 10 12 12 13 12 13 16 16 13 11 12 11 13 15 15 15 16 17 17 19 22 22 19 15 12 10 9 9 9 10 12 12
5 5 3 2 2 2 3 5 7 7 7 8 11 13 13 12 12 12 12 10 8 8 8 10 10 10 11 11 12 13 12 12 10 7 8 7 6 7 9 9 11 11 12
5 3 2 1 1 1 3 5 7 7 6 7 10 12 13 11 10 8 8 8 7 6 5 5 5 5 4 4 3 3 6 8 7 8 8 7 7 8 7 7 9 10 11
3 3 1 1 1 2 4 4 6 6 6 6 8 8 9 9 9 10 10 9 10 9 10 10 9 11 12 9 8 7 9 9 9 9 8 8 8 7 4 4 7 7 9
2 2 1 1 2 2 3 5 6 5 5 5 5 6 7 9 9 10 12 13 13 14 14 13 11 11 11 7 6 5 6 6 5 4 2 1 3 3 4 6 9 10 11
2 2 4 5 4 3 4 4 4 2 1 4 6 9 11 10 12 14 15 15 14 13 13 12 10 9 10 7 6 4 5 5 5 5 4 4 4 6 8 8 10 9 8
2 3 5 3 2 3 2 1 1 3 5 7 9 12 12 12 13 15 15 15 13 13 12 11 10 8 8 10 8 7 6 5 5 4 5 6 7 7 9 8 9 10 9
2 3 3 2 2 2 2 4 6 7 9 11 13 14 15 15 15 15 14 12 10 10 9 9 10 8 7 6 6 6 6 6 7 7 8 10 10 11 11 11 10 12 13
3 4 3 3 4 5 6 8 9 11 11 13 14 14 14 13 12 11 11 10 9 8 7 7 5 5 6 8 10 10 9 9 9 9 9 10 10 11 11 11 11 10 9
5 5 6 6 7 8 9 11 13 13 12 12 13 12 12 11 10 9 8 7 6 5 4 4 5 6 7 9 10 11 12 12 10 10 10 11 12 11 11 10 8 6 5
7 7 9 8 9 10 11 11 12 12 10 9 9 10 9 8 6 5 4 4 3 2 3 4 6 8 9 10 10 11 12 12 11 12 11 11 11 10 7 5 4 4 6
12 11 10 10 10 11 12 12 12 12 11 10 9 8 7 6 4 3 2 1 1 2 4 6 7 8 9 12 12 12 12 12 13 12 12 11 9 7 5 5 5 7 9
16 15 14 13 13 12 12 12 13 12 10 10 9 8 6 5 3 1 1 2 3 4 5 7 8 10 11 13 14 14 14 14 13 12 12 10 8 7 6 6 7 9 11

GFSMW_850_spd_063.txt.gz
Wind_Speed
6 12 16 17 20 21 20 23 25 18 10 14 18 22 23 24 24 23 24 26 27 26 27 29 29 28 29 30 31 31 33 34 32 31 31 32 30 31 32 31 32 32 30
9 10 14 16 20 20 19 20 23 24 24 22 18 18 21 23 25 27 28 27 26 29 31 30 30 31 33 32 32 35 38 38 38 34 33 27 33 36 38 36 35 35 34
7 7 8 10 12 16 21 23 25 27 29 30 29 29 30 30 27 25 26 28 28 28 26 34 31 32 32 34 35 36 39 41 40 40 32 15 23 26 34 39 40 39 38
11 9 6 5 7 9 10 12 15 20 23 27 28 29 32 31 28 22 20 20 20 23 22 19 25 31 34 36 36 36 40 39 43 40 43 42 28 18 14 25 31 37 40
9 6 4 4 3 3 4 5 6 7 8 9 11 18 24 28 30 30 25 18 16 20 22 24 26 25 25 30 36 36 38 40 40 45 44 47 49 40 30 29 29 28 34
11 6 5 5 5 6 7 7 8 9 10 11 10 10 11 11 13 17 24 28 27 20 19 22 23 24 24 25 25 30 37 37 39 42 46 46 45 47 48 40 36 33 31
11 8 6 6 6 7 8 8 9 10 12 14 14 13 13 13 13 13 14 16 22 21 19 20 21 24 24 23 24 25 28 32 37 39 43 42 54 46 44 42 40 34 33
11 8 5 4 5 8 9 9 8 9 10 11 12 14 15 14 14 15 14 14 16 20 25 26 25 24 22 20 22 22 24 26 30 33 36 39 40 38 44 47 44 36 35
11 8 5 5 6 8 8 7 6 7 7 7 8 11 13 15 17 18 19 19 19 18 20 22 25 27 26 26 21 22 22 21 22 26 30 32 34 34 36 45 48 39 28
11 9 7 7 7 7 7 6 6 6 4 4 5 7 8 9 11 13 14 14 16 17 19 21 22 23 22 22 25 24 25 26 22 25 24 28 27 30 34 34 33 30 35
14 11 8 7 8 7 7 7 7 6 5 6 6 8 9 10 11 11 13 14 16 17 18 18 19 19 19 20 22 25 26 23 22 23 24 25 26 26 27 27 28 29 24
12 10 8 6 7 9 9 8 8 7 7 7 8 9 10 11 11 10 10 12 16 17 18 18 19 19 19 19 20 20 17 17 16 16 18 19 21 22 24 25 24 24 22
11 8 7 6 9 11 10 8 6 6 6 6 7 8 8 8 8 8 8 9 10 10 9 11 11 11 11 11 12 14 13 13 15 17 17 16 19 21 19 20 19 16 13
10 8 7 8 10 11 10 9 8 6 7 6 6 7 7 7 7 7 6 4 4 7 7 7 7 7 8 8 9 11 11 11 13 14 14 11 13 15 12 9 7 6 6
8 8 8 10 10 11 10 9 8 6 8 7 7 7 8 7 6 5 3 3 1 2 3 4 5 5 6 6 6 6 6 6 6 6 6 5 3 1 1 0 1 2 3
9 10 9 10 13 12 11 11 9 7 8 8 7 7 7 5 3 2 2 3 5 6 7 7 7 9 12 15 13 12 10 9 8 6 7 5 3 2 2 2 2 3 2
11 10 9 10 12 12 12 11 10 8 8 8 7 5 3 2 2 5 6 9 10 11 11 11 10 13 15 13 13 13 11 9 7 6 5 3 3 3 4 5 5 3 5
8 7 8 10 11 11 10 9 9 8 7 6 4 1 1 2 6 9 11 11 11 11 11 12 13 12 13 11 12 10 9 7 6 5 4 3 3 4 4 4 4 5 6
6 6 7 8 9 9 10 9 9 8 5 4 3 4 5 7 10 12 13 13 13 13 12 12 11 10 11 11 10 8 7 6 5 6 6 6 6 6 7 7 7 7 8
5 4 5 7 9 8 8 9 9 7 6 6 7 8 9 11 12 13 12 11 11 9 9 10 9 9 8 7 7 7 7 8 8 8 8 8 8 9 9 9 8 9 10
5 5 4 4 5 6 7 8 6 7 8 9 10 11 12 12 12 11 10 9 9 8 6 6 7 8 8 8 9 9 10 11 11 11 11 11 10 10 10 10 9 9 10
7 6 5 5 5 5 6 8 8 8 10 11 13 13 12 11 10 9 8 7 5 4 4 5 6 7 8 9 11 12 12 13 12 12 12 12 12 11 11 10 8 8 8
9 8 7 6 6 6 6 7 9 11 13 14 13 12 11 10 9 6 4 3 2 2 3 5 6 8 9 11 14 15 17 16 14 14 13 12 11 10 9 8 6 5 3
11 11 10 9 9 7 7 8 12 14 14 14 13 11 10 9 7 4 3 2 2 3 4 6 7 9 11 13 15 15 15 14 14 14 13 12 12 11 9 5 4 4 5
11 14 13 12 10 10 11 11 13 14 15 14 12 11 10 8 6 5 5 4 4 4 5 6 8 11 12 14 14 14 14 14 13 13 12 12 11 9 7 6 6 7 7
12 15 17 15 14 13 13 15 15 15 15 14 13 11 11 9 8 7 6 6 6 6 6 8 9 11 13 13 14 14 13 14 15 14 13 12 11 9 8 8 9 9 11

GFSMW_850_spd_066.txt.gz
Wind_Speed
10 14 15 17 19 21 22 18 18 19 19 19 20 21 21 21 22 26 28 29 28 29 28 27 26 27 28 28 28 29 31 32 32 34 35 35 35 35 36 35 34 35 35
10 12 15 17 18 20 22 22 22 19 18 20 22 24 24 24 25 24 24 27 29 30 29 30 29 30 32 33 32 33 34 34 35 38 38 34 36 40 41 40 40 39 38
13 13 14 14 15 17 18 20 21 23 23 21 21 21 22 24 26 28 30 28 27 26 25 26 27 30 33 34 33 35 37 36 37 38 34 16 24 30 32 32 36 41 41
15 14 14 13 12 12 15 19 21 24 27 28 27 26 26 27 27 26 26 28 29 29 26 22 20 21 23 27 29 31 34 37 40 39 39 41 43 28 25 26 28 30 38
18 15 12 10 10 9 10 11 11 12 14 17 21 23 26 30 32 32 31 28 23 20 21 22 21 20 20 22 22 25 26 31 34 37 37 38 43 46 46 38 35 37 35
18 14 10 9 9 7 7 7 8 10 12 13 13 13 13 13 14 17 19 22 25 26 26 23 22 21 21 21 22 21 22 22 25 29 33 34 33 34 39 46 48 46 41
19 13 10 9 7 7 7 8 9 11 13 15 16 16 16 16 16 16 15 15 16 19 22 21 21 23 23 22 23 19 20 22 25 27 28 32 34 33 38 39 39 43 45
17 12 10 8 7 7 6 7 8 9 11 13 14 15 15 16 17 17 17 17 17 17 17 20 23 24 24 24 25 22 19 19 23 23 25 28 30 30 32 32 35 33 35
17 13 10 8 7 7 7 7 8 8 8 9 10 11 12 13 14 16 17 18 19 20 20 21 20 21 22 24 26 25 22 23 25 25 24 26 27 26 27 29 32 33 23
16 13 11 9 8 8 9 8 8 8 8 7 7 7 7 8 10 11 12 13 14 15 17 18 19 19 19 21 21 22 23 24 27 27 26 24 23 25 25 25 27 29 29
17 15 12 10 9 9 9 8 8 8 8 8 8 9 10 11 12 13 13 13 14 15 17 18 19 18 19 18 19 21 23 24 24 22 21 19 18 20 20 21 21 18 21
17 15 11 10 10 11 11 10 10 9 9 9 9 9 10 11 12 12 12 12 13 14 15 15 16 16 16 16 17 18 18 17 15 14 14 15 18 19 18 17 18 18 16
18 14 12 12 12 12 12 11 11 9 8 7 8 8 9 9 9 10 11 10 9 9 8 7 8 7 8 9 10 12 12 10 10 11 12 15 16 16 17 18 19 14 13
17 14 12 12 12 12 12 12 12 10 9 9 9 9 10 10 10 10 9 8 6 4 5 5 5 5 7 7 7 6 5 7 8 9 9 11 12 11 14 15 10 8 5
18 14 12 11 13 14 13 12 12 11 10 9 9 10 10 10 9 7 6 4 4 3 3 1 3 3 4 5 6 6 4 3 4 3 5 5 6 7 7 5 4 4 3
17 14 11 11 13 15 13 12 11 10 10 10 10 10 10 8 6 4 2 2 3 3 2 4 6 8 10 12 12 11 9 8 8 6 5 4 4 5 5 6 6 5 5
16 14 11 11 13 14 13 12 11 12 12 12 11 9 7 5 3 2 4 6 6 7 7 8 9 9 12 11 11 11 9 7 7 6 5 5 6 6 7 6 7 8 6
13 12 11 11 12 13 13 13 12 12 12 11 10 7 5 4 4 6 9 10 9 9 10 11 10 10 12 12 11 9 8 7 8 7 6 6 6 7 7 8 8 7 6
11 10 9 9 11 13 13 12 12 12 12 10 8 7 6 7 9 10 12 11 11 10 9 9 10 9 8 8 8 8 8 8 8 8 8 8 8 9 10 9 9 8 8
10 8 8 9 11 12 12 12 13 13 11 10 9 9 9 11 13 13 12 11 9 8 9 8 7 7 7 8 9 9 10 10 10 10 9 10 10 10 11 10 10 10 10
10 9 8 8 9 11 12 10 10 8 9 10 10 11 13 13 13 11 10 9 8 7 5 4 5 5 6 8 9 10 11 12 11 11 11 11 11 11 11 11 9 9 10
13 11 9 7 8 10 9 8 8 8 10 11 12 14 14 13 12 10 8 7 6 4 2 2 3 6 8 9 11 12 13 12 11 12 12 11 10 10 10 10 9 8 9
12 11 10 9 8 9 9 9 10 10 12 14 15 14 13 12 11 9 7 4 3 1 1 3 4 6 8 10 12 14 14 15 15 14 14 13 12 12 11 9 8 7 5
10 12 13 12 10 9 10 10 11 12 14 15 15 14 13 12 11 8 6 4 3 3 3 5 6 7 9 11 13 14 14 14 14 14 13 13 12 12 11 8 7 6 6
10 12 14 13 12 11 11 11 13 15 16 16 15 14 13 12 10 8 6 6 6 6 6 6 7 8 10 12 13 14 14 14 14 14 13 13 13 12 10 9 8 8 9
13 14 14 17 15 14 13 13 14 16 16 16 16 15 14 13 12 10 8 8 8 8 8 8 7 8 10 11 12 13 14 13 14 14 13 13 14 12 10 9 9 10 11

GFSMW_850_spd_069.txt.gz
Wind_Speed
12 15 17 16 18 18 18 17 17 18 19 23 24 23 25 25 25 24 25 26 26 28 28 28 28 28 29 28 29 29 30 30 29 31 34 34 32 33 34 35 36 36 36
13 12 14 17 18 18 18 17 18 21 22 22 23 24 24 24 25 25 25 26 28 31 32 30 28 27 27 29 30 32 33 33 33 35 36 37 35 35 36 37 38 37 38
17 14 13 16 17 17 18 18 18 18 19 20 22 23 25 27 28 28 27 27 27 28 29 29 29 30 29 31 30 31 32 32 34 35 34 18 20 23 23 24 26 29 30
14 15 16 16 16 17 17 17 17 20 23 24 24 25 26 26 26 26 27 28 28 27 28 29 29 28 26 26 23 21 24 25 28 30 33 37 38 36 32 25 22 24 25
20 21 18 16 14 14 15 16 18 20 20 20 20 21 23 25 27 27 28 28 28 30 30 29 27 28 25 24 21 21 21 21 22 24 23 25 27 29 35 35 28 31 33
22 20 18 15 14 12 12 13 14 14 14 14 13 13 12 13 13 15 16 17 18 20 25 28 28 26 26 24 23 23 22 22 22 21 20 20 21 24 26 31 35 34 34
26 23 18 15 13 11 10 9 10 11 13 14 15 15 16 15 15 16 16 16 16 15 16 19 20 20 23 23 22 21 21 21 19 18 20 21 25 22 24 27 29 32 33
24 20 16 13 11 9 8 8 8 9 10 12 13 14 14 15 15 16 16 17 18 18 18 16 16 18 20 21 19 20 21 20 21 22 22 24 26 25 23 22 24 26 27
26 20 16 12 10 8 7 7 7 8 9 10 10 11 11 12 13 14 15 16 17 19 19 19 19 18 18 18 19 20 22 21 22 23 22 23 24 24 22 22 21 23 23
22 18 14 12 9 7 7 7 8 8 9 9 9 9 9 9 10 11 12 13 14 14 15 15 16 17 17 17 18 19 19 19 20 22 23 24 23 21 20 19 19 20 21
21 18 14 12 10 9 9 9 9 9 10 10 10 10 10 11 12 13 14 14 14 14 15 16 17 18 18 17 18 18 19 19 20 21 20 19 19 17 16 16 16 17 20
20 17 15 13 11 11 11 10 10 11 11 11 11 11 11 11 12 12 13 13 12 12 13 14 13 13 14 14 14 14 15 15 15 14 13 11 11 13 14 14 15 16 17
19 17 16 14 12 11 12 10 10 11 10 10 10 9 10 10 10 10 10 10 10 9 9 8 7 7 7 6 7 7 6 5 6 6 7 8 10 11 12 13 12 16 15
20 19 16 14 12 12 12 11 11 11 11 11 10 10 11 11 11 11 10 9 9 8 6 6 5 5 5 4 3 3 2 1 3 5 5 6 7 7 8 9 10 9 8
21 20 17 14 13 14 14 13 12 11 11 11 11 11 11 11 11 9 9 7 6 6 4 3 2 3 4 6 7 6 5 6 6 4 5 6 7 7 7 7 7 8 7
23 19 16 15 14 14 14 13 12 11 10 11 11 12 12 11 9 7 6 5 4 3 2 1 3 5 8 10 10 10 10 10 8 8 8 7 7 8 8 9 9 7 7
21 20 17 15 13 13 13 13 12 12 11 12 13 12 11 9 7 5 3 3 5 5 5 5 5 7 10 10 9 10 9 8 8 8 8 8 8 9 9 9 8 8 7
18 17 15 13 12 12 14 14 13 12 12 12 13 12 9 7 6 4 6 7 8 7 8 9 9 9 9 9 9 8 8 8 9 9 9 9 10 11 10 10 10 10 9
15 14 11 11 11 11 12 13 13 12 13 14 13 10 8 7 7 8 9 9 9 10 8 8 8 7 7 7 7 8 8 8 9 9 10 10 11 12 13 12 11 10 10
14 12 10 9 9 9 11 12 13 14 15 15 12 10 9 9 9 11 11 11 9 8 8 6 5 5 6 6 8 9 10 10 10 10 10 11 12 13 12 13 12 11 10
12 11 9 8 7 9 10 11 12 13 13 10 10 10 10 11 13 12 11 10 9 7 5 4 3 3 5 7 9 10 11 11 11 11 11 12 12 11 12 13 12 11 12
11 11 10 8 8 8 9 10 11 10 9 10 11 12 14 15 13 11 10 9 8 6 4 2 0 3 5 7 9 11 12 12 12 12 13 13 12 11 12 12 11 11 11
8 11 11 10 10 9 9 10 10 10 10 12 14 15 16 14 13 12 10 8 7 6 4 3 3 4 5 7 10 11 13 14 14 14 14 15 14 13 13 12 10 10 8
9 10 12 13 12 11 10 10 12 11 13 14 16 17 17 15 15 13 11 9 7 6 5 5 5 6 7 8 9 10 11 13 14 14 14 15 15 14 14 13 11 10 9
13 13 13 13 13 13 12 12 12 13 14 16 17 17 16 16 15 13 11 10 9 8 8 8 7 7 8 9 10 10 11 12 14 15 15 15 15 14 14 12 11 11 11
13 15 15 14 14 16 15 14 13 14 16 18 19 18 17 17 16 14 12 11 10 10 9 10 9 9 9 9 10 11 13 14 14 15 15 16 16 16 15 14 13 13 14

GFSMW_850_spd_072.txt.gz
Wind_Speed
14 13 14 16 17 17 17 17 17 18 20 20 20 22 22 22 23 22 21 21 21 23 24 25 25 26 25 24 25 27 27 28 29 31 32 33 30 30 30 28 30 33 33
20 18 17 18 16 18 19 18 18 18 19 22 22 23 24 24 23 23 24 25 26 27 27 28 29 30 29 28 26 27 28 29 28 30 32 32 30 33 25 22 18 19 24
23 18 17 18 19 21 19 17 17 18 20 21 21 22 24 26 26 27 27 27 28 27 28 28 28 27 28 29 29 28 27 28 28 26 27 17 19 24 25 25 24 25 25
21 20 18 17 18 17 17 16 16 17 18 19 21 22 23 24 24 24 24 24 25 26 26 26 27 28 28 28 27 25 23 21 21 21 22 23 26 28 19 18 21 26 22
19 23 22 20 18 17 16 15 15 16 17 18 19 21 22 23 25 25 25 27 27 28 28 28 28 26 25 27 27 25 23 21 21 20 20 20 20 20 21 26 21 22 22
23 23 22 21 19 16 14 14 14 15 16 16 15 14 13 13 14 15 15 16 16 17 19 21 23 24 25 25 24 25 24 22 21 20 20 19 18 16 17 22 28 25 25
26 27 26 21 18 15 14 13 14 13 13 12 12 12 13 14 14 15 15 15 15 15 16 17 17 18 19 19 22 23 24 23 21 20 20 19 18 16 17 22 26 26 25
27 28 25 21 16 12 10 9 9 9 10 11 11 11 12 12 13 14 15 16 17 17 18 18 18 18 18 18 20 20 20 20 20 21 22 21 20 21 21 24 22 24 23
31 29 24 18 14 11 9 8 7 7 8 9 10 11 11 12 12 13 14 15 16 17 18 18 18 18 17 17 18 18 19 21 18 19 20 21 21 22 23 22 21 19 16
26 24 20 16 13 11 9 7 7 7 8 9 9 10 10 10 11 11 12 13 14 14 14 15 15 16 16 16 15 16 16 17 18 17 18 19 21 19 16 16 15 15 17
27 23 19 15 13 11 9 8 8 8 9 10 10 10 11 11 12 12 13 14 14 14 14 14 15 16 17 16 16 15 15 15 14 14 14 14 14 13 12 11 10 10 12
24 20 18 16 14 11 9 9 9 9 10 11 11 11 11 11 11 11 11 12 12 12 12 12 12 12 11 11 12 12 11 11 11 11 10 11 10 9 8 8 10 11 12
21 19 18 16 14 12 11 11 10 10 10 11 11 10 10 10 10 10 11 11 10 10 9 9 9 9 8 7 5 6 5 5 4 5 5 5 5 5 5 6 9 9 10
21 19 18 18 15 13 12 12 12 11 11 11 11 11 12 11 11 12 12 11 10 9 8 7 7 6 6 4 3 3 3 3 2 2 3 2 1 2 2 3 4 5 5
22 21 20 18 16 14 14 14 13 12 11 11 12 11 11 12 12 11 11 9 8 7 6 4 2 1 2 5 6 6 5 4 4 4 4 4 5 6 6 6 6 6 7
23 22 20 19 16 14 14 14 13 12 12 12 12 12 11 12 11 10 7 6 5 5 4 3 3 4 7 9 9 9 7 7 5 5 5 6 7 7 7 8 9 9 8
22 21 20 17 15 13 13 14 13 13 13 12 12 13 12 11 10 8 6 5 6 6 6 6 6 7 9 9 7 7 6 5 5 6 7 7 7 8 8 9 9 9 9
20 19 18 16 15 14 14 14 15 14 13 13 13 13 12 10 9 7 6 7 8 8 8 9 9 8 7 7 6 5 6 6 7 7 7 8 9 10 9 9 10 9 9
16 14 14 14 13 13 13 13 15 14 14 13 14 13 11 10 8 7 8 9 9 9 9 9 7 5 5 5 5 6 6 7 7 7 8 9 10 11 12 10 10 9 10
13 13 14 13 12 10 11 12 13 13 14 14 15 14 11 10 9 9 10 11 11 10 9 7 6 4 3 4 5 5 6 7 7 8 9 11 11 11 11 10 10 9 9
12 13 13 10 9 9 10 11 12 12 12 13 11 11 10 10 10 12 13 12 11 10 7 6 4 2 1 2 4 6 6 7 7 8 9 11 11 11 11 11 11 11 10
9 10 10 10 9 9 9 9 10 10 11 10 9 11 11 12 14 14 13 11 10 9 7 5 3 1 2 4 6 7 7 7 8 9 10 12 12 12 12 11 11 10 9
6 7 9 11 10 9 9 9 9 10 10 9 11 11 13 15 14 13 13 12 10 9 7 5 4 4 4 6 7 9 10 10 10 11 12 14 14 13 13 12 11 9 9
2 5 6 9 11 10 10 9 10 10 11 11 12 14 15 16 15 15 15 12 11 10 8 7 6 6 7 7 7 9 10 10 11 11 12 14 15 16 15 14 12 10 9
9 9 11 12 10 11 11 11 11 11 12 12 13 16 17 17 17 16 14 12 11 11 10 9 9 9 9 8 9 10 10 10 11 11 12 14 14 15 15 14 13 12 11
11 12 13 14 12 12 13 13 13 13 13 14 16 18 19 19 18 18 16 14 13 12 12 11 10 10 10 10 11 11 11 12 12 13 14 15 16 17 16 15 14 13 13

GFSMW_850_spd_075.txt.gz
Wind_Speed
14 12 12 14 15 14 12 13 13 13 14 14 15 16 16 17 17 17 18 19 19 19 20 21 21 21 22 22 21 23 24 25 23 26 28 28 26 27 26 25 22 18 20
21 18 16 17 18 17 16 16 15 15 15 16 18 20 20 20 20 21 21 22 23 24 24 24 24 24 24 24 26 26 26 26 25 25 27 25 22 23 21 14 15 16 20
25 24 20 19 20 20 21 20 19 18 17 18 19 21 21 21 22 22 23 24 25 25 26 26 27 27 27 26 26 26 27 27 25 24 22 12 13 16 20 19 18 20 20
18 19 25 23 21 22 22 20 19 18 18 18 18 19 19 20 21 21 22 23 23 24 24 24 24 25 26 27 26 24 25 24 24 22 20 20 21 14 13 12 15 18 20
31 22 24 23 23 21 20 19 17 17 17 18 19 19 20 21 22 23 24 25 25 25 25 26 27 27 27 27 26 25 25 24 23 21 20 19 19 19 19 21 15 15 17
32 27 23 23 22 21 19 18 16 15 15 15 16 17 17 17 16 16 16 16 17 17 18 18 19 19 19 19 20 22 20 21 22 21 21 21 20 17 18 18 23 21 20
32 30 28 27 24 21 19 16 14 13 13 13 14 13 14 14 14 15 16 16 16 16 16 17 17 17 18 18 17 17 19 20 23 23 21 19 18 18 17 19 19 18 19
26 33 34 31 28 22 17 14 12 11 11 10 10 10 11 12 13 14 15 16 17 17 18 18 18 19 19 19 18 18 18 18 19 18 18 17 15 17 17 18 18 18 17
22 32 33 30 27 21 15 12 11 10 9 9 9 9 9 10 11 12 13 14 14 15 15 14 14 14 14 15 15 16 17 17 16 16 18 19 20 21 22 22 21 19 12
21 28 30 27 21 16 14 12 10 9 8 8 9 9 10 10 11 11 11 12 13 14 14 14 14 14 14 15 15 15 16 16 17 19 20 22 22 20 21 19 15 12 12
19 26 25 21 18 16 13 10 9 8 8 8 9 9 10 11 12 12 13 13 14 14 14 14 14 14 15 15 15 15 15 15 16 16 16 15 16 15 12 10 10 10 11
20 22 21 19 17 15 12 11 10 9 9 10 10 10 11 11 11 12 12 12 12 12 12 12 12 12 12 11 10 11 11 11 11 11 10 9 9 7 6 8 9 10 11
22 22 21 19 17 15 13 12 11 11 10 11 11 11 10 11 11 11 11 11 12 11 11 10 9 10 10 9 7 6 6 7 6 4 4 5 4 3 6 6 7 7 7
24 23 22 21 19 16 13 12 12 12 12 11 11 11 12 12 12 12 12 12 12 11 10 9 8 7 7 6 5 5 5 5 4 2 3 3 3 4 4 4 5 5 5
25 25 23 21 18 17 15 14 15 14 13 12 12 12 12 12 12 12 11 11 10 10 8 7 5 3 1 3 4 4 5 5 4 3 3 2 1 1 2 3 5 5 5
26 25 22 21 20 18 15 14 15 15 14 13 12 12 12 11 11 11 9 8 6 7 6 5 4 3 4 7 9 8 7 6 5 3 2 2 4 5 6 6 7 7 6
29 26 24 22 19 16 15 15 14 16 14 13 13 13 13 12 11 10 8 7 6 7 6 6 6 7 9 9 8 7 5 3 2 2 3 3 5 5 6 7 8 9 8
26 23 21 20 18 17 15 15 15 15 15 14 13 13 14 13 11 9 8 8 8 8 9 9 10 10 9 7 5 4 3 3 3 4 4 4 5 5 6 7 7 7 7
20 17 15 16 17 15 13 14 14 14 15 14 14 15 14 12 10 9 9 10 10 11 12 12 11 8 7 5 4 3 3 3 4 4 4 5 6 8 7 7 7 7 7
16 16 15 15 15 14 12 12 12 14 14 14 14 15 14 12 11 11 11 13 13 13 13 11 9 8 5 3 3 2 2 4 4 5 6 7 7 7 7 7 7 8 7
13 13 12 12 12 11 10 11 13 13 12 14 14 14 11 11 11 12 13 14 15 15 13 11 9 6 4 2 1 2 3 3 4 4 5 6 7 6 7 7 9 8 7
9 10 10 11 11 10 9 10 10 10 11 11 11 9 10 12 13 14 16 17 16 15 13 10 8 6 5 3 2 1 2 3 3 4 5 6 6 7 8 8 9 9 7
6 7 8 9 10 10 10 9 8 10 10 10 9 9 11 13 15 16 18 17 17 15 13 10 9 8 6 5 4 4 4 4 5 5 5 6 7 8 9 9 9 8 8
3 0 2 4 6 8 9 9 11 10 10 10 9 11 13 15 17 17 17 17 16 14 12 11 10 10 9 8 7 6 6 6 7 7 7 8 8 9 9 9 9 9 9
4 7 7 5 5 8 10 11 12 12 11 10 10 13 14 17 18 18 17 16 14 14 13 12 12 11 10 9 9 8 7 7 8 7 7 8 9 10 10 11 11 11 10
7 8 9 11 12 13 12 13 13 13 13 13 13 14 16 18 19 19 19 19 17 16 15 14 13 13 12 11 10 10 9 8 10 9 8 9 10 10 11 11 11 11 11

GFSMW_850_spd_078.txt.gz
Wind_Speed
12 9 9 14 20 20 20 18 17 17 17 17 17 17 17 15 15 16 16 17 18 19 19 19 19 20 20 20 21 22 23 24 22 21 20 16 16 20 18 21 16 16 16
18 10 10 13 17 19 18 17 18 18 17 17 17 17 17 17 16 17 18 20 20 21 22 23 24 24 25 24 24 24 24 26 24 21 20 16 16 17 13 10 12 13 18
19 17 12 15 18 20 20 19 19 19 19 19 19 19 19 20 19 19 20 21 22 23 24 25 26 26 27 27 27 26 26 25 26 24 19 11 12 11 12 15 19 19 16
20 19 11 17 19 21 21 21 20 20 20 20 19 18 19 18 19 20 20 22 23 24 24 25 25 25 25 26 27 27 26 23 24 25 23 22 21 15 13 12 16 18 17
23 22 19 17 23 23 22 21 21 20 19 18 17 17 18 19 20 21 22 23 24 25 25 25 25 26 27 28 28 27 27 24 24 22 22 21 19 18 19 17 13 14 14
20 22 20 21 22 24 23 22 20 18 17 17 17 18 18 19 20 20 20 20 20 20 20 20 21 21 21 20 20 21 22 22 23 22 24 23 19 17 18 18 19 18 16
29 21 24 25 25 24 24 22 20 18 17 16 16 17 18 19 18 18 18 17 18 18 19 19 19 20 20 20 20 20 20 19 20 22 24 22 20 20 20 19 18 18 17
32 26 24 28 29 27 26 23 20 17 15 15 15 15 15 15 16 16 17 18 19 19 19 20 20 21 21 21 20 20 19 17 16 18 18 21 19 18 16 17 18 19 20
22 31 23 26 30 30 27 22 18 15 14 13 13 13 13 13 14 15 16 17 17 18 18 17 17 17 17 17 17 18 19 18 17 17 18 19 19 19 19 20 18 18 12
16 19 21 23 24 25 22 18 15 13 12 12 11 12 12 12 13 14 15 15 16 16 16 16 16 16 16 16 16 17 17 17 17 17 16 18 18 18 19 20 21 19 14
10 13 17 22 24 22 20 17 14 13 12 12 12 12 13 13 14 14 14 15 15 15 15 15 14 14 14 14 15 16 16 17 17 17 17 18 18 18 18 16 13 13 12
9 14 19 24 23 21 18 16 15 13 12 12 12 12 13 14 14 14 14 14 14 14 13 13 13 12 12 12 12 12 12 13 14 14 14 14 14 12 11 10 11 13 11
10 15 21 24 22 20 19 16 14 13 12 12 12 13 13 13 12 13 13 14 14 14 14 13 12 12 12 12 11 9 8 9 10 10 9 9 8 7 7 9 8 8 7
16 17 19 21 22 20 18 17 16 15 14 13 13 13 13 13 14 14 14 15 15 14 13 13 12 10 10 10 8 7 6 7 6 6 5 5 5 5 4 4 5 5 6
17 19 21 21 22 22 21 20 18 16 15 14 14 13 14 15 15 14 15 14 14 14 13 11 9 8 6 5 5 5 6 6 5 4 4 4 2 1 2 4 4 5 6
20 23 25 24 24 24 23 20 18 16 15 15 15 14 15 15 15 15 14 13 11 9 9 8 7 5 4 5 7 7 7 6 5 3 1 1 1 3 3 4 5 6 6
21 24 28 27 25 24 21 20 18 17 17 17 17 16 15 15 15 15 13 12 9 8 8 8 8 7 7 7 7 7 6 5 4 2 1 2 2 3 4 5 6 5 5
21 23 26 26 25 22 21 20 19 18 17 17 18 17 16 15 14 13 12 12 9 9 9 10 10 10 9 8 6 5 5 4 2 2 1 1 2 3 4 4 5 6 6
13 17 23 23 23 22 21 19 18 17 17 18 18 17 16 15 14 12 12 12 11 12 12 12 12 10 9 7 5 5 4 3 2 1 0 2 2 3 4 5 5 6 7
12 14 18 19 20 20 19 17 17 17 18 17 17 17 16 17 15 14 14 13 13 13 14 14 12 11 8 6 5 5 4 3 2 1 1 2 3 4 3 4 5 6 7
13 15 16 16 17 17 17 16 15 15 14 15 16 16 16 15 13 14 14 14 15 15 16 15 13 11 9 7 4 3 3 2 2 2 2 3 4 4 3 3 5 5 6
10 12 14 15 15 15 14 14 13 12 14 14 14 15 15 13 13 14 14 16 17 18 17 16 14 12 10 8 6 3 3 4 4 3 4 4 4 4 3 5 5 5 5
7 8 9 10 12 13 13 13 11 12 12 13 13 13 12 13 13 15 17 18 20 19 18 17 15 13 11 10 8 6 6 5 5 5 5 5 5 4 5 6 6 6 7
6 5 3 6 8 10 11 11 12 13 13 12 12 11 13 14 15 17 18 20 21 21 20 18 16 14 13 12 11 10 8 7 6 7 7 6 6 5 6 7 8 8 8
5 5 7 8 7 8 9 10 11 13 13 13 13 12 12 15 17 19 20 21 20 20 19 17 16 16 15 13 13 12 10 10 10 9 10 9 8 8 8 8 9 9 10
6 7 8 10 10 11 11 9 12 13 14 16 15 13 13 16 18 20 21 22 22 22 21 20 19 17 16 16 15 13 12 12 12 12 11 11 10 10 10 10 10 11 11

GFSMW_850_spd_081.txt.gz
Wind_Speed
8 6 8 9 11 16 15 15 17 17 16 15 14 14 13 12 13 13 13 13 12 13 15 15 13 13 15 14 15 16 19 20 19 20 22 21 16 17 20 16 16 13 14
13 7 6 8 12 13 17 15 14 16 18 16 14 12 12 11 10 11 14 13 15 17 18 18 19 19 20 21 20 20 20 22 21 19 19 17 18 16 19 13 11 11 13
22 14 9 9 11 14 16 17 17 16 19 17 18 19 17 16 15 17 16 20 19 21 21 21 23 24 24 24 24 24 22 22 21 18 18 12 11 11 11 11 10 10 14
26 18 16 13 12 13 19 20 20 19 20 20 20 18 16 13 12 15 18 18 19 21 22 23 24 24 25 25 25 24 24 22 25 23 24 23 23 15 13 13 11 13 19
28 24 22 16 14 17 18 19 20 21 21 20 20 19 18 18 18 18 19 20 22 23 24 24 25 24 25 25 25 25 25 24 22 22 23 25 24 23 21 18 19 16 12
21 27 21 25 17 15 18 18 19 20 19 19 18 17 16 16 16 18 18 19 21 22 21 21 21 20 20 20 19 19 18 18 19 21 20 20 19 19 21 20 20 17 18
23 26 20 24 19 15 15 19 19 19 18 18 17 16 15 16 16 18 18 18 18 19 20 19 19 20 20 21 21 20 20 20 18 17 17 21 21 23 20 21 19 19 17
19 25 22 20 19 18 18 19 20 19 18 17 16 15 16 17 18 18 18 18 18 19 20 21 21 22 22 22 21 21 21 21 19 18 19 20 20 20 17 17 16 17 20
12 15 24 17 16 18 20 21 22 21 19 16 14 15 16 16 16 16 17 18 19 19 20 20 20 20 19 18 18 18 18 18 18 16 16 18 19 19 19 22 20 19 15
9 9 16 15 16 17 19 21 21 19 16 15 14 15 15 15 15 16 17 17 18 18 18 18 18 18 18 18 18 18 18 18 17 15 15 16 18 19 20 18 17 16 16
8 7 9 15 19 18 19 19 19 18 16 15 14 14 14 14 15 16 17 17 18 18 18 18 18 18 17 16 16 17 17 16 16 16 17 16 17 18 17 16 15 14 12
5 7 10 14 16 19 21 21 20 17 16 14 13 13 14 15 16 16 16 16 17 16 16 16 16 16 15 14 14 14 13 13 13 13 14 14 13 12 12 9 10 10 12
6 9 12 14 16 18 21 21 18 16 14 13 14 14 15 16 17 16 15 15 16 16 15 15 16 15 14 14 12 12 11 10 10 10 10 9 9 9 8 8 10 7 9
7 10 14 15 16 16 18 18 17 17 15 14 14 14 14 15 15 15 16 16 17 17 16 16 16 15 14 13 12 11 10 9 8 7 8 8 8 7 7 6 6 5 6
10 13 15 17 18 18 18 18 18 17 15 14 15 15 15 15 16 16 16 15 15 16 17 16 15 13 12 11 9 8 7 8 7 6 5 4 4 4 4 4 5 5 6
15 17 18 19 20 19 19 20 19 18 16 16 16 16 16 16 16 16 16 15 14 14 13 12 11 10 9 8 7 6 7 6 6 5 4 3 3 3 4 4 5 6 6
18 18 21 22 21 20 21 21 20 19 18 17 17 17 16 16 17 16 16 16 14 11 10 10 9 8 7 6 7 7 6 6 5 4 3 2 2 2 2 3 3 4 4
15 19 22 23 22 19 19 18 18 18 17 17 17 16 16 17 17 16 16 15 13 11 10 10 9 9 8 8 7 6 6 4 4 4 3 2 2 2 2 2 2 3 3
14 14 19 21 20 19 19 19 19 18 18 18 18 18 18 18 17 16 16 14 13 12 11 11 11 10 9 8 7 6 6 5 4 4 3 2 3 2 2 2 2 4 4
10 8 10 17 19 19 20 19 19 18 18 16 17 17 18 18 18 17 16 14 13 13 12 11 12 11 10 9 7 7 6 5 4 3 3 3 3 2 3 2 2 3 5
8 10 14 16 17 18 17 18 17 17 15 15 16 16 17 17 18 17 16 14 13 14 14 14 13 12 11 10 7 7 6 5 5 5 4 3 3 3 2 3 4 4 4
6 9 11 15 15 14 15 16 16 15 15 14 15 16 17 17 16 14 13 14 14 15 15 16 16 14 13 11 8 6 6 6 6 6 6 6 5 4 4 4 3 4 4
4 5 6 7 8 10 12 13 14 14 13 13 13 14 15 15 13 13 14 15 16 17 18 18 17 15 14 12 10 9 8 8 8 8 8 7 7 6 6 6 4 5 6
3 4 4 3 5 7 9 12 13 13 13 12 12 14 14 13 13 14 15 16 19 20 20 20 19 16 15 14 13 12 11 11 10 9 9 9 9 8 8 8 7 7 8
1 2 4 5 6 7 8 10 12 13 13 13 14 15 13 13 13 15 16 17 18 20 20 19 18 18 17 13 13 14 14 13 12 13 12 12 11 11 10 10 9 9 9
7 7 7 7 8 9 10 10 11 11 12 13 15 16 13 14 13 15 17 19 20 21 21 21 21 20 18 17 16 16 16 15 16 16 15 14 13 13 12 12 11 11 11

GFSMW_850_spd_084.txt.gz
Wind_Speed
10 13 10 12 19 19 22 20 20 18 17 19 18 17 15 14 15 13 12 14 12 11 14 14 11 13 14 14 13 15 16 19 20 21 22 20 19 18 17 18 16 9 13
19 12 10 11 16 20 18 19 19 20 20 19 18 17 17 15 13 16 16 16 16 17 16 15 16 17 18 18 18 19 20 20 18 18 18 19 20 18 13 15 15 12 15
20 19 15 12 14 17 18 21 20 17 20 19 20 19 17 15 17 16 16 17 16 17 18 18 19 20 21 22 22 22 22 23 22 19 20 10 7 8 11 10 10 11 13
32 24 21 18 19 17 22 22 24 24 20 23 20 18 20 17 16 17 18 16 15 16 18 19 20 21 21 22 23 22 22 20 21 21 23 25 23 21 15 14 13 12 15
25 31 28 21 17 21 21 21 22 22 21 21 21 20 18 17 16 16 16 17 17 18 19 20 21 22 22 23 23 22 22 21 22 21 20 20 20 21 22 21 21 18 15
23 23 30 26 26 24 20 19 20 20 19 18 18 18 18 17 16 16 16 16 18 19 19 20 20 19 19 18 18 18 18 18 17 16 16 19 19 19 21 22 22 18 14
24 21 22 28 28 27 23 17 18 18 19 18 18 18 17 16 16 15 15 17 18 20 19 17 17 18 18 18 19 19 19 19 19 17 16 16 19 22 23 20 19 19 16
25 23 25 30 27 22 20 18 18 19 19 18 17 16 15 15 15 15 16 17 17 19 18 18 18 19 19 19 19 19 19 20 21 19 18 18 20 21 21 19 17 13 13
5 18 23 23 22 23 19 17 19 19 19 18 17 17 15 14 14 14 15 16 16 17 18 18 18 18 18 18 17 18 18 18 19 16 17 16 14 17 20 19 16 16 15
7 10 13 21 22 21 19 18 19 19 19 18 17 16 14 13 14 14 14 15 17 17 18 18 18 18 18 18 18 18 18 18 18 18 15 14 15 17 19 20 19 19 16
9 10 12 17 21 22 21 19 19 20 19 18 15 13 12 13 14 15 16 17 18 19 19 18 18 18 17 17 17 17 16 16 17 16 15 15 16 15 16 18 18 17 16
5 10 14 18 22 22 23 25 22 16 15 13 14 13 11 13 14 15 15 16 17 17 17 17 17 17 16 15 15 15 15 15 15 15 16 16 18 18 17 15 11 10 10
2 6 12 18 19 21 20 22 26 28 26 25 26 21 16 15 15 15 15 15 15 16 16 17 17 17 16 15 15 15 15 14 14 14 14 13 12 11 11 10 9 9 10
4 7 10 15 18 20 21 22 23 22 19 18 18 16 14 14 14 14 15 15 15 16 17 17 16 16 16 16 15 15 14 13 12 11 11 10 10 8 7 8 7 6 7
6 9 13 15 15 17 20 21 21 20 18 16 14 13 14 14 14 14 15 15 16 16 17 18 18 16 15 14 13 12 10 9 10 9 8 7 6 6 5 4 4 6 7
11 14 17 17 19 20 21 20 20 19 16 14 13 13 14 14 15 16 16 15 15 16 16 16 14 12 11 10 10 8 8 8 8 6 6 5 5 6 6 6 7 7 5
15 18 20 20 22 23 22 22 21 19 17 15 14 14 15 16 16 16 16 15 15 16 14 12 11 10 9 8 7 8 7 7 7 6 6 5 4 5 4 3 4 3 3
15 14 16 20 21 23 22 22 22 20 19 17 16 16 16 17 17 17 17 16 15 14 12 11 11 10 8 8 7 7 7 7 7 6 6 5 5 4 2 2 2 0 0
20 18 18 14 23 25 23 23 22 21 19 17 17 16 16 16 17 17 15 15 15 12 11 11 11 10 8 9 9 8 7 7 7 6 5 4 3 2 2 2 1 1 1
9 15 15 17 20 26 26 25 24 22 19 17 15 15 15 16 17 16 15 14 14 13 13 12 11 10 10 10 9 8 8 8 7 6 6 4 2 3 2 2 1 1 2
12 12 10 10 20 24 25 25 23 20 17 15 15 15 15 15 16 15 13 14 12 13 13 12 12 12 12 10 9 8 9 8 7 7 6 4 3 3 4 3 2 3 3
4 8 13 17 18 20 21 21 20 17 16 14 14 13 14 14 14 13 14 12 12 13 13 13 13 13 12 10 9 8 8 8 8 7 6 5 5 4 4 4 4 4 4
2 5 7 11 12 14 14 16 16 15 13 13 13 13 13 13 13 14 12 12 13 13 14 14 14 14 14 12 11 10 8 8 8 8 7 7 7 6 6 5 6 6 5
2 3 4 5 6 7 8 9 10 10 12 13 14 14 13 11 13 13 12 13 14 15 16 16 16 15 15 14 12 11 11 11 10 9 9 9 9 9 8 8 8 8 7
1 1 1 2 2 4 6 7 8 9 11 13 14 15 13 12 13 13 11 13 14 15 16 16 15 16 16 12 13 13 13 13 12 13 13 13 12 12 11 10 10 10 9
4 5 4 5 5 6 6 7 7 8 9 11 13 14 13 12 13 12 12 13 14 15 15 17 18 18 17 16 15 15 15 15 15 17 16 15 15 14 13 13 12 11 11

GFSMW_850_spd_087.txt.gz
Wind_Speed
15 12 16 18 17 20 19 19 21 16 16 30 25 21 22 19 18 16 14 12 11 11 12 12 10 13 14 15 16 17 17 18 19 21 22 20 20 19 17 14 15 16 11
16 17 13 17 21 20 22 21 20 19 19 22 21 21 22 21 17 14 14 16 17 15 14 15 16 16 16 17 18 20 21 21 20 19 20 22 19 17 9 7 11 14 14
19 23 20 14 16 23 24 25 23 21 21 23 24 23 21 20 21 19 20 20 18 19 19 19 20 19 20 21 21 22 23 23 21 20 19 11 6 6 8 8 8 12 14
27 26 23 20 17 19 25 27 26 26 25 26 26 23 23 22 19 18 19 20 22 20 19 20 21 21 21 22 22 22 22 21 23 20 19 23 23 14 12 11 12 12 11
27 27 30 26 21 20 23 26 29 29 26 27 26 25 24 23 22 22 22 22 20 18 17 18 20 21 21 22 22 21 20 20 21 19 19 20 18 20 22 19 18 17 15
25 25 21 30 28 23 23 24 27 27 27 28 28 27 25 25 24 22 21 20 20 19 19 19 19 19 20 19 18 18 17 17 17 18 19 15 16 18 15 17 18 19 17
27 23 23 28 31 28 26 26 27 26 24 24 26 25 24 23 21 20 20 20 19 19 18 18 18 17 17 17 18 19 19 19 19 20 18 16 18 20 21 21 19 19 16
22 27 25 26 32 29 25 24 23 22 22 23 22 22 21 20 19 18 17 17 18 18 18 17 17 17 18 19 19 19 19 20 20 21 19 17 18 20 20 20 19 18 14
5 21 27 24 27 30 27 25 24 23 23 23 21 20 19 18 18 17 16 17 17 17 16 16 17 17 18 18 18 18 18 18 19 20 18 16 14 14 16 15 15 17 15
1 3 19 23 24 28 27 25 24 23 22 21 21 19 17 16 16 16 14 15 15 15 15 16 17 18 18 18 19 19 18 18 19 19 17 17 14 15 16 17 18 18 19
3 4 8 19 24 24 24 25 24 24 23 20 20 16 16 15 12 13 13 13 13 14 16 17 17 17 17 18 18 18 17 18 18 16 16 17 15 16 16 17 17 17 17
3 7 10 13 20 23 24 24 24 22 21 20 16 14 14 11 11 12 14 14 15 16 17 17 17 16 16 16 17 17 17 16 16 17 15 16 17 16 17 19 19 18 17
2 4 9 12 18 23 23 24 24 25 25 24 22 18 21 26 28 24 22 20 20 18 17 17 17 17 16 16 17 17 16 16 15 15 15 14 14 15 16 15 12 11 12
6 6 7 11 18 21 22 23 24 24 24 25 24 25 27 25 20 15 16 16 16 17 16 16 16 17 17 17 17 17 16 16 15 14 13 12 11 11 10 9 9 10 10
12 10 9 10 13 19 21 21 22 22 22 22 19 17 17 15 15 14 13 14 15 15 16 17 17 18 17 17 16 15 14 13 12 12 11 9 9 9 7 6 7 8 7
15 15 16 16 17 19 22 22 22 22 21 20 18 17 17 15 13 14 14 14 14 15 15 16 17 17 15 13 13 12 10 8 9 9 8 6 6 6 6 7 8 8 8
13 15 16 20 22 21 22 24 23 22 22 20 19 18 16 15 14 14 14 14 14 15 15 15 15 14 12 10 10 10 9 9 9 7 7 7 6 7 6 6 7 7 8
19 18 16 15 25 20 21 20 21 22 22 22 21 19 17 15 15 15 14 14 14 13 13 13 12 12 10 9 9 7 8 8 8 8 8 7 6 6 6 6 5 6 4
18 20 20 16 16 25 24 24 23 23 23 23 21 18 16 15 15 16 15 15 14 14 13 13 12 11 9 9 9 8 8 9 9 8 7 6 6 5 5 5 5 5 3
16 15 15 19 18 22 30 28 26 24 25 23 20 17 16 15 16 15 15 14 14 14 12 12 12 11 11 10 10 10 10 9 8 8 8 7 7 5 4 5 4 4 4
14 13 14 16 20 19 31 32 27 23 20 19 18 17 15 15 15 15 14 12 13 12 11 11 12 12 12 11 11 10 9 9 9 9 9 8 5 4 4 5 5 5 4
8 6 7 7 8 15 27 26 24 18 18 18 17 15 13 15 15 14 12 12 11 10 11 13 13 13 13 12 11 11 9 9 9 9 9 8 6 5 6 5 6 6 5
5 4 4 6 9 12 15 17 18 18 17 15 14 13 14 14 13 12 12 12 10 11 13 13 14 14 15 14 13 11 10 9 9 9 8 8 8 7 6 6 7 7 7
1 1 1 4 7 9 11 11 11 11 12 13 14 14 15 14 13 12 11 11 11 13 14 15 16 15 17 16 14 13 12 11 10 9 9 9 9 9 9 9 9 8 9
3 2 1 1 2 4 5 7 8 9 11 12 13 14 14 14 13 12 9 11 11 12 14 15 14 16 17 14 13 13 13 13 12 13 14 13 12 12 11 11 11 11 11
9 9 5 4 2 4 5 6 7 8 10 12 13 14 14 13 13 13 11 10 10 12 13 14 16 15 14 15 15 15 15 15 15 18 17 16 15 15 14 14 13 12 12

GFSMW_850_spd_090.txt.gz
Wind_Speed
12 12 18 22 23 22 22 26 32 28 24 26 28 29 27 25 23 20 23 16 13 10 9 7 9 8 12 13 14 16 16 17 18 20 21 23 22 24 20 17 16 14 15
16 16 15 16 21 21 20 23 25 23 27 29 35 34 27 28 21 18 21 22 16 15 13 14 15 15 15 17 17 18 20 21 20 21 22 24 21 17 12 8 7 9 12
18 17 19 19 19 22 23 23 23 24 23 20 26 31 24 23 23 23 21 20 18 16 14 16 18 20 19 19 20 22 22 24 23 20 18 12 7 8 8 10 9 7 9
26 22 20 22 23 20 24 25 25 24 25 24 26 28 30 29 27 22 20 19 20 19 15 21 24 25 25 24 22 25 26 25 25 22 21 25 26 17 11 11 13 15 12
25 30 29 25 22 22 22 27 28 28 27 28 29 29 26 23 25 26 25 26 26 27 21 23 25 24 24 23 23 23 23 22 22 20 20 19 17 21 23 20 18 18 18
25 23 26 22 28 26 25 25 26 30 29 29 31 29 27 27 28 26 28 28 26 25 23 23 22 22 22 22 23 22 20 19 19 18 19 19 18 15 13 14 17 18 18
29 27 25 24 24 31 29 28 27 27 28 29 32 29 29 27 27 27 28 28 26 23 23 21 21 20 20 20 20 20 20 21 21 20 21 21 22 20 21 21 21 20 16
27 27 28 26 26 29 33 30 28 27 27 28 32 29 25 25 22 24 25 23 22 20 20 19 19 19 19 19 20 20 20 21 21 21 21 21 22 23 20 20 18 16 22
8 10 20 28 24 29 34 31 29 27 27 26 21 20 19 22 20 21 22 20 18 18 18 18 17 17 18 19 19 19 20 21 20 21 22 22 20 18 16 20 21 24 24
3 7 10 23 24 28 31 30 28 26 26 25 24 22 23 18 22 20 19 18 15 15 16 17 18 19 19 19 19 20 20 20 20 21 21 21 18 17 15 17 17 16 16
3 5 4 8 21 26 28 26 25 24 24 23 23 21 18 21 15 13 12 13 14 17 19 20 19 19 19 20 20 20 20 19 19 20 19 18 17 17 17 18 17 19 19
0 3 6 8 12 19 22 23 23 24 23 22 22 21 28 25 23 24 22 20 17 16 18 19 17 17 19 20 20 20 18 18 18 18 17 16 17 17 17 17 18 19 19
3 5 6 6 10 15 19 20 21 23 22 22 21 21 23 24 23 17 17 19 23 23 21 19 17 18 19 20 20 20 19 18 17 17 18 17 17 16 17 18 20 21 18
9 7 8 8 7 10 16 20 21 22 23 23 24 25 26 22 18 18 21 23 20 18 17 18 19 19 20 19 20 20 19 18 17 17 17 16 15 14 14 14 13 12 12
17 15 13 12 11 12 14 19 22 23 24 25 25 27 25 23 21 17 17 16 15 16 17 19 19 19 19 20 20 19 18 17 15 14 14 14 13 12 11 10 9 9 9
17 18 19 18 18 17 18 20 23 23 24 24 25 25 25 20 17 16 14 13 15 17 18 18 18 18 18 19 17 15 14 12 11 10 10 10 10 7 7 7 7 8 8
14 16 17 19 23 24 23 23 23 22 23 22 21 22 21 19 17 15 15 15 16 17 17 17 17 16 16 15 13 13 11 10 10 10 10 7 7 6 6 8 8 8 8
12 15 17 20 19 18 26 23 22 22 23 22 22 21 21 20 18 17 15 16 16 16 16 16 16 15 14 13 12 10 10 11 11 10 8 8 7 7 6 5 5 5 5
19 21 21 20 19 18 18 24 23 22 23 24 25 24 23 20 18 17 16 16 15 16 15 15 14 12 12 11 10 10 8 9 9 9 8 8 7 6 5 6 6 5 5
19 20 20 19 18 17 17 25 25 26 24 25 25 23 22 20 18 16 16 16 15 15 16 14 13 12 11 11 10 9 9 9 9 9 9 7 7 6 5 6 6 6 5
17 18 17 17 18 17 20 25 30 28 24 22 21 22 22 19 17 16 16 16 15 15 15 14 13 13 12 11 11 10 10 9 9 9 8 7 7 6 6 7 7 7 6
16 15 13 12 13 15 20 26 30 28 24 20 20 21 20 19 18 17 16 16 14 14 14 13 14 13 12 13 12 11 10 11 10 9 8 8 7 7 6 7 8 8 8
13 11 9 8 7 6 6 14 24 28 23 21 19 19 19 18 17 16 15 15 14 13 12 14 14 14 14 15 14 12 11 10 10 10 9 10 9 9 8 8 9 9 9
12 8 5 6 9 8 8 9 13 16 16 16 17 18 18 17 16 16 15 16 14 12 13 15 15 14 15 16 16 15 14 12 11 10 10 10 11 11 11 11 10 10 10
12 8 6 5 4 5 8 10 12 13 14 14 15 16 16 16 15 15 15 14 13 12 12 13 14 15 17 15 15 15 15 13 12 13 14 15 13 13 12 12 12 12 12
16 13 10 7 6 6 5 7 10 11 12 14 15 16 15 15 15 15 14 14 13 12 12 13 15 15 15 15 17 16 15 15 15 19 19 17 17 17 15 15 14 15 14

GFSMW_850_spd_093.txt.gz
Wind_Speed
15 21 22 25 26 26 29 32 33 33 34 35 38 34 30 28 34 28 24 21 22 13 9 8 9 8 8 9 12 13 12 15 15 18 20 21 23 23 23 23 19 15 14
12 12 16 23 26 24 29 31 35 38 38 40 36 35 33 32 28 25 24 25 24 21 17 15 12 13 12 14 14 15 16 17 17 19 22 26 23 15 7 9 8 8 11
17 14 12 13 19 25 25 26 27 31 37 36 34 34 30 28 31 29 28 26 27 24 22 19 16 16 17 18 17 18 19 20 22 21 18 10 5 7 11 11 12 11 9
21 17 15 16 16 18 23 26 25 26 28 30 29 32 38 38 35 33 31 28 28 22 17 13 17 22 22 22 23 25 25 24 27 25 23 23 25 21 11 6 9 10 14
26 25 22 19 20 19 20 22 22 23 25 26 28 27 29 33 31 29 33 32 27 26 22 25 24 26 23 23 24 23 23 24 24 23 21 19 20 22 19 22 20 18 19
28 24 21 23 27 24 21 21 21 21 23 25 28 28 27 27 28 30 29 30 27 25 21 21 24 24 23 23 22 22 22 21 20 19 19 19 18 17 15 15 15 21 22
25 25 24 22 22 23 25 25 24 21 21 24 28 29 28 27 27 27 26 27 27 20 16 20 21 21 23 20 20 20 20 20 20 20 20 20 20 20 20 19 22 23 22
20 22 22 22 23 22 22 27 28 25 24 23 25 27 28 30 28 26 20 18 16 18 18 23 21 20 19 20 19 19 20 21 21 20 20 20 20 21 23 22 21 16 19
3 6 9 14 23 24 20 26 27 27 25 22 22 24 26 29 27 22 20 23 19 23 22 19 19 19 19 19 20 20 21 21 21 20 20 20 20 21 21 20 17 20 21
2 4 8 13 13 19 18 21 26 25 24 24 23 23 21 21 24 22 18 14 13 15 15 16 16 17 18 21 21 21 22 22 21 21 21 21 20 20 18 17 16 18 19
4 5 6 7 6 11 15 17 22 23 23 22 21 20 18 17 17 17 19 17 12 8 12 14 17 18 18 21 22 20 20 20 20 20 20 19 20 17 16 16 16 18 21
6 7 9 9 6 6 10 15 19 21 20 20 19 18 18 20 19 17 16 17 25 30 31 28 23 28 25 25 21 20 20 20 19 19 18 18 18 16 17 17 17 19 20
7 8 10 11 10 7 10 13 17 19 20 20 19 19 20 22 22 20 21 22 20 17 18 22 23 23 22 21 20 20 20 20 20 18 18 19 18 17 17 17 18 19 20
12 12 11 9 10 8 7 11 16 19 20 21 21 21 22 21 23 23 21 19 17 20 20 21 19 18 19 19 20 20 21 21 19 18 18 17 17 16 17 16 16 18 17
15 17 16 14 12 13 11 13 15 18 21 22 22 22 22 21 23 21 18 22 22 18 17 17 17 17 18 19 20 22 21 20 18 16 15 15 14 15 15 13 13 12 12
11 13 13 16 17 17 17 17 18 19 20 22 23 22 24 24 24 23 21 17 15 14 15 17 16 17 18 19 21 20 17 15 13 12 11 11 11 13 11 10 8 10 10
13 16 17 18 19 19 21 23 22 22 20 22 22 22 23 23 24 22 19 16 15 15 15 15 16 16 16 19 20 17 12 11 11 11 11 10 10 7 7 7 8 9 9
11 14 17 18 19 19 22 21 24 25 22 22 22 22 23 23 22 20 18 16 15 14 15 16 16 17 18 18 17 14 11 11 11 12 11 9 8 8 8 7 6 6 7
17 18 19 20 22 21 20 22 22 25 24 22 22 22 22 22 22 21 17 15 15 15 16 17 18 18 17 15 15 13 12 11 11 11 9 9 9 8 7 8 6 6 6
19 20 20 20 21 20 19 22 22 24 24 23 23 23 21 21 21 18 16 17 17 17 17 17 17 16 14 13 13 12 10 10 9 9 10 9 9 7 6 6 7 6 5
24 21 21 21 19 17 19 21 22 25 22 22 21 22 22 21 19 18 19 18 18 17 16 16 16 14 12 12 12 12 11 10 10 10 10 9 8 7 7 7 8 7 7
27 24 22 20 18 16 16 20 25 21 26 25 22 22 21 21 21 20 19 19 18 17 15 15 14 12 12 13 13 12 11 12 11 10 10 10 9 8 7 7 10 9 8
29 27 23 20 16 14 13 15 22 24 24 26 24 23 22 22 21 20 19 19 17 17 16 15 14 12 13 14 14 14 14 13 12 11 11 11 11 10 8 8 9 10 9
31 28 24 19 15 13 10 6 6 11 15 20 23 21 21 21 20 20 19 18 17 16 17 15 15 13 15 16 16 17 16 15 13 12 12 12 12 11 11 11 10 10 10
28 28 24 15 11 10 9 9 4 8 12 15 16 17 17 18 18 18 17 16 16 16 17 15 13 14 15 14 15 17 17 15 14 14 14 14 13 13 12 12 12 13 13
31 28 23 17 11 9 7 7 8 10 12 14 16 16 17 18 18 17 16 16 15 16 16 16 15 13 14 15 16 17 17 17 17 20 19 17 16 16 15 15 15 15 15

GFSMW_850_spd_096.txt.gz
Wind_Speed
21 24 25 26 28 32 30 34 32 26 24 34 30 25 28 33 32 30 25 22 21 21 12 12 14 13 10 7 7 9 11 11 11 13 16 18 21 24 23 17 13 11 11
11 16 22 24 28 33 33 30 33 33 35 30 34 35 37 34 33 31 26 27 27 22 18 14 13 12 10 10 11 12 11 12 14 15 18 20 19 7 3 7 10 9 9
10 10 10 17 26 28 30 31 32 35 34 34 31 34 38 35 34 35 31 31 28 26 24 24 21 19 15 13 15 16 16 17 19 19 15 10 6 7 14 9 12 9 10
10 9 9 9 9 19 25 25 25 29 29 32 35 38 33 36 38 38 36 34 30 29 29 29 26 19 14 14 18 19 20 23 23 21 20 21 23 14 9 7 7 6 7
14 14 12 9 9 10 12 20 21 23 23 26 28 31 35 35 36 33 34 33 31 28 29 27 24 19 17 19 20 17 23 21 20 19 18 17 17 18 19 20 15 15 15
21 17 16 17 18 16 14 16 16 18 20 22 23 25 25 25 26 25 27 31 32 31 26 17 14 19 17 17 16 16 18 18 16 16 16 16 15 15 15 17 19 17 16
21 20 21 21 17 19 21 24 19 16 16 18 20 21 23 22 23 23 24 24 26 25 16 13 12 11 13 13 14 16 18 16 17 17 17 18 18 18 18 17 18 20 22
17 17 18 21 19 19 17 22 23 24 22 20 20 20 19 22 23 25 24 24 24 22 12 7 7 15 21 20 18 18 18 17 17 18 19 18 18 18 19 19 19 18 19
9 6 4 8 14 16 17 17 20 21 22 21 19 19 18 19 21 23 24 22 21 17 14 16 19 19 21 22 17 17 17 17 18 19 19 19 17 18 20 20 19 18 15
8 6 3 3 7 13 17 21 19 21 20 19 17 16 16 16 15 16 18 18 17 17 13 14 12 13 13 13 13 15 17 19 21 19 18 19 18 18 19 19 17 16 16
12 10 8 6 5 3 9 15 15 15 18 18 17 16 15 13 12 10 14 14 14 14 14 13 10 10 13 19 24 24 24 21 21 19 19 19 18 18 17 15 16 17 15
9 9 10 12 11 6 2 7 10 13 15 15 16 15 13 12 13 15 16 16 15 15 16 16 17 22 23 26 24 24 24 22 19 18 19 18 18 18 16 16 17 16 18
11 10 9 8 8 7 4 2 5 9 12 13 14 13 13 14 16 18 18 18 17 16 17 18 17 15 17 22 22 21 20 19 19 18 17 17 18 17 15 16 16 17 17
18 16 15 13 11 10 8 5 4 6 10 12 13 14 15 16 18 19 19 18 18 16 15 15 16 19 23 20 19 19 19 18 18 17 17 16 17 17 16 15 15 16 18
12 14 17 18 16 13 12 12 10 9 11 13 15 15 15 17 21 24 23 20 16 18 19 20 20 20 17 18 18 18 18 18 18 17 15 14 13 13 14 15 14 13 13
15 12 12 12 14 15 17 17 15 14 16 15 16 18 18 20 22 22 20 20 18 19 19 15 15 15 16 17 19 19 18 16 14 13 12 11 10 12 12 13 12 11 11
14 17 18 19 19 19 20 20 20 21 22 21 18 20 21 23 23 22 23 23 19 17 15 14 14 15 15 16 17 20 17 14 12 11 10 10 10 10 8 5 5 6 8
16 20 21 22 21 22 22 23 22 24 25 26 22 21 24 25 24 24 23 22 19 16 15 14 14 14 14 14 14 14 14 10 11 10 10 9 9 8 7 7 6 6 8
27 26 26 25 25 24 23 25 25 24 26 28 27 24 26 26 25 24 23 20 17 16 15 14 13 13 13 12 12 10 11 10 10 10 10 10 8 8 7 7 6 6 4
23 26 27 27 27 26 26 27 26 26 28 28 28 26 26 25 24 22 21 20 18 17 15 13 13 13 13 13 12 10 12 10 9 9 9 8 8 8 7 6 7 6 5
29 26 26 27 28 26 26 26 25 28 25 26 27 25 25 25 23 22 22 22 19 17 14 14 15 15 14 13 11 11 11 10 9 8 8 8 7 7 8 7 7 7 7
34 32 30 27 26 27 26 25 25 23 25 23 26 25 26 26 24 23 23 22 20 17 16 16 15 14 12 9 11 11 11 12 11 9 10 10 9 8 7 7 8 9 8
35 35 33 30 25 25 25 24 21 21 23 23 24 26 26 25 24 25 24 22 21 19 18 15 13 12 11 10 11 12 12 13 12 11 11 11 10 9 8 7 8 9 8
37 35 35 32 29 23 24 21 17 15 17 19 21 26 28 27 26 25 23 22 21 19 16 14 12 11 12 12 13 13 14 14 14 11 11 11 11 10 10 10 9 9 9
32 35 33 34 30 22 21 17 14 8 10 15 19 24 25 24 23 23 22 20 17 15 15 13 13 14 15 11 12 13 14 15 14 13 13 12 12 11 11 11 10 10 11
31 34 34 32 26 20 18 13 12 9 8 12 17 19 21 19 17 17 16 16 17 16 15 15 16 15 14 13 14 14 15 16 16 17 16 15 14 14 13 13 12 13 13

GFSMW_850_spd_099.txt.gz
Wind_Speed
25 14 12 23 32 30 29 24 29 28 28 24 31 29 24 21 22 21 21 19 21 20 17 13 15 18 16 13 12 10 8 9 9 12 14 14 18 20 19 14 8 12 8
27 28 27 21 30 31 45 32 31 28 30 27 32 32 29 22 31 23 25 24 24 22 23 20 16 17 16 15 14 13 12 9 9 13 14 11 11 9 6 7 10 9 11
24 30 30 29 29 28 28 32 31 32 34 37 30 27 31 35 31 26 27 29 27 26 27 27 21 18 17 19 18 15 14 13 14 15 14 6 5 9 13 12 12 12 11
13 15 19 23 26 26 26 28 29 35 37 36 28 26 27 29 32 30 33 32 26 27 29 32 31 28 27 21 17 14 16 16 15 16 19 19 19 10 7 9 9 6 9
8 10 10 9 7 17 24 26 27 27 30 33 30 35 31 27 31 31 37 35 30 29 32 34 32 25 22 19 13 14 15 15 15 19 17 16 16 16 16 12 14 12 12
8 8 7 7 6 6 9 11 21 25 22 23 24 25 25 26 28 31 33 32 31 32 33 30 21 17 10 10 12 10 13 12 14 19 16 14 13 13 14 16 17 18 17
16 11 9 9 9 8 11 14 14 14 16 19 19 21 20 20 20 24 24 22 22 23 27 24 14 12 5 1 2 5 10 12 13 14 15 15 15 15 16 17 18 18 20
15 13 12 14 16 15 14 14 16 20 19 15 17 16 17 17 19 21 19 18 17 17 18 19 18 18 17 25 19 18 24 17 14 14 13 15 15 15 16 17 15 16 17
7 4 4 7 12 16 17 19 18 17 19 20 18 18 17 18 19 19 18 19 17 18 17 15 12 17 19 19 18 17 15 16 15 14 15 16 17 17 17 17 17 17 12
11 7 3 2 2 7 11 14 18 15 16 16 15 15 14 14 13 14 14 16 16 17 16 15 13 12 12 13 12 12 12 13 15 17 18 17 19 18 18 18 18 18 17
13 12 10 8 5 4 4 10 14 15 14 15 14 13 12 12 11 10 10 12 15 16 15 14 13 11 10 10 12 14 16 18 18 17 16 19 20 18 17 18 17 14 16
12 11 11 11 11 10 5 1 5 8 9 10 10 11 11 10 10 10 12 17 19 19 18 17 14 13 14 14 17 16 15 16 17 16 17 18 17 16 18 17 16 16 16
13 10 9 8 8 8 8 5 2 4 7 8 9 11 11 11 11 12 16 18 19 19 17 16 15 16 15 12 13 14 16 16 17 18 17 16 17 18 18 17 16 16 16
13 9 9 9 9 9 7 6 6 5 7 10 12 13 13 13 13 15 18 20 21 20 18 16 16 14 14 14 14 14 15 17 17 17 17 16 17 18 17 16 15 15 15
12 13 13 13 10 8 10 10 11 11 12 12 13 14 15 16 18 20 21 22 22 20 18 16 15 15 17 16 13 15 17 17 18 18 17 15 13 11 11 13 14 14 13
17 17 17 18 16 14 13 11 11 14 15 16 15 17 19 20 21 22 24 26 25 23 20 17 17 16 16 15 15 17 16 17 17 15 13 11 10 10 11 12 13 12 12
17 19 19 19 19 19 19 18 17 17 18 19 21 22 21 23 25 26 27 27 26 23 19 17 16 16 15 15 16 16 15 14 13 11 10 10 10 10 10 9 6 7 9
23 25 24 23 22 22 21 22 21 21 22 22 24 25 26 25 27 28 28 27 27 24 20 19 18 16 15 15 14 14 14 14 10 11 11 11 11 10 10 8 7 7 8
25 26 26 27 28 26 24 25 24 23 24 24 25 26 29 28 29 28 27 28 27 23 21 20 17 15 14 14 13 13 12 12 9 11 12 12 12 11 10 8 8 7 6
30 32 32 32 31 29 29 29 26 25 25 23 24 26 29 30 28 27 28 27 24 23 21 19 16 15 15 14 13 10 9 9 9 12 13 12 11 11 9 8 8 8 7
38 36 36 35 35 31 28 31 30 28 23 24 24 24 25 28 27 27 27 26 25 24 22 19 18 16 15 13 13 8 8 8 10 10 11 11 10 10 9 8 8 9 8
33 34 38 37 34 31 30 32 31 26 26 24 24 24 23 28 28 27 26 26 26 25 22 20 19 17 15 13 12 9 9 11 12 11 11 12 11 10 9 8 9 10 9
32 34 36 35 32 31 30 32 31 26 26 25 23 23 22 27 27 27 28 28 28 26 24 22 18 15 14 13 12 11 12 13 13 12 12 12 12 11 10 9 9 9 9
33 36 31 33 35 36 32 29 28 28 25 24 22 22 24 28 28 29 29 29 29 28 26 22 18 14 12 10 11 13 14 14 14 14 13 13 12 12 11 11 9 8 10
36 36 32 40 40 38 38 27 24 25 23 21 20 23 25 30 32 32 32 31 29 25 21 18 16 16 14 11 12 12 14 15 15 15 16 15 14 14 13 12 11 10 10
34 33 39 39 35 29 26 25 22 21 20 17 17 21 24 28 30 29 29 26 23 22 21 19 18 15 13 14 13 13 15 17 18 18 18 16 14 13 12 12 12 12 11

GFSMW_850_spd_102.txt.gz
Wind_Speed
30 31 25 24 30 34 32 31 27 24 23 28 18 21 21 18 16 17 18 19 18 17 17 15 16 17 20 19 17 16 14 13 10 9 7 8 10 14 20 17 12 13 11
17 25 23 19 17 38 35 34 31 24 22 16 18 19 22 19 18 18 16 14 16 18 18 20 20 19 19 21 19 19 17 13 11 8 7 7 7 8 7 8 10 13 13
15 16 13 8 11 22 24 21 17 23 30 21 17 18 20 22 22 21 19 16 14 18 23 24 27 26 23 22 23 22 19 13 13 12 7 5 4 5 9 11 14 13 13
14 18 21 25 15 22 19 29 23 24 26 23 29 26 23 20 28 33 27 25 21 22 23 21 25 27 28 28 29 28 22 17 13 13 13 15 15 9 8 7 11 12 10
12 14 19 24 23 24 30 38 32 26 25 34 29 31 30 27 23 27 27 34 39 35 30 26 26 22 21 21 16 17 16 12 11 12 13 13 13 14 14 14 10 12 15
13 13 14 13 10 23 28 32 35 30 32 27 29 31 34 38 31 30 34 41 36 31 33 32 29 25 23 19 27 17 12 10 7 12 13 12 12 8 11 12 12 13 12
12 11 10 10 9 10 13 17 21 28 30 29 28 29 30 28 28 26 29 38 37 31 32 27 27 24 23 24 24 23 19 21 18 12 14 17 19 17 17 15 14 12 13
8 8 6 4 5 8 10 12 14 15 18 22 24 24 26 23 25 22 22 22 22 22 19 17 19 16 16 17 17 19 23 22 22 17 17 18 18 17 16 17 15 11 12
8 7 3 2 4 7 12 13 13 15 18 22 21 20 20 20 20 19 19 19 19 18 16 16 21 23 21 21 18 17 20 21 18 15 15 15 16 15 16 15 16 16 10
14 11 7 3 0 4 7 11 16 18 19 20 20 20 19 18 18 18 17 17 18 18 18 23 23 18 16 16 17 18 16 16 15 14 15 17 17 17 18 18 17 17 17
12 13 13 13 10 5 3 8 11 15 18 16 16 16 16 15 15 16 16 16 17 19 21 26 21 18 17 16 15 15 15 13 15 18 18 18 18 18 18 17 18 18 17
12 10 10 10 10 10 6 3 4 8 12 13 14 16 15 15 15 16 16 17 18 21 27 24 21 19 17 16 14 13 15 16 15 16 16 17 17 17 17 18 18 17 16
12 11 11 9 9 8 6 5 3 4 6 9 11 13 14 15 16 17 17 18 20 24 25 24 23 21 19 17 16 16 14 15 15 15 15 16 17 17 17 18 17 16 16
12 11 11 11 11 10 10 10 9 8 8 10 12 14 15 15 16 16 17 20 23 25 25 24 23 22 19 18 17 15 15 16 15 15 15 16 16 17 18 18 18 17 15
15 15 14 12 13 14 12 10 11 12 13 14 14 15 16 17 17 18 19 21 23 25 26 26 24 22 21 20 18 16 15 14 14 16 18 18 19 19 19 16 15 15 14
13 13 14 17 17 15 16 17 18 17 17 17 18 18 18 19 20 21 23 25 28 29 29 26 24 23 22 21 18 16 16 15 16 17 18 18 17 13 11 11 12 13 13
16 17 18 17 18 19 21 22 21 20 21 23 22 23 23 24 24 26 27 28 29 30 29 28 25 23 21 19 17 17 15 15 16 16 17 16 13 11 11 11 11 9 9
19 20 20 21 22 23 23 24 24 25 25 24 24 26 27 30 30 30 30 30 31 31 30 28 27 24 21 18 17 17 15 15 15 14 15 15 13 12 11 11 9 7 9
23 24 25 25 26 26 26 25 26 25 27 27 26 26 28 30 34 35 33 32 33 33 32 30 27 24 21 20 19 17 15 14 13 13 12 13 12 12 11 11 10 9 9
22 24 26 27 28 30 29 28 28 32 29 28 26 27 28 31 33 36 35 35 34 32 31 29 27 25 23 22 20 17 16 14 14 13 13 13 14 14 13 12 11 10 9
26 26 26 26 27 26 27 30 29 30 32 31 29 28 28 30 32 33 37 37 36 34 33 32 30 27 26 23 20 18 16 15 13 12 13 15 16 15 13 11 11 11 10
26 25 27 28 30 28 27 29 32 30 31 32 31 30 28 29 31 34 37 37 36 36 34 33 30 28 25 24 22 19 16 14 12 12 13 14 14 14 12 11 11 11 11
26 28 30 33 36 32 29 34 41 32 29 30 29 29 28 29 32 35 40 38 39 38 37 35 32 30 27 25 22 19 17 13 12 13 13 14 14 13 12 12 11 11 11
26 26 30 34 36 34 42 43 39 33 29 30 29 27 29 29 33 36 39 40 41 40 39 37 35 32 27 25 21 17 17 14 15 15 15 14 14 14 13 13 12 11 12
29 31 32 35 42 43 43 41 32 29 29 30 27 26 27 28 32 36 40 41 40 41 42 40 36 30 26 23 17 14 14 15 16 17 17 17 17 17 17 16 15 13 13
30 29 30 35 37 38 40 29 23 23 25 26 24 27 25 27 30 35 38 40 40 40 37 29 25 24 20 19 21 19 18 18 18 20 20 19 18 18 17 17 16 15 14

GFSMW_850_spd_105.txt.gz
Wind_Speed
12 25 25 22 25 23 25 41 30 31 27 24 22 22 22 21 21 18 19 20 20 19 16 13 14 16 15 13 13 13 13 13 13 11 10 10 9 10 10 9 5 8 10
8 21 21 19 15 15 26 26 35 35 24 18 16 17 18 20 17 18 17 15 16 15 15 15 14 14 14 15 15 16 16 16 16 12 9 5 7 10 8 5 7 9 11
14 17 13 11 9 10 30 29 30 34 24 14 17 13 11 15 15 14 16 17 16 16 17 14 18 18 18 16 16 18 21 21 18 16 9 5 5 4 9 8 8 9 10
14 18 6 5 4 6 27 33 28 29 23 18 18 15 14 11 16 14 17 19 19 15 13 12 14 17 17 22 25 21 27 24 19 16 14 9 5 3 7 10 10 11 11
16 15 9 6 2 4 8 25 17 16 33 32 31 21 18 16 16 17 17 22 22 23 21 19 22 25 22 30 27 24 22 22 19 16 13 12 8 10 16 16 11 14 14
14 12 11 15 13 11 11 20 23 20 22 19 23 25 25 24 21 24 21 23 26 30 24 29 29 35 31 31 30 26 21 19 17 19 29 25 22 22 14 16 15 13 10
17 15 13 15 15 19 22 24 28 31 27 25 22 22 27 25 26 26 21 23 30 33 32 35 33 34 35 30 29 31 25 22 25 29 29 23 19 15 18 16 13 11 10
16 13 11 11 11 10 12 22 24 27 27 31 28 30 32 29 29 32 32 38 38 32 37 37 39 33 19 23 26 26 23 23 24 20 22 18 16 17 18 18 15 12 12
13 11 11 11 10 12 15 16 17 20 19 19 19 28 28 27 29 27 26 30 28 27 22 28 23 16 22 23 23 22 19 19 22 23 20 18 18 17 17 17 18 17 11
12 10 9 7 6 3 5 10 16 17 18 19 21 22 21 21 24 23 23 23 23 22 21 20 18 17 23 24 22 22 24 22 22 21 18 17 17 18 19 18 18 18 18
13 13 14 15 13 9 6 1 3 8 13 14 17 19 19 20 21 23 22 23 23 23 23 22 18 25 29 24 23 22 19 19 18 17 16 17 19 19 19 19 18 18 18
16 18 16 14 13 13 13 10 7 3 6 11 13 14 16 18 19 20 20 22 23 23 23 22 24 31 26 24 21 19 18 18 19 18 18 19 19 19 19 19 19 17 19
16 16 15 14 15 14 13 13 12 9 6 7 9 11 14 17 19 19 20 21 22 23 24 25 32 31 26 23 21 20 19 19 19 19 19 19 18 19 20 19 17 16 16
17 17 14 14 14 13 12 12 13 13 13 11 10 11 14 16 17 19 20 20 21 21 24 31 33 28 26 26 24 23 21 20 18 19 17 17 16 16 17 18 17 17 16
18 16 16 16 14 14 13 13 14 15 15 16 16 16 15 17 18 20 20 20 19 22 26 31 30 29 28 27 24 22 20 17 19 18 19 20 18 18 19 19 18 18 17
15 17 19 19 19 19 18 19 16 16 18 20 20 19 21 21 20 20 21 22 23 25 27 28 29 29 29 26 24 22 22 20 20 19 19 18 17 19 19 19 17 16 15
10 11 12 15 18 21 23 24 25 25 24 22 22 22 24 25 25 25 24 25 25 26 29 30 30 30 29 25 24 24 23 21 20 19 19 18 17 17 17 15 13 15 15
10 8 9 13 16 19 21 24 26 28 30 30 30 27 25 27 28 29 31 30 29 29 30 31 32 31 30 27 25 25 23 22 20 19 18 18 17 17 16 14 14 12 11
22 21 20 21 20 18 18 20 22 25 29 30 29 29 29 30 30 32 34 35 34 33 33 34 35 34 32 29 27 26 24 21 19 17 17 17 17 15 14 14 12 13 11
19 21 24 25 24 24 24 24 24 24 26 29 32 33 34 34 34 33 36 35 38 37 35 35 35 34 33 30 28 27 23 22 21 18 16 15 15 15 15 13 13 13 11
21 24 23 23 24 25 26 29 31 30 29 30 32 35 35 37 37 36 34 36 38 40 38 37 36 35 34 32 29 27 24 23 20 18 14 15 15 15 14 14 13 13 11
21 20 22 25 27 29 30 32 33 32 32 34 37 37 36 35 35 35 34 37 39 39 40 38 37 37 35 34 31 28 26 22 20 16 14 14 15 16 14 16 15 13 12
18 19 21 25 28 28 27 33 37 37 39 39 38 35 35 33 33 34 34 35 41 42 43 42 40 38 35 34 32 30 26 24 21 18 16 13 13 13 15 15 16 14 14
19 21 24 24 28 28 29 32 34 36 33 32 33 34 32 31 32 33 32 35 42 44 46 43 42 39 38 37 35 32 30 26 23 18 15 15 15 15 16 17 17 15 15
19 22 22 25 31 32 33 31 32 33 32 28 27 27 30 32 33 36 33 38 41 44 46 47 46 45 44 41 36 33 30 25 20 17 17 19 20 20 21 20 17 16 15
23 24 26 31 33 32 32 31 31 32 30 28 25 27 29 29 30 29 37 36 34 38 40 45 46 44 40 37 31 28 26 22 20 20 20 21 22 23 23 21 19 18 17

GFSMW_850_spd_108.txt.gz
Wind_Speed
17 19 14 22 21 22 18 18 19 20 23 25 32 33 30 27 26 27 26 23 24 21 20 18 14 14 12 9 12 11 14 13 16 13 17 13 11 10 13 17 17 14 10
14 17 12 16 15 14 17 20 23 26 26 24 23 25 28 24 25 25 25 23 22 21 18 18 20 20 20 18 12 11 14 14 16 17 16 13 14 18 16 11 8 11 12
8 10 13 9 8 14 4 19 30 30 27 28 25 22 21 21 21 20 21 21 20 21 20 19 17 17 15 14 15 17 18 19 20 20 14 9 8 12 10 8 11 9 12
16 19 15 11 1 9 11 10 27 39 27 20 24 22 15 19 22 17 16 15 17 18 19 19 15 15 13 15 13 10 11 17 22 23 26 15 12 8 7 8 9 12 12
22 17 8 5 8 6 5 22 26 36 36 21 14 14 12 11 7 12 13 16 17 21 17 16 15 14 19 15 15 14 11 15 22 22 27 22 17 23 16 13 15 16 13
21 17 14 11 14 8 15 24 22 19 28 39 28 24 19 19 16 7 17 19 19 22 22 22 21 23 24 22 19 18 18 15 24 26 24 27 31 26 21 18 18 14 13
19 18 17 16 13 12 13 14 18 15 20 29 41 32 34 30 33 24 28 25 24 24 21 26 28 30 25 24 24 25 27 27 34 27 24 31 24 22 21 16 16 13 10
15 11 11 13 9 8 14 13 13 16 16 20 28 24 25 27 27 33 27 28 28 29 33 29 31 32 31 28 32 36 36 29 28 28 30 27 25 25 19 19 21 21 21
7 4 6 6 4 6 7 10 19 23 21 26 27 30 31 26 27 37 30 29 33 37 37 34 32 34 30 42 40 35 32 29 27 24 23 23 20 18 17 19 20 19 18
14 15 13 10 9 5 2 4 8 10 12 16 18 23 25 24 27 30 28 28 26 28 30 32 32 28 35 40 26 29 29 25 23 24 23 21 19 21 20 19 19 20 20
21 20 18 17 17 15 14 9 2 4 10 11 14 16 17 19 21 22 23 24 25 25 26 26 24 22 22 22 26 27 26 24 23 23 20 22 21 20 19 20 21 21 21
22 20 19 20 19 18 16 16 13 9 6 6 10 14 15 18 18 19 21 20 23 24 25 25 25 23 22 26 28 29 26 25 23 23 23 22 19 20 21 22 21 20 19
20 20 21 20 19 18 17 15 12 10 9 7 6 9 12 15 16 17 20 19 21 23 23 23 24 26 26 30 32 27 24 24 22 20 20 20 21 21 20 19 19 19 19
20 19 18 17 15 14 14 13 14 14 13 11 10 10 11 14 16 18 20 20 21 22 23 22 24 28 31 31 31 27 26 24 22 21 22 20 20 20 21 22 21 20 20
15 15 15 14 13 13 13 13 13 13 15 15 15 14 14 16 16 18 20 22 22 23 23 21 23 30 34 34 28 29 27 24 24 23 21 22 22 21 22 23 22 21 19
17 18 16 17 18 20 20 20 19 20 21 19 19 19 18 18 18 20 22 23 23 23 24 24 27 29 34 36 29 30 28 26 26 25 24 22 20 21 22 22 23 22 19
21 23 23 24 23 23 24 24 24 24 25 24 25 26 24 22 22 23 23 26 26 26 26 27 29 31 33 33 31 31 30 28 27 25 23 21 21 21 21 21 20 19 17
21 20 21 23 25 27 27 28 28 29 29 30 29 26 25 28 28 25 27 26 28 30 31 31 31 32 33 31 31 31 29 27 26 25 24 22 21 20 20 19 19 17 17
14 16 19 21 22 20 22 27 31 33 34 33 31 32 30 27 25 28 30 29 28 30 34 34 34 34 34 33 34 33 31 30 28 26 24 23 21 21 20 20 17 17 16
5 11 14 15 16 16 18 21 23 26 29 32 35 35 32 34 36 34 29 30 32 32 29 35 38 38 37 36 36 36 33 31 29 27 26 23 20 19 19 18 17 17 15
11 11 11 13 13 14 16 16 19 22 24 29 32 36 40 42 38 37 35 33 32 35 33 30 36 39 40 39 38 37 34 33 31 29 26 23 20 19 19 19 18 16 16
17 20 22 23 24 22 22 22 24 25 27 26 30 33 36 38 42 38 39 35 33 36 39 34 31 37 41 40 38 38 35 34 33 29 25 20 21 19 19 21 19 20 17
20 23 25 27 27 26 27 33 33 33 31 31 34 33 32 33 33 34 37 34 32 34 38 40 36 34 40 42 39 38 36 36 32 27 23 20 20 19 22 22 22 18 17
23 25 28 28 28 28 30 30 31 32 34 36 36 34 32 33 30 30 33 33 34 33 36 37 37 35 35 46 42 40 37 38 34 28 27 21 18 19 21 22 21 19 19
24 26 29 28 27 32 32 32 32 33 37 37 37 35 31 29 30 27 30 32 35 35 36 40 41 40 38 47 46 45 45 43 37 32 26 24 23 24 25 22 20 20 21
24 26 28 26 26 30 31 33 31 32 37 38 37 37 36 33 32 27 31 30 31 33 28 36 42 38 34 40 48 46 44 42 39 33 30 28 26 25 24 24 23 23 22

GFSMW_850_spd_111.txt.gz
Wind_Speed
16 18 23 25 21 21 21 23 20 17 28 40 41 44 40 39 36 34 37 36 31 28 27 26 23 20 20 16 13 15 16 14 14 12 14 14 15 18 17 18 18 20 21
12 19 24 21 20 21 16 17 17 15 14 36 35 32 35 34 33 29 28 30 28 27 26 25 25 21 17 15 14 14 15 14 13 18 14 18 20 20 20 20 17 13 11
14 14 12 14 15 14 9 11 15 17 21 24 23 22 23 27 29 31 30 29 28 27 25 26 25 24 23 23 20 19 18 16 14 19 18 9 11 21 22 21 15 12 9
14 12 11 7 2 11 15 27 20 22 27 28 24 21 24 23 21 26 26 26 26 26 27 25 27 28 28 27 23 21 18 17 19 19 20 23 11 10 11 18 15 12 11
14 19 9 4 9 6 14 19 18 19 28 29 25 27 29 26 21 21 21 20 21 23 25 23 22 20 20 17 12 12 12 15 15 14 19 24 33 19 16 15 19 18 14
21 15 12 15 4 4 2 21 21 32 35 32 30 25 25 24 17 14 19 17 17 22 24 21 19 19 18 19 19 18 17 20 15 20 22 19 20 34 28 20 16 13 13
21 17 15 17 10 14 21 19 17 26 33 24 21 18 11 11 14 15 14 13 15 17 20 20 24 25 27 27 28 25 22 19 18 21 25 25 19 30 26 23 23 17 17
14 10 6 5 4 1 6 12 16 20 28 26 29 29 23 24 18 22 25 26 28 25 24 26 27 22 29 34 34 34 32 27 25 25 33 33 22 23 26 24 22 20 19
22 15 9 6 5 3 1 5 7 10 13 8 8 23 18 23 36 37 38 34 37 32 31 34 33 41 35 32 32 40 36 31 29 38 33 23 24 26 23 23 22 21 22
23 20 18 19 15 14 10 5 1 2 8 10 12 22 27 23 23 29 35 27 42 34 31 31 38 39 39 39 43 37 35 36 43 37 32 27 23 22 22 22 23 23 24
22 20 22 22 21 21 20 16 12 5 1 5 8 11 14 19 22 19 19 23 31 34 33 33 31 33 34 37 33 37 39 37 32 31 30 25 24 24 24 24 23 23 22
21 23 22 23 23 22 19 18 16 13 11 5 2 8 13 17 19 21 22 25 26 27 29 30 29 29 29 29 27 28 28 29 30 27 27 26 26 27 25 24 24 23 23
20 20 20 22 19 16 16 16 16 15 11 9 7 6 7 10 13 15 17 21 22 22 23 24 25 25 23 25 27 28 30 29 29 28 28 27 26 25 25 24 24 24 23
18 17 16 14 12 10 11 10 9 9 9 8 8 8 9 11 12 13 17 20 21 23 23 24 25 24 23 25 29 30 30 33 30 28 28 26 25 24 24 25 24 23 21
18 18 19 15 15 15 14 13 13 12 13 14 15 15 15 15 15 16 18 19 20 22 24 24 25 26 25 25 28 31 33 32 29 29 27 26 25 23 22 22 22 21 19
14 17 22 22 19 20 22 20 20 20 20 20 20 21 22 22 22 22 22 21 23 24 24 26 26 27 28 28 29 32 36 34 31 31 29 27 24 22 21 21 21 20 21
12 17 15 16 20 22 23 22 22 23 25 25 24 24 23 24 25 24 25 26 25 25 27 27 28 29 29 29 30 34 37 35 32 33 29 26 23 21 22 22 22 23 23
20 21 21 23 24 24 24 26 27 27 30 30 30 28 26 26 26 27 28 28 26 26 27 30 30 31 33 33 33 35 36 35 33 32 28 25 24 24 23 22 23 23 22
25 23 22 23 23 23 23 24 25 27 29 31 33 34 36 37 34 33 32 30 30 31 30 30 31 33 34 34 36 37 36 34 36 36 33 30 28 25 25 23 23 22 22
16 18 17 17 18 19 21 22 23 24 26 28 30 32 37 37 38 37 36 34 34 33 34 34 34 35 33 33 34 37 39 38 38 36 33 31 29 26 25 23 22 21 20
13 16 19 21 22 21 20 18 20 22 24 26 29 30 32 34 37 40 38 38 32 34 34 35 38 37 37 36 35 36 38 39 40 38 36 34 32 29 27 24 22 18 17
12 16 17 16 15 12 12 17 20 20 22 26 27 30 32 33 35 37 39 38 37 30 33 34 36 40 38 38 38 37 39 39 41 41 38 35 31 28 26 24 21 21 21
11 13 15 16 17 14 12 15 18 20 22 25 25 31 31 30 30 33 35 37 36 32 31 32 35 36 40 40 38 39 40 40 40 40 38 33 30 27 25 24 23 24 24
13 15 17 19 20 20 17 16 21 22 23 23 27 31 31 33 31 30 30 35 36 33 33 32 31 34 36 40 38 38 41 41 40 40 37 32 31 30 28 25 26 27 25
14 17 20 23 25 26 22 23 28 30 29 30 32 32 32 32 35 34 33 32 33 35 33 34 33 31 36 40 39 35 43 45 44 41 36 36 35 34 33 31 29 27 27
16 19 22 25 27 28 24 25 29 31 32 34 35 35 35 34 37 38 40 35 30 32 33 32 38 34 32 33 37 37 35 45 48 44 44 43 40 40 38 35 33 30 30

GFSMW_850_spd_114.txt.gz
Wind_Speed
30 26 23 24 23 29 28 26 26 24 25 29 31 37 43 43 46 43 42 39 34 35 32 30 30 30 28 27 24 23 22 22 18 16 18 18 14 16 18 17 19 20 20
25 20 20 24 28 27 26 26 24 20 20 24 30 36 41 48 36 34 39 39 38 36 34 32 33 31 30 27 25 25 26 22 20 20 17 17 19 20 22 21 19 21 19
21 17 20 23 25 22 20 23 22 17 17 20 25 40 46 42 35 32 36 40 39 37 34 35 35 32 30 29 28 26 25 25 24 23 19 11 12 21 24 24 22 24 21
23 17 17 15 15 15 19 17 16 14 14 18 9 42 43 40 38 38 41 42 40 37 34 32 31 32 32 31 29 28 28 25 23 25 27 26 12 13 11 24 27 23 21
18 18 15 12 7 8 13 16 20 21 17 23 11 25 26 24 32 34 36 35 35 36 33 30 32 33 34 31 32 29 22 22 23 22 21 22 25 28 24 17 25 23 22
17 12 13 7 2 6 7 16 18 13 6 19 18 18 17 14 13 17 23 24 23 25 29 28 29 32 32 30 33 23 18 15 17 19 23 25 23 27 28 24 21 26 22
14 14 9 8 6 17 19 10 16 15 16 25 17 18 17 16 16 19 17 19 21 23 22 25 25 31 29 32 23 22 21 25 25 24 28 24 25 25 19 29 22 23 23
19 18 14 7 11 7 13 21 15 20 30 21 22 19 22 19 11 15 23 24 25 23 17 22 28 34 29 26 27 27 29 33 32 31 29 29 27 26 30 22 34 25 22
28 22 17 13 12 13 14 10 16 21 15 12 9 14 20 8 14 13 21 24 20 24 26 29 32 30 30 32 37 30 33 39 39 41 39 34 34 25 28 28 31 26 23
30 25 21 20 17 16 15 12 12 6 2 4 5 1 19 17 14 21 21 28 39 35 33 44 36 33 35 38 42 43 43 41 41 45 48 36 30 30 28 31 29 27 26
24 24 24 22 22 22 22 20 16 11 7 2 3 6 10 13 18 22 23 23 27 36 37 37 39 40 34 32 44 44 46 46 47 43 35 37 36 35 32 32 28 26 27
26 23 20 19 21 21 19 18 16 15 13 11 6 1 6 10 14 16 18 21 22 22 26 30 32 35 36 34 33 37 39 41 40 39 38 38 34 34 30 28 28 27 26
19 17 16 17 16 16 15 14 13 12 11 10 8 5 2 3 7 10 14 17 19 20 23 22 24 26 29 32 34 35 36 34 32 34 35 34 32 28 31 29 28 27 26
17 16 16 16 15 15 15 14 13 13 13 12 12 11 10 10 11 12 14 16 17 19 21 21 23 24 27 30 29 31 32 32 29 28 30 33 32 29 29 29 28 27 26
15 16 15 15 14 14 14 13 14 15 16 16 16 18 19 19 20 20 21 21 20 22 23 24 25 25 26 28 29 30 31 33 31 31 32 30 29 28 28 29 27 26 25
10 14 15 15 18 19 19 19 19 19 19 19 18 19 20 21 23 25 27 28 27 26 25 25 26 28 29 28 29 29 31 34 34 36 36 33 33 32 31 29 27 26 25
12 14 14 17 16 17 19 20 21 21 22 22 21 21 21 21 22 25 28 30 31 32 31 30 29 30 30 29 28 29 31 35 36 37 39 36 34 32 33 30 27 26 24
13 15 17 16 18 21 23 25 25 26 27 28 29 30 31 33 34 32 28 25 27 32 35 36 34 33 32 28 28 29 32 36 37 40 40 39 37 34 33 32 28 25 26
13 15 18 20 21 23 25 26 26 27 27 27 28 30 32 33 33 32 33 34 32 29 29 34 37 38 37 31 27 26 32 36 35 38 39 36 36 35 32 34 29 26 25
21 22 20 20 21 21 23 24 25 26 28 28 28 29 30 31 34 36 37 37 35 33 32 32 31 38 40 37 33 27 30 35 34 35 36 39 37 35 39 36 33 29 27
17 17 18 20 21 23 25 25 24 24 26 26 28 29 31 33 34 36 37 39 38 33 33 35 33 30 37 37 36 32 30 35 35 32 35 39 37 35 35 34 32 28 23
14 15 18 19 19 19 20 19 20 21 21 22 23 24 28 33 37 37 37 36 37 38 37 36 36 31 29 35 34 33 31 32 36 36 32 36 38 37 37 34 29 27 27
13 14 16 18 17 18 17 19 21 19 23 27 29 31 33 33 32 35 37 38 37 35 34 35 36 33 29 29 32 29 32 31 33 36 35 35 38 39 37 33 28 30 31
12 14 15 16 17 18 18 16 21 20 26 25 27 30 32 34 33 34 34 35 38 37 36 37 35 34 33 32 29 29 30 30 29 32 37 37 38 38 35 32 32 34 31
11 12 15 17 19 19 20 18 21 23 25 25 28 29 30 32 35 35 35 35 36 36 38 37 38 38 35 30 31 31 29 29 30 34 35 36 33 36 38 35 34 32 30
12 14 16 18 17 19 22 20 20 21 24 25 25 27 26 30 32 35 39 37 36 36 34 33 34 38 33 36 31 29 26 25 26 35 37 39 38 41 40 38 38 36 32

GFSMW_850_spd_117.txt.gz
Wind_Speed
29 23 24 28 24 24 25 26 27 28 26 27 28 31 33 36 41 45 46 40 49 44 34 39 33 34 34 35 33 31 28 26 22 21 21 21 21 23 23 22 20 19 19
27 29 24 22 24 24 23 27 27 27 25 27 29 31 36 39 41 43 50 45 51 48 43 38 36 34 35 36 34 31 29 27 25 26 22 21 25 27 22 23 23 23 21
24 23 18 20 19 25 28 30 28 26 25 27 29 36 35 37 36 39 44 48 44 46 37 38 37 34 35 37 34 32 31 30 28 29 19 9 12 23 28 27 26 25 25
16 12 14 17 16 19 23 22 20 20 24 23 25 27 31 36 36 40 43 41 41 35 32 35 36 32 37 35 32 31 31 31 31 31 31 23 13 15 12 27 29 29 28
6 9 16 13 12 12 15 16 21 24 23 24 23 24 25 35 34 37 37 35 37 37 31 33 31 34 35 34 33 34 34 35 33 35 33 32 31 23 18 17 22 29 30
4 5 7 5 5 4 10 17 24 23 20 18 20 17 3 27 30 31 27 28 29 29 30 30 33 34 35 36 35 36 37 35 33 29 30 27 26 33 32 29 28 25 31
4 3 4 6 3 7 12 9 14 23 17 13 12 13 12 11 11 17 19 24 29 29 28 29 31 32 32 36 37 36 32 34 33 26 26 25 28 30 33 28 28 26 29
19 13 19 12 12 12 19 13 11 17 14 11 10 5 9 9 8 8 8 8 15 19 21 22 24 26 30 27 28 30 32 34 33 31 28 32 38 36 38 33 30 27 29
26 26 27 24 19 13 20 30 21 21 19 9 15 7 6 9 11 5 11 16 13 14 18 19 19 22 21 26 30 28 33 33 33 35 36 40 42 42 38 36 34 34 28
29 29 27 24 23 21 21 23 21 17 13 5 3 1 10 11 2 16 15 13 17 23 24 27 31 35 37 36 38 42 43 37 41 43 39 41 46 48 47 43 38 36 39
23 23 22 22 22 23 23 23 21 18 15 13 11 9 10 9 7 7 15 20 20 20 28 40 39 39 43 43 44 42 40 48 46 45 46 48 45 46 49 51 37 37 37
19 19 18 17 18 19 19 19 18 17 17 14 11 6 3 5 7 8 10 14 18 21 14 23 26 27 32 36 38 44 47 47 41 44 44 45 49 51 47 39 38 41 40
16 17 17 19 19 18 17 17 17 17 15 12 9 6 4 3 6 9 12 14 16 19 21 23 24 27 28 28 31 34 36 39 39 37 42 46 43 42 40 41 38 46 39
16 17 18 18 18 19 19 18 17 17 16 15 15 13 12 11 13 15 16 17 18 20 21 23 25 26 27 28 30 32 33 35 38 40 41 43 43 42 42 39 41 39 32
15 18 18 18 17 17 16 16 16 16 16 17 16 16 16 17 18 19 20 22 23 24 25 26 27 27 28 28 29 29 31 33 35 38 37 38 38 35 34 35 35 37 30
12 15 15 15 15 16 16 17 17 18 19 19 19 20 20 22 23 24 26 27 28 28 29 31 32 31 30 31 29 28 31 32 33 34 34 35 36 36 35 37 33 32 33
8 11 12 12 13 15 18 20 21 22 22 23 27 29 29 31 31 29 26 25 27 29 31 32 32 34 36 35 31 30 28 31 32 33 32 34 33 37 35 32 36 32 30
8 9 9 11 14 18 22 25 26 27 27 27 28 30 31 33 34 34 34 35 35 32 29 29 31 35 35 34 34 32 31 32 33 31 31 32 31 35 37 37 35 34 32
8 8 10 15 19 21 23 24 25 25 25 28 30 31 31 32 34 35 37 38 38 39 36 32 30 29 33 35 33 32 33 33 34 34 31 27 31 29 36 34 36 32 33
7 11 14 17 19 21 24 25 26 26 27 28 30 31 32 34 35 36 36 38 38 39 38 38 33 32 30 29 31 31 31 33 34 34 34 30 27 27 30 33 31 35 35
10 13 15 17 21 22 23 23 24 24 25 26 26 27 29 31 32 35 37 39 38 39 39 39 35 32 30 28 27 30 27 32 33 33 33 32 28 27 29 34 35 35 29
11 15 17 17 18 20 21 22 23 22 23 23 24 25 26 27 30 31 33 35 38 37 36 37 39 31 29 30 27 28 25 26 30 35 32 31 29 29 29 34 33 31 27
14 16 18 20 19 21 21 21 21 20 24 25 28 28 29 30 32 33 33 34 33 32 38 35 39 37 32 28 29 26 28 25 28 32 33 29 27 28 31 36 37 33 30
15 17 18 18 19 18 19 19 22 21 24 26 26 26 28 30 34 36 35 34 36 36 37 39 39 40 39 37 27 26 28 26 25 26 29 28 26 25 27 35 33 36 32
14 16 17 18 19 19 20 19 21 22 24 24 28 29 31 34 36 37 37 37 35 34 39 43 45 46 44 40 34 30 25 31 25 21 31 33 29 24 30 32 34 31 34
14 15 16 17 18 19 20 20 21 22 23 27 28 29 31 34 35 38 42 37 34 36 36 36 37 39 37 35 32 28 30 29 23 22 30 32 35 31 32 31 36 34 35

GFSMW_850_spd_120.txt.gz
Wind_Speed
30 27 24 24 28 35 32 26 23 21 23 25 26 29 31 30 30 32 34 32 34 41 37 46 43 48 37 33 41 39 36 35 30 25 27 26 25 24 25 25 24 22 21
30 24 22 27 27 30 33 28 24 23 26 27 27 28 28 30 33 34 37 42 41 48 49 43 50 43 38 35 39 41 38 38 32 29 26 21 26 28 28 28 27 25 23
25 20 21 26 25 26 28 25 23 26 28 27 25 27 28 32 34 41 41 44 41 46 53 44 46 44 42 37 38 42 40 40 36 32 22 13 15 19 30 30 29 25 25
20 19 18 19 20 19 20 20 24 29 24 25 26 27 28 33 38 40 40 41 35 46 47 45 43 45 41 39 40 38 41 41 36 33 33 30 12 11 10 26 32 28 27
9 11 10 11 13 14 16 19 20 22 22 19 23 25 28 31 34 41 38 32 31 37 41 45 46 45 42 38 41 43 41 39 39 36 35 36 35 24 16 12 16 23 29
3 4 5 7 9 12 13 15 20 24 21 21 21 24 23 24 35 25 29 25 30 35 39 48 45 36 40 38 34 35 36 39 40 39 37 38 39 42 34 27 27 26 25
17 14 12 12 8 7 9 17 21 19 18 14 16 15 17 15 4 18 19 18 14 35 31 28 30 29 26 30 31 34 36 38 42 42 40 35 41 37 29 29 22 27 30
24 23 19 24 22 20 16 17 5 6 10 9 8 12 10 7 3 2 5 2 6 11 13 18 23 20 20 26 30 29 32 34 35 38 39 43 38 34 29 29 26 29 35
27 28 26 27 29 22 25 31 28 27 19 12 13 10 4 5 3 0 1 3 4 5 8 11 15 24 27 26 30 33 31 37 37 37 37 36 36 34 34 36 34 35 32
25 25 25 24 24 23 29 27 28 28 19 16 10 10 8 7 3 2 3 1 5 8 15 15 17 20 23 23 24 28 32 32 33 33 35 37 42 40 40 37 38 41 46
17 16 17 17 16 16 20 22 23 20 19 17 15 13 11 9 4 2 1 5 7 12 16 18 24 29 30 33 36 38 39 43 48 48 43 42 45 48 45 45 48 48 48
14 15 16 17 19 20 20 20 20 18 16 14 12 11 9 8 5 4 5 8 11 15 17 19 19 12 20 30 35 46 53 52 50 53 46 49 49 53 50 45 46 52 45
15 16 18 19 20 20 21 20 18 17 14 11 9 9 9 9 9 9 9 11 14 16 17 20 23 26 25 25 29 26 24 26 32 43 47 47 47 43 41 39 40 47 47
13 15 17 17 18 19 20 20 19 18 17 15 13 12 11 12 14 15 16 17 18 20 21 23 23 24 27 30 32 33 36 39 38 37 32 32 38 41 44 42 44 42 43
12 15 15 15 16 17 18 18 18 18 17 17 18 19 19 19 19 18 18 18 18 19 21 23 25 27 29 30 31 31 33 34 35 40 42 40 38 38 34 37 40 42 42
9 12 14 14 15 16 17 16 16 16 17 19 20 21 21 23 24 24 24 24 25 26 26 26 28 29 29 29 30 32 35 34 35 36 35 37 38 36 35 34 34 39 41
6 9 10 11 14 15 16 17 18 20 22 24 26 28 29 30 31 32 34 35 36 36 33 30 29 30 30 30 31 31 32 35 38 36 37 36 34 34 34 31 32 37 38
6 8 8 10 11 13 16 19 21 21 23 25 28 30 32 34 35 37 38 39 41 41 41 40 38 36 31 29 31 31 31 33 36 39 37 36 35 35 32 34 30 34 35
6 7 6 7 11 16 18 20 22 23 25 27 28 29 31 32 34 36 38 39 41 42 43 44 42 42 41 32 25 26 30 33 34 34 38 37 36 35 31 30 28 33 34
7 5 5 9 13 16 18 20 21 23 25 26 27 28 30 31 31 31 32 33 35 37 38 40 41 40 39 34 25 21 28 33 34 33 34 36 37 34 29 30 29 30 32
4 3 6 9 13 15 17 18 20 23 24 25 25 25 26 28 28 29 30 32 34 35 35 36 36 37 37 36 30 24 26 32 35 33 32 31 34 30 29 30 31 30 29
4 6 8 10 13 16 18 21 22 23 24 24 24 24 24 25 25 27 28 30 32 31 32 32 34 35 35 35 32 31 27 31 32 36 31 32 30 27 26 26 31 31 31
6 8 10 11 13 18 20 21 22 24 25 24 24 23 24 24 25 28 28 27 27 28 30 32 37 39 40 40 36 34 32 31 30 27 28 28 29 26 26 26 26 33 36
8 9 11 14 16 18 19 21 23 24 24 25 23 24 25 24 25 25 24 26 27 30 31 37 40 41 44 44 43 39 35 30 29 21 22 24 26 27 26 24 26 30 35
10 11 14 15 16 19 19 21 22 24 24 24 25 24 23 24 26 28 30 27 29 26 31 36 38 43 46 45 41 38 37 35 30 29 24 27 23 26 28 24 27 30 33
13 15 16 17 17 18 18 20 22 22 23 23 23 22 22 24 26 29 34 29 30 30 28 31 31 34 34 36 37 35 34 33 29 27 26 28 24 28 27 26 29 28 32